GFSNE_prec_sndepth_003.txt.gz
Snowfall_Accumulation
0.0 0.0 0.0 0.0 0.0 0.0 0.0 0.0 0.0 0.1 0.0 0.0 0.0 0.0 0.0 0.0 0.0 0.0 0.0 nan nan nan nan nan nan nan nan nan nan nan nan nan nan nan nan nan nan nan
0.0 0.0 0.0 0.0 0.0 0.0 0.0 0.0 0.0 0.0 0.0 0.0 0.0 0.0 0.0 0.0 0.0 0.0 0.0 nan nan nan nan nan nan nan nan nan nan nan nan nan nan nan nan nan nan nan
0.0 0.0 0.0 0.0 0.0 0.0 0.0 0.0 0.0 0.0 0.0 0.0 0.0 0.0 0.0 0.0 0.0 0.0 0.0 0.0 0.0 nan nan nan nan nan nan nan nan nan nan nan nan nan nan nan nan nan
0.0 0.0 0.0 0.0 0.0 0.0 0.0 0.0 0.0 0.0 0.0 0.0 0.0 0.0 0.0 0.0 0.0 0.0 0.0 0.0 0.0 nan nan nan nan nan nan nan nan nan nan nan nan nan nan nan nan nan
0.0 0.0 0.0 0.0 0.0 0.0 0.0 0.0 0.0 0.0 0.0 0.0 0.0 0.0 0.0 0.0 0.0 0.0 0.0 0.0 0.0 nan nan nan nan nan nan nan nan nan nan nan nan nan nan nan nan nan
0.0 0.0 0.0 0.0 0.0 0.0 0.0 0.0 0.0 0.0 0.0 0.0 0.0 0.0 0.0 0.0 0.0 0.0 0.0 0.0 0.0 0.0 nan nan nan nan nan nan nan nan nan nan nan nan nan nan nan nan
0.0 0.0 0.0 nan nan nan 0.0 0.0 0.0 0.0 0.0 0.0 0.0 0.0 0.0 0.0 0.0 0.0 0.0 0.0 0.0 0.0 0.0 0.0 0.0 0.0 0.0 nan nan nan nan nan nan nan nan nan nan nan
0.0 0.0 0.0 0.0 0.0 nan nan nan nan 0.0 0.0 0.0 0.0 0.0 0.0 0.0 0.0 0.0 0.0 0.0 0.0 0.0 0.0 0.0 0.0 0.0 0.0 0.0 nan nan nan nan nan nan nan nan nan nan
0.0 0.0 0.0 0.0 nan 0.0 nan nan nan nan nan 0.0 0.0 0.0 0.0 0.0 0.0 0.0 0.0 0.0 0.0 0.0 0.0 0.0 0.0 0.0 0.0 0.0 nan nan nan nan nan nan nan nan nan nan
0.0 0.0 0.0 0.0 0.0 0.0 0.0 0.0 0.0 0.0 0.0 0.0 0.0 0.0 0.0 0.0 0.0 0.0 0.0 0.0 0.3 0.0 0.0 2.0 0.3 0.9 0.0 0.0 nan nan nan nan nan nan nan nan nan nan
0.0 0.0 0.0 0.0 nan nan 0.2 0.2 0.0 0.0 nan nan nan nan nan nan nan 0.8 2.2 2.5 5.3 0.0 0.0 0.0 0.8 1.7 1.8 1.6 1.5 nan nan nan nan nan nan nan nan nan
0.4 0.2 nan 0.0 nan nan 0.9 0.6 1.3 0.1 0.0 0.0 0.0 0.0 nan nan nan 0.0 0.2 2.5 2.0 2.2 0.0 0.0 0.0 0.9 2.3 1.6 1.7 1.4 1.5 nan nan nan nan nan nan 0.0
1.8 1.5 1.2 nan nan nan nan 1.5 0.9 0.0 0.3 0.6 0.0 0.0 0.0 0.0 0.0 0.0 0.0 0.3 2.0 1.2 0.0 0.0 0.5 0.5 1.4 1.8 1.8 2.0 1.7 1.8 1.6 0.0 nan nan nan 0.0
2.4 2.0 2.8 nan nan nan 0.3 nan nan 0.7 6.0 5.0 3.5 2.3 1.8 1.5 0.0 0.0 0.0 0.0 0.0 0.3 0.0 0.1 2.6 0.7 1.1 2.2 2.0 1.8 2.0 1.9 2.2 0.8 2.7 nan nan nan
5.2 4.0 nan nan nan 1.2 nan nan 0.5 5.2 6.5 6.9 4.1 2.2 1.3 0.2 0.0 0.7 0.3 0.0 0.0 0.4 0.1 0.2 1.6 0.4 1.4 2.0 2.1 2.7 2.9 1.9 3.8 2.0 2.3 2.7 1.8 2.0
1.1 4.0 0.7 2.5 0.8 1.6 2.2 2.8 3.2 3.4 3.5 4.7 3.0 1.6 1.5 2.4 2.6 1.6 2.6 2.5 2.7 2.3 0.9 0.6 0.4 0.5 3.0 1.5 1.1 2.5 2.0 2.4 2.0 1.9 3.5 2.3 2.1 2.5
5.2 11.0 6.6 4.9 4.5 3.4 3.9 3.7 3.4 3.2 4.3 5.6 5.0 3.5 2.7 2.2 2.4 2.3 2.4 2.5 4.6 3.0 2.3 2.1 0.9 1.4 1.8 1.2 5.2 1.7 2.0 1.9 1.9 2.6 3.1 2.4 1.9 1.8
5.7 8.4 14.6 15.7 9.3 4.6 6.8 5.9 5.4 3.9 3.7 4.3 6.3 4.0 3.8 4.2 3.2 3.9 3.6 3.7 3.9 3.0 2.5 1.8 2.3 3.3 2.9 4.3 2.2 1.7 1.4 1.8 1.8 2.4 2.8 4.0 2.1 1.9
8.6 8.3 15.4 17.8 10.7 4.2 4.8 4.7 6.5 6.5 3.1 4.9 5.9 7.1 7.3 5.4 6.3 5.2 6.0 5.1 5.2 3.1 2.3 3.5 3.4 3.4 5.3 11.2 3.0 nan 3.1 2.1 5.0 5.5 3.7 4.0 3.4 2.6
4.8 7.7 10.7 11.1 5.7 4.1 4.2 4.9 5.9 8.8 8.8 7.1 9.7 13.1 15.0 10.2 8.7 6.1 5.5 6.7 4.8 3.1 2.8 1.7 2.4 2.6 4.0 7.9 13.4 11.8 nan 8.5 7.3 7.1 4.7 4.2 3.9 nan
4.7 4.2 9.2 7.4 5.9 4.6 13.4 14.5 17.9 16.5 16.9 21.1 13.3 12.4 27.7 7.3 8.2 6.0 6.5 4.8 4.1 2.4 2.6 2.6 2.6 0.5 2.3 6.1 23.3 12.2 12.0 nan 6.3 5.7 4.3 5.0 3.6 2.3
8.1 4.9 5.5 5.9 8.5 7.5 16.1 24.5 22.4 22.4 16.2 11.9 21.7 31.8 29.6 12.8 10.5 9.0 11.8 10.8 4.3 5.2 3.0 2.3 1.7 1.2 2.3 3.1 4.4 15.9 6.7 7.6 nan nan nan nan 5.4 5.6
14.1 6.2 9.4 12.3 14.8 15.2 6.8 13.6 6.3 14.0 11.9 12.0 11.5 12.1 50.0 12.3 8.4 8.9 9.6 6.4 4.4 4.9 3.5 3.5 2.0 1.7 2.3 2.1 3.6 6.2 5.4 9.5 4.4 4.6 9.4 nan nan nan

GFSNE_prec_sndepth_006.txt.gz
Snowfall_Accumulation
0.0 0.0 0.0 0.0 0.0 0.0 0.0 0.0 0.5 1.0 0.1 0.0 0.0 0.0 0.0 0.0 0.0 0.0 0.0 nan nan nan nan nan nan nan nan nan nan nan nan nan nan nan nan nan nan nan
0.0 0.0 0.0 0.0 0.0 0.0 0.0 0.0 0.1 0.8 0.7 0.0 0.0 0.0 0.0 0.0 0.0 0.0 0.0 nan nan nan nan nan nan nan nan nan nan nan nan nan nan nan nan nan nan nan
0.0 0.0 0.0 0.0 0.0 0.0 0.0 0.0 0.0 0.0 0.3 0.0 0.0 0.0 0.0 0.0 0.0 0.0 0.0 0.0 0.0 nan nan nan nan nan nan nan nan nan nan nan nan nan nan nan nan nan
0.0 0.0 0.0 0.0 0.0 0.0 0.0 0.0 0.0 0.0 0.0 0.0 0.0 0.0 0.0 0.0 0.0 0.0 0.0 0.0 0.0 nan nan nan nan nan nan nan nan nan nan nan nan nan nan nan nan nan
0.0 0.0 0.0 0.0 0.0 0.0 0.0 0.0 0.0 0.0 0.0 0.0 0.0 0.0 0.0 0.0 0.0 0.0 0.0 0.0 0.0 nan nan nan nan nan nan nan nan nan nan nan nan nan nan nan nan nan
0.0 0.0 0.0 0.0 0.0 0.0 0.0 0.0 0.0 0.0 0.0 0.0 0.0 0.0 0.0 0.0 0.0 0.0 0.0 0.0 0.0 0.0 nan nan nan nan nan nan nan nan nan nan nan nan nan nan nan nan
0.0 0.0 0.0 nan nan nan 0.0 0.1 0.0 0.0 0.0 0.0 0.0 0.0 0.0 0.0 0.0 0.0 0.0 0.0 0.0 0.0 0.0 0.0 0.0 0.0 0.0 nan nan nan nan nan nan nan nan nan nan nan
0.0 0.0 0.0 0.0 0.0 nan nan nan nan 0.1 0.1 0.1 0.0 0.0 0.0 0.0 0.0 0.0 0.0 0.0 0.0 0.0 0.0 0.0 0.0 0.0 0.0 0.0 nan nan nan nan nan nan nan nan nan nan
0.0 0.0 0.0 0.0 nan 0.0 nan nan nan nan nan 0.0 0.0 0.0 0.0 0.0 0.0 0.0 0.0 0.0 0.0 0.0 0.0 0.0 0.0 0.0 0.0 0.0 nan nan nan nan nan nan nan nan nan nan
0.0 0.0 0.0 0.0 0.0 0.0 0.0 0.0 0.0 0.0 0.0 0.0 0.0 0.0 0.0 0.0 0.0 0.0 0.0 0.0 0.3 0.0 0.0 2.0 0.3 0.9 0.0 0.0 nan nan nan nan nan nan nan nan nan nan
0.0 0.0 0.0 0.0 nan nan 0.4 0.2 0.0 0.0 nan nan nan nan nan nan nan 0.9 2.3 2.5 5.3 0.0 0.0 0.0 0.8 1.7 1.8 1.6 1.5 nan nan nan nan nan nan nan nan nan
0.3 0.2 nan 0.0 nan nan 1.1 0.7 1.3 0.1 0.0 0.0 0.0 0.0 nan nan nan 0.0 0.2 2.6 2.2 2.2 0.0 0.0 0.0 0.9 2.3 1.6 1.7 1.4 1.5 nan nan nan nan nan nan 0.0
1.8 1.5 1.2 nan nan nan nan 1.6 1.0 0.1 0.3 0.7 0.0 0.0 0.0 0.0 0.0 0.0 0.0 0.3 2.0 1.3 0.0 0.0 0.5 0.5 1.4 1.8 1.8 2.0 1.7 1.8 1.6 0.0 nan nan nan 0.0
2.4 2.0 2.8 nan nan nan 0.5 nan nan 0.7 6.1 5.1 3.6 2.3 1.9 1.5 0.0 0.0 0.1 0.0 0.0 0.3 0.0 0.1 2.8 0.7 1.1 2.2 2.0 1.8 2.0 2.0 2.2 0.8 2.7 nan nan nan
5.2 4.1 nan nan nan 1.3 nan nan 0.6 5.3 6.5 7.0 4.2 2.3 1.4 0.2 0.0 0.7 0.3 0.0 0.0 0.4 0.1 0.2 2.0 0.5 1.5 2.1 2.1 2.7 2.9 1.9 3.8 2.0 2.3 2.7 1.8 2.0
1.1 4.0 0.7 2.5 0.8 1.7 2.2 2.9 3.3 3.5 3.6 4.8 3.1 1.7 1.6 2.6 2.8 1.7 2.7 2.6 2.8 2.3 0.9 0.6 0.4 0.5 3.2 1.5 1.2 2.5 2.0 2.4 2.0 1.9 3.5 2.3 2.1 2.4
5.2 11.0 6.6 4.9 4.5 3.4 3.9 3.7 3.5 3.3 4.5 5.8 5.1 3.7 2.8 2.3 2.5 2.5 2.6 2.6 4.7 3.1 2.3 2.1 0.9 1.4 1.8 1.2 5.3 1.7 2.0 1.9 1.9 2.7 3.1 2.5 1.9 1.8
5.7 8.4 14.6 15.7 9.2 4.6 6.8 5.9 5.4 4.0 3.8 4.4 6.4 4.1 4.0 4.5 3.4 4.0 3.6 3.7 4.0 3.1 2.5 1.8 2.3 3.3 3.1 4.4 2.3 1.7 1.4 1.8 1.9 2.4 2.8 4.1 2.1 1.9
8.5 8.3 15.4 17.7 10.7 4.2 4.8 4.7 6.6 6.6 3.3 5.0 6.1 7.3 7.4 5.5 6.4 5.2 6.0 5.1 5.2 3.1 2.4 3.6 3.6 3.6 5.4 11.2 3.0 nan 3.3 2.1 5.0 5.6 3.7 4.0 3.4 2.6
4.8 7.7 10.7 11.1 5.7 4.1 4.2 4.9 5.9 8.7 8.8 7.2 9.7 13.2 15.0 10.3 8.7 6.1 5.5 6.7 4.9 3.1 2.8 1.7 2.4 2.6 4.0 7.9 13.4 11.8 nan 8.4 7.3 7.1 4.8 4.3 3.9 nan
4.7 4.2 9.2 7.4 5.9 4.6 13.3 14.5 17.9 16.5 16.8 21.0 13.3 12.5 27.6 7.4 8.2 6.0 6.6 4.8 4.1 2.4 2.6 2.6 2.6 0.5 2.3 6.2 23.3 12.2 11.9 nan 6.3 5.7 4.4 5.0 3.6 2.4
8.1 4.9 5.5 5.9 8.5 7.5 16.1 24.3 22.3 22.3 16.2 11.9 21.6 31.5 29.4 12.8 10.6 9.1 11.8 10.8 4.4 5.3 3.0 2.3 1.7 1.2 2.3 3.1 4.4 15.9 6.7 7.6 nan nan nan nan 5.4 5.6
14.1 6.2 9.4 12.3 14.7 15.1 6.8 13.6 6.3 13.9 11.9 12.0 11.5 12.1 49.4 12.3 8.4 8.9 9.6 6.4 4.4 4.9 3.5 3.5 2.0 1.7 2.4 2.1 3.6 6.3 5.4 9.5 4.4 4.6 9.4 nan nan nan

GFSNE_prec_sndepth_009.txt.gz
Snowfall_Accumulation
0.0 0.0 0.0 0.0 0.0 0.0 0.0 0.0 0.7 1.7 0.1 0.0 0.0 0.0 0.0 0.0 0.0 0.0 0.0 nan nan nan nan nan nan nan nan nan nan nan nan nan nan nan nan nan nan nan
0.0 0.0 0.0 0.0 0.0 0.0 0.0 0.0 0.1 0.8 1.1 0.0 0.0 0.0 0.0 0.0 0.0 0.0 0.0 nan nan nan nan nan nan nan nan nan nan nan nan nan nan nan nan nan nan nan
0.0 0.0 0.0 0.0 0.0 0.0 0.0 0.0 0.0 0.0 0.4 0.0 0.0 0.0 0.0 0.0 0.0 0.0 0.0 0.0 0.0 nan nan nan nan nan nan nan nan nan nan nan nan nan nan nan nan nan
0.0 0.0 0.0 0.0 0.0 0.0 0.0 0.0 0.0 0.0 0.0 0.0 0.0 0.0 0.0 0.0 0.0 0.0 0.0 0.0 0.0 nan nan nan nan nan nan nan nan nan nan nan nan nan nan nan nan nan
0.0 0.0 0.0 0.0 0.0 0.0 0.0 0.0 0.0 0.0 0.0 0.0 0.0 0.0 0.0 0.0 0.0 0.0 0.0 0.0 0.0 nan nan nan nan nan nan nan nan nan nan nan nan nan nan nan nan nan
0.0 0.0 0.0 0.0 0.0 0.0 0.0 0.0 0.2 0.1 0.0 0.0 0.0 0.0 0.0 0.0 0.0 0.0 0.0 0.0 0.0 0.0 nan nan nan nan nan nan nan nan nan nan nan nan nan nan nan nan
0.0 0.0 0.0 nan nan nan 0.0 0.2 0.1 0.1 0.1 0.2 0.0 0.0 0.0 0.0 0.0 0.0 0.0 0.0 0.0 0.0 0.0 0.0 0.0 0.0 0.0 nan nan nan nan nan nan nan nan nan nan nan
0.0 0.0 0.0 0.0 0.0 nan nan nan nan 0.3 0.1 0.1 0.1 0.1 0.1 0.0 0.0 0.0 0.0 0.0 0.0 0.0 0.0 0.0 0.0 0.0 0.0 0.0 nan nan nan nan nan nan nan nan nan nan
0.0 0.0 0.0 0.0 nan 0.0 nan nan nan nan nan 0.1 0.0 0.0 0.0 0.0 0.0 0.0 0.0 0.0 0.0 0.0 0.0 0.0 0.0 0.0 0.0 0.0 nan nan nan nan nan nan nan nan nan nan
0.0 0.0 0.0 0.0 0.0 0.0 0.2 0.2 0.0 0.0 0.0 0.0 0.0 0.0 0.0 0.0 0.0 0.0 0.0 0.0 0.3 0.0 0.0 2.0 0.3 0.9 0.0 0.0 nan nan nan nan nan nan nan nan nan nan
0.0 0.0 0.0 0.0 nan nan 0.5 0.2 0.0 0.0 nan nan nan nan nan nan nan 1.0 2.3 2.6 5.3 0.0 0.0 0.0 0.8 1.7 1.9 1.6 1.5 nan nan nan nan nan nan nan nan nan
0.3 0.2 nan 0.1 nan nan 1.3 0.8 1.4 0.1 0.0 0.0 0.0 0.0 nan nan nan 0.0 0.2 2.9 2.4 2.2 0.0 0.0 0.0 0.9 2.3 1.6 1.7 1.4 1.5 nan nan nan nan nan nan 0.0
1.8 1.5 1.2 nan nan nan nan 1.8 1.3 0.3 0.3 0.7 0.0 0.0 0.0 0.0 0.0 0.0 0.0 0.3 2.0 1.3 0.0 0.0 0.5 0.5 1.4 1.8 1.9 2.0 1.7 1.8 1.6 0.0 nan nan nan 0.0
2.4 2.0 2.9 nan nan nan 0.6 nan nan 0.7 6.1 5.2 3.6 2.3 1.9 1.5 0.0 0.0 0.1 0.0 0.0 0.3 0.0 0.1 2.8 0.7 1.1 2.2 2.0 1.8 2.0 2.0 2.2 0.8 2.7 nan nan nan
5.2 4.2 nan nan nan 1.3 nan nan 0.6 5.4 6.6 7.0 4.3 2.4 1.5 0.3 0.1 0.8 0.3 0.0 0.0 0.4 0.1 0.3 2.2 0.5 1.5 2.1 2.1 2.7 2.9 1.9 3.8 2.0 2.3 2.7 1.8 2.0
1.1 4.0 0.7 2.5 0.8 1.7 2.2 3.0 3.4 3.6 3.9 5.0 3.2 1.8 1.7 2.7 3.0 1.9 2.8 2.7 2.9 2.3 0.9 0.7 0.5 0.5 3.3 1.6 1.2 2.5 2.0 2.4 2.0 1.9 3.5 2.3 2.1 2.4
5.2 11.0 6.6 4.9 4.5 3.4 3.9 3.7 3.5 3.4 4.6 6.0 5.3 3.8 2.9 2.5 2.8 2.7 2.8 2.8 4.7 3.2 2.4 2.1 0.9 1.4 1.9 1.2 5.3 1.7 2.0 1.9 1.9 2.7 3.1 2.5 1.9 1.8
5.7 8.4 14.6 15.6 9.2 4.6 6.8 5.9 5.4 4.0 3.9 4.6 6.5 4.3 4.2 4.7 3.6 4.1 3.8 3.9 4.1 3.1 2.6 1.8 2.3 3.5 3.2 4.5 2.4 1.7 1.4 1.9 1.9 2.4 2.8 4.1 2.1 1.9
8.5 8.3 15.4 17.7 10.7 4.2 4.8 4.7 6.6 6.7 3.3 5.1 6.2 7.4 7.6 5.7 6.5 5.3 6.0 5.2 5.2 3.2 2.4 3.6 3.6 3.6 5.4 11.2 3.0 nan 3.4 2.3 5.0 5.6 3.7 4.0 3.4 2.6
4.8 7.7 10.7 11.1 5.7 4.1 4.2 4.9 5.9 8.7 8.8 7.2 9.8 13.2 15.1 10.3 8.8 6.2 5.6 6.8 4.9 3.1 2.8 1.7 2.4 2.6 4.0 7.9 13.4 11.8 nan 8.4 7.3 7.1 4.8 4.3 3.9 nan
4.7 4.2 9.2 7.4 5.9 4.6 13.3 14.4 17.8 16.4 16.8 21.0 13.3 12.4 27.4 7.4 8.2 6.1 6.7 4.8 4.1 2.4 2.6 2.6 2.6 0.5 2.3 6.2 23.2 12.1 11.9 nan 6.3 5.7 4.4 5.0 3.6 2.4
8.1 4.9 5.5 5.9 8.5 7.5 16.1 24.2 22.2 22.2 16.1 11.8 21.5 31.3 29.2 12.9 10.6 9.1 11.8 10.8 4.4 5.3 3.0 2.3 1.7 1.2 2.3 3.1 4.4 15.9 6.7 7.6 nan nan nan nan 5.5 5.6
14.1 6.2 9.4 12.3 14.7 15.1 6.8 13.5 6.3 13.9 11.9 12.0 11.5 12.1 48.9 12.3 8.4 8.9 9.6 6.4 4.4 4.9 3.5 3.5 2.0 1.7 2.4 2.1 3.6 6.3 5.4 9.5 4.4 4.6 9.4 nan nan nan

GFSNE_prec_sndepth_012.txt.gz
Snowfall_Accumulation
0.0 0.0 0.0 0.0 0.0 0.0 0.0 0.0 0.7 1.7 0.1 0.0 0.0 0.0 0.0 0.0 0.0 0.0 0.0 nan nan nan nan nan nan nan nan nan nan nan nan nan nan nan nan nan nan nan
0.0 0.0 0.0 0.0 0.0 0.0 0.0 0.0 0.1 0.8 1.1 0.0 0.0 0.0 0.0 0.0 0.0 0.0 0.0 nan nan nan nan nan nan nan nan nan nan nan nan nan nan nan nan nan nan nan
0.0 0.0 0.0 0.0 0.0 0.0 0.0 0.0 0.0 0.0 0.4 0.0 0.0 0.0 0.0 0.0 0.0 0.0 0.0 0.0 0.0 nan nan nan nan nan nan nan nan nan nan nan nan nan nan nan nan nan
0.0 0.0 0.0 0.0 0.0 0.0 0.0 0.0 0.0 0.0 0.0 0.0 0.0 0.0 0.0 0.0 0.0 0.0 0.0 0.0 0.0 nan nan nan nan nan nan nan nan nan nan nan nan nan nan nan nan nan
0.0 0.0 0.0 0.0 0.0 0.0 0.0 0.0 0.0 0.0 0.1 0.2 0.0 0.0 0.0 0.0 0.0 0.0 0.0 0.0 0.0 nan nan nan nan nan nan nan nan nan nan nan nan nan nan nan nan nan
0.0 0.0 0.0 0.0 0.0 0.0 0.0 0.1 0.2 0.4 0.1 0.1 0.1 0.0 0.0 0.0 0.0 0.0 0.0 0.0 0.0 0.0 nan nan nan nan nan nan nan nan nan nan nan nan nan nan nan nan
0.0 0.0 0.0 nan nan nan 0.0 0.2 0.1 0.2 0.2 0.2 0.2 0.2 0.2 0.1 0.0 0.0 0.0 0.0 0.0 0.0 0.0 0.0 0.0 0.0 0.0 nan nan nan nan nan nan nan nan nan nan nan
0.0 0.0 0.0 0.0 0.0 nan nan nan nan 0.3 0.4 0.3 0.1 0.2 0.2 0.2 0.2 0.1 0.0 0.0 0.0 0.0 0.0 0.0 0.0 0.0 0.1 0.0 nan nan nan nan nan nan nan nan nan nan
0.0 0.0 0.0 0.0 nan 0.0 nan nan nan nan nan 0.6 0.3 0.1 0.2 0.0 0.0 0.0 0.0 0.0 0.0 0.0 0.0 0.0 0.0 0.0 0.0 0.0 nan nan nan nan nan nan nan nan nan nan
0.0 0.0 0.0 0.0 0.0 0.1 0.3 0.4 0.0 0.0 0.0 0.0 0.1 0.1 0.1 0.0 0.0 0.0 0.0 0.0 0.3 0.0 0.0 2.0 0.3 0.9 0.0 0.0 nan nan nan nan nan nan nan nan nan nan
0.0 0.0 0.1 0.1 nan nan 0.6 0.3 0.1 0.0 nan nan nan nan nan nan nan 1.2 2.3 2.7 5.3 0.0 0.0 0.0 0.8 1.7 1.8 1.6 1.5 nan nan nan nan nan nan nan nan nan
0.3 0.2 nan 0.1 nan nan 1.5 0.9 1.4 0.1 0.1 0.1 0.0 0.0 nan nan nan 0.0 0.2 3.0 2.8 2.3 0.0 0.0 0.0 0.9 2.3 1.6 1.7 1.4 1.5 nan nan nan nan nan nan 0.0
1.8 1.5 1.2 nan nan nan nan 1.8 1.8 0.4 0.4 0.7 0.1 0.0 0.0 0.0 0.0 0.0 0.0 0.3 2.0 1.3 0.0 0.0 0.5 0.5 1.4 1.8 1.9 2.0 1.7 1.8 1.6 0.0 nan nan nan 0.0
2.4 2.0 2.9 nan nan nan 0.6 nan nan 0.8 6.1 5.2 3.6 2.3 1.9 1.5 0.0 0.0 0.1 0.0 0.0 0.3 0.0 0.1 2.8 0.7 1.1 2.2 2.0 1.8 2.0 2.0 2.2 0.8 2.6 nan nan nan
5.2 4.2 nan nan nan 1.3 nan nan 0.6 5.4 6.6 7.0 4.3 2.4 1.6 0.5 0.2 0.9 0.3 0.0 0.0 0.4 0.1 0.3 2.2 0.5 1.5 2.2 2.1 2.7 2.9 1.9 3.8 2.0 2.3 2.7 1.8 1.9
1.1 4.0 0.7 2.5 0.8 1.7 2.2 2.9 3.4 3.8 4.1 5.2 3.3 1.9 1.8 2.9 3.2 2.1 3.0 2.8 3.1 2.4 0.9 0.7 0.5 0.6 3.4 1.6 1.2 2.5 2.0 2.4 2.0 1.9 3.5 2.2 2.1 2.3
5.2 11.0 6.6 4.8 4.5 3.4 3.9 3.7 3.5 3.3 4.6 6.0 5.3 3.9 3.1 2.7 3.1 3.1 3.2 3.1 4.9 3.3 2.5 2.2 1.0 1.5 1.9 1.2 5.5 1.7 2.0 1.9 1.9 2.7 3.1 2.5 1.9 1.8
5.7 8.4 14.5 15.6 9.2 4.6 6.8 5.9 5.4 4.0 3.9 4.6 6.6 4.4 4.3 4.8 3.8 4.2 3.9 4.2 4.4 3.3 2.7 1.8 2.4 3.7 3.5 4.6 2.5 1.8 1.4 1.9 1.9 2.5 2.8 4.2 2.1 1.9
8.5 8.3 15.3 17.6 10.7 4.2 4.8 4.7 6.6 6.7 3.3 5.1 6.3 7.5 7.6 5.7 6.5 5.3 6.1 5.3 5.3 3.2 2.4 3.6 3.7 3.7 5.6 11.2 3.0 nan 3.4 2.3 5.1 5.6 3.7 4.0 3.4 2.6
4.8 7.7 10.7 11.1 5.7 4.1 4.2 4.9 5.9 8.7 8.8 7.2 9.8 13.3 15.1 10.4 8.8 6.2 5.6 6.8 4.9 3.1 2.8 1.7 2.4 2.7 4.1 8.0 13.4 11.8 nan 8.4 7.2 7.1 4.8 4.4 3.9 nan
4.7 4.2 9.2 7.4 5.9 4.6 13.3 14.4 17.8 16.4 16.7 20.9 13.3 12.4 27.3 7.5 8.2 6.1 6.7 4.8 4.1 2.4 2.6 2.6 2.6 0.5 2.3 6.2 23.2 12.1 11.9 nan 6.3 5.7 4.4 5.0 3.6 2.4
8.1 4.9 5.5 5.9 8.5 7.5 16.0 24.2 22.1 22.1 16.1 11.8 21.4 31.1 29.0 12.8 10.6 9.1 11.8 10.8 4.4 5.2 3.0 2.3 1.7 1.2 2.4 3.1 4.4 15.9 6.7 7.7 nan nan nan nan 5.4 5.6
14.1 6.2 9.4 12.3 14.7 15.1 6.8 13.5 6.3 13.8 11.9 11.9 11.4 12.0 48.4 12.3 8.4 8.9 9.6 6.3 4.4 4.9 3.5 3.4 2.0 1.7 2.4 2.1 3.6 6.3 5.6 9.5 4.4 4.6 9.3 nan nan nan

GFSNE_prec_sndepth_015.txt.gz
Snowfall_Accumulation
0.0 0.0 0.0 0.0 0.0 0.0 0.0 0.0 0.7 1.6 0.1 0.0 0.0 0.0 0.0 0.0 0.0 0.0 0.0 nan nan nan nan nan nan nan nan nan nan nan nan nan nan nan nan nan nan nan
0.0 0.0 0.0 0.0 0.0 0.0 0.0 0.0 0.1 0.7 1.0 0.0 0.0 0.0 0.0 0.0 0.0 0.0 0.0 nan nan nan nan nan nan nan nan nan nan nan nan nan nan nan nan nan nan nan
0.0 0.0 0.0 0.0 0.0 0.0 0.0 0.0 0.0 0.0 0.4 0.0 0.0 0.0 0.0 0.0 0.0 0.0 0.0 0.0 0.0 nan nan nan nan nan nan nan nan nan nan nan nan nan nan nan nan nan
0.0 0.0 0.0 0.0 0.0 0.0 0.0 0.0 0.0 0.0 0.0 0.0 0.0 0.0 0.0 0.0 0.0 0.0 0.0 0.0 0.0 nan nan nan nan nan nan nan nan nan nan nan nan nan nan nan nan nan
0.0 0.0 0.0 0.0 0.0 0.0 0.0 0.0 0.0 0.0 0.1 0.5 0.0 0.0 0.0 0.0 0.0 0.0 0.0 0.0 0.0 nan nan nan nan nan nan nan nan nan nan nan nan nan nan nan nan nan
0.0 0.0 0.0 0.0 0.0 0.0 0.0 0.0 0.2 0.4 0.1 0.1 0.1 0.0 0.0 0.0 0.0 0.0 0.0 0.0 0.0 0.0 nan nan nan nan nan nan nan nan nan nan nan nan nan nan nan nan
0.0 0.0 0.0 nan nan nan 0.0 0.2 0.1 0.2 0.2 0.3 0.2 0.2 0.2 0.2 0.1 0.0 0.0 0.0 0.0 0.0 0.0 0.0 0.0 0.0 0.0 nan nan nan nan nan nan nan nan nan nan nan
0.0 0.0 0.0 0.0 0.0 nan nan nan nan 0.4 0.5 0.5 0.1 0.2 0.1 0.2 0.1 0.3 0.3 0.0 0.0 0.0 0.0 0.0 0.0 0.0 0.0 0.0 nan nan nan nan nan nan nan nan nan nan
0.0 0.0 0.0 0.0 nan 0.0 nan nan nan nan nan 0.8 0.4 0.1 0.2 0.0 0.0 0.0 0.0 0.0 0.0 0.0 0.0 0.0 0.0 0.0 0.0 0.0 nan nan nan nan nan nan nan nan nan nan
0.0 0.0 0.0 0.0 0.0 0.0 0.3 0.4 0.0 0.0 0.0 0.0 0.1 0.1 0.0 0.0 0.0 0.0 0.0 0.0 0.3 0.0 0.0 1.8 0.3 0.8 0.0 0.0 nan nan nan nan nan nan nan nan nan nan
0.0 0.0 0.0 0.0 nan nan 0.6 0.3 0.0 0.0 nan nan nan nan nan nan nan 1.5 2.5 2.7 5.2 0.0 0.0 0.0 0.6 1.4 1.5 1.2 1.2 nan nan nan nan nan nan nan nan nan
0.3 0.2 nan 0.1 nan nan 1.5 0.9 1.4 0.2 0.1 0.1 0.0 0.0 nan nan nan 0.0 0.2 3.3 3.0 2.1 0.0 0.0 0.0 0.8 1.9 1.3 1.4 1.2 1.2 nan nan nan nan nan nan 0.0
1.7 1.4 1.1 nan nan nan nan 1.8 2.1 0.4 0.4 0.7 0.1 0.0 0.0 0.0 0.0 0.0 0.0 0.3 1.9 1.2 0.0 0.0 0.4 0.4 1.2 1.5 1.5 1.6 1.4 1.4 1.2 0.0 nan nan nan 0.0
2.3 1.9 2.8 nan nan nan 0.5 nan nan 0.7 6.1 5.1 3.6 2.3 1.9 1.4 0.0 0.0 0.0 0.0 0.0 0.2 0.0 0.1 2.4 0.6 1.0 2.0 1.7 1.4 1.6 1.5 1.7 0.6 2.0 nan nan nan
5.0 4.0 nan nan nan 1.3 nan nan 0.6 5.4 6.6 7.0 4.3 2.4 1.6 0.5 0.2 0.8 0.3 0.0 0.0 0.3 0.1 0.2 1.8 0.3 1.3 2.0 1.8 2.3 2.3 1.5 3.0 1.6 1.8 2.1 1.4 1.5
1.1 3.9 0.7 2.4 0.8 1.7 2.1 2.9 3.4 3.7 4.2 5.2 3.3 2.0 1.9 3.0 3.3 2.1 2.9 2.7 2.9 2.2 0.6 0.5 0.4 0.6 3.1 1.5 1.1 2.4 1.8 2.1 1.6 1.5 2.7 1.8 1.7 2.0
5.1 10.9 6.4 4.8 4.4 3.3 3.8 3.7 3.4 3.3 4.5 6.0 5.3 3.9 3.2 2.8 3.2 3.2 3.2 3.0 4.9 3.3 2.7 2.1 0.9 1.3 1.7 1.0 5.2 1.5 1.8 1.7 1.6 2.3 2.7 2.0 1.5 1.4
5.6 8.3 14.4 15.4 9.1 4.5 6.7 5.8 5.3 4.0 3.8 4.5 6.6 4.5 4.3 4.8 3.7 4.1 3.8 4.2 4.5 3.5 2.8 1.9 2.3 3.4 3.3 4.0 2.2 1.6 1.2 1.7 1.7 2.1 2.4 3.6 1.7 1.5
8.4 8.2 15.2 17.5 10.6 4.2 4.8 4.7 6.5 6.6 3.3 5.1 6.3 7.5 7.6 5.7 6.4 5.2 6.0 5.2 5.1 3.1 2.3 3.3 3.4 3.4 5.1 10.6 2.7 nan 3.2 2.1 4.4 5.0 3.2 3.6 3.0 2.2
4.6 7.5 10.6 10.9 5.6 4.0 4.2 4.8 5.8 8.6 8.7 7.2 9.7 13.2 15.0 10.3 8.7 6.2 5.5 6.7 4.6 2.9 2.6 1.5 2.2 2.5 3.9 7.7 12.2 10.5 nan 7.3 6.4 6.5 4.7 4.0 3.3 nan
4.5 4.0 9.0 7.3 5.8 4.5 13.2 14.3 17.6 16.2 16.6 20.7 13.2 12.3 27.0 7.4 8.2 6.1 6.6 4.7 4.0 2.3 2.5 2.4 2.3 0.5 2.1 5.5 21.3 10.8 10.4 nan 5.3 4.8 3.7 4.5 3.2 2.1
7.9 4.8 5.3 5.7 8.4 7.4 15.9 23.9 21.9 21.9 15.9 11.6 21.2 30.8 28.7 12.7 10.5 9.0 11.7 10.7 4.3 5.2 2.8 2.2 1.5 1.1 2.2 2.8 3.9 14.5 5.9 6.8 nan nan nan nan 4.5 4.8
13.8 6.0 9.2 12.2 14.5 14.9 6.7 13.4 6.2 13.7 11.8 11.8 11.3 11.9 47.7 12.2 8.3 8.8 9.5 6.3 4.3 4.8 3.4 3.4 1.9 1.5 2.2 2.0 3.3 5.8 5.2 8.8 3.9 3.9 7.9 nan nan nan

GFSNE_prec_sndepth_021.txt.gz
Snowfall_Accumulation
0.0 0.0 0.0 0.0 0.0 0.0 0.0 0.0 0.4 1.0 0.0 0.0 0.0 0.0 0.0 0.0 0.0 0.0 0.0 nan nan nan nan nan nan nan nan nan nan nan nan nan nan nan nan nan nan nan
0.0 0.0 0.0 0.0 0.0 0.0 0.0 0.0 0.0 0.4 0.6 0.0 0.0 0.0 0.0 0.0 0.0 0.0 0.0 nan nan nan nan nan nan nan nan nan nan nan nan nan nan nan nan nan nan nan
0.0 0.0 0.0 0.0 0.0 0.0 0.0 0.0 0.0 0.0 0.2 0.0 0.0 0.0 0.0 0.0 0.0 0.0 0.0 0.0 0.0 nan nan nan nan nan nan nan nan nan nan nan nan nan nan nan nan nan
0.0 0.0 0.0 0.0 0.0 0.0 0.0 0.0 0.0 0.0 0.0 0.0 0.0 0.0 0.0 0.0 0.0 0.0 0.0 0.0 0.0 nan nan nan nan nan nan nan nan nan nan nan nan nan nan nan nan nan
0.0 0.0 0.0 0.0 0.0 0.0 0.0 0.0 0.0 0.0 0.0 0.3 0.0 0.0 0.0 0.0 0.0 0.0 0.0 0.0 0.0 nan nan nan nan nan nan nan nan nan nan nan nan nan nan nan nan nan
0.0 0.0 0.0 0.0 0.0 0.0 0.0 0.0 0.0 0.2 0.0 0.0 0.0 0.0 0.0 0.0 0.0 0.0 0.0 0.0 0.0 0.0 nan nan nan nan nan nan nan nan nan nan nan nan nan nan nan nan
0.0 0.0 0.0 nan nan nan 0.0 0.0 0.0 0.1 0.1 0.1 0.1 0.1 0.1 0.1 0.0 0.0 0.0 0.0 0.0 0.0 0.0 0.0 0.0 0.0 0.0 nan nan nan nan nan nan nan nan nan nan nan
0.0 0.0 0.0 0.0 0.0 nan nan nan nan 0.1 0.2 0.4 0.1 0.1 0.0 0.1 0.0 0.2 0.2 0.0 0.0 0.0 0.0 0.0 0.0 0.0 0.0 0.0 nan nan nan nan nan nan nan nan nan nan
0.0 0.0 0.0 0.0 nan 0.0 nan nan nan nan nan 0.2 0.2 0.0 0.1 0.0 0.0 0.0 0.0 0.0 0.0 0.0 0.1 0.0 0.0 0.0 0.0 0.0 nan nan nan nan nan nan nan nan nan nan
0.0 0.0 0.0 0.0 0.0 0.0 0.1 0.1 0.0 0.0 0.0 0.0 0.0 0.0 0.0 0.0 0.0 0.0 0.0 0.0 0.2 0.0 0.0 1.2 0.1 0.4 0.0 0.0 nan nan nan nan nan nan nan nan nan nan
0.0 0.0 0.0 0.0 nan nan 0.2 0.1 0.0 0.0 nan nan nan nan nan nan nan 1.0 1.7 1.9 3.8 0.0 0.0 0.0 0.4 0.8 0.8 0.7 0.6 nan nan nan nan nan nan nan nan nan
0.1 0.0 nan 0.0 nan nan 0.7 0.4 0.8 0.1 0.0 0.0 0.0 0.0 nan nan nan 0.0 0.1 2.4 2.3 1.6 0.0 0.0 0.0 0.5 1.2 0.7 0.7 0.7 0.7 nan nan nan nan nan nan 0.0
1.0 0.8 0.6 nan nan nan nan 0.8 1.4 0.1 0.1 0.4 0.0 0.0 0.0 0.0 0.0 0.0 0.0 0.2 1.3 0.8 0.0 0.0 0.2 0.3 0.7 1.2 0.9 0.9 0.8 0.8 0.7 0.0 nan nan nan 0.0
1.0 1.1 1.5 nan nan nan 0.4 nan nan 0.5 4.7 4.6 3.0 1.8 1.4 1.0 0.0 0.0 0.0 0.0 0.0 0.1 0.0 0.0 1.5 0.5 1.0 1.3 1.1 0.8 0.9 0.9 0.9 0.3 1.1 nan nan nan
2.9 2.3 nan nan nan 1.2 nan nan 0.6 3.6 5.7 6.8 4.2 2.3 1.3 0.4 0.1 0.7 0.3 0.0 0.0 0.1 0.0 0.1 1.2 0.1 0.8 1.3 1.2 1.4 1.4 0.9 1.6 0.9 1.0 1.1 0.8 0.8
0.3 2.3 0.4 1.6 0.7 1.2 1.3 1.7 2.1 2.5 3.1 5.0 3.3 1.7 1.4 2.2 2.4 1.6 2.2 2.2 2.0 1.4 0.2 0.2 0.1 0.2 2.1 1.0 0.8 1.6 1.1 1.3 1.0 0.9 1.6 1.0 1.0 1.1
3.1 6.8 3.9 2.8 2.7 2.0 2.3 2.4 2.2 2.2 3.2 5.3 5.2 3.8 2.8 2.2 2.3 2.2 2.4 2.9 3.8 2.8 3.0 1.4 0.3 0.4 0.9 0.4 3.8 1.0 1.2 1.2 1.1 1.6 1.6 1.2 0.9 0.8
3.4 5.5 10.5 11.8 6.8 3.0 4.5 3.8 3.5 2.8 2.7 3.5 6.2 4.1 4.2 4.6 3.2 2.9 2.6 3.0 3.4 2.5 2.1 1.5 2.1 2.6 2.4 2.4 1.4 1.4 0.8 1.1 1.1 1.3 1.6 2.5 1.1 0.9
5.8 5.4 11.5 13.8 7.4 2.6 2.9 2.9 4.4 4.4 2.7 3.7 5.3 7.2 7.4 5.5 5.8 4.3 4.7 3.9 3.8 2.2 1.6 2.2 2.4 3.9 5.2 8.4 1.8 nan 2.9 1.6 2.7 3.3 2.1 2.6 2.1 1.5
2.8 4.9 7.1 7.3 3.5 2.4 2.5 3.0 3.8 6.2 6.2 5.4 8.4 12.6 14.5 9.8 8.1 5.9 5.0 6.3 3.8 2.1 1.8 1.0 1.5 1.8 3.3 9.7 10.0 7.4 nan 5.0 4.2 4.3 3.2 2.6 2.1 nan
2.8 2.4 5.5 4.6 3.7 2.8 9.3 11.0 14.6 13.3 14.0 19.4 11.3 11.2 26.1 6.1 6.7 5.0 6.1 4.1 3.4 1.6 1.8 1.8 1.6 0.1 1.4 3.6 16.9 7.9 7.4 nan 2.9 2.9 2.2 3.2 2.4 1.6
5.0 3.0 3.2 3.4 5.3 4.9 11.6 20.1 18.0 17.8 13.2 9.3 20.3 29.4 26.0 11.8 10.1 7.9 10.1 9.2 3.1 3.8 2.0 1.5 1.0 0.8 1.5 1.9 3.3 10.5 4.2 4.9 nan nan nan nan 3.5 4.2
8.5 3.7 5.9 8.1 10.1 10.7 4.6 10.1 4.3 10.1 9.5 9.7 9.1 9.8 45.7 11.7 7.3 8.2 8.0 5.0 3.1 3.7 2.5 2.6 1.4 1.1 1.6 1.4 2.3 4.1 3.3 6.5 2.8 2.8 5.8 nan nan nan

GFSNE_prec_sndepth_024.txt.gz
Snowfall_Accumulation
0.0 0.0 0.0 0.0 0.0 0.0 0.0 0.0 0.3 0.9 0.0 0.0 0.0 0.0 0.0 0.0 0.0 0.0 0.0 nan nan nan nan nan nan nan nan nan nan nan nan nan nan nan nan nan nan nan
0.0 0.0 0.0 0.0 0.0 0.0 0.0 0.0 0.0 0.3 0.5 0.0 0.0 0.0 0.0 0.0 0.0 0.0 0.0 nan nan nan nan nan nan nan nan nan nan nan nan nan nan nan nan nan nan nan
0.0 0.0 0.0 0.0 0.0 0.0 0.0 0.0 0.0 0.0 0.1 0.0 0.0 0.0 0.0 0.0 0.0 0.0 0.0 0.0 0.0 nan nan nan nan nan nan nan nan nan nan nan nan nan nan nan nan nan
0.0 0.0 0.0 0.0 0.0 0.0 0.0 0.0 0.0 0.0 0.0 0.0 0.0 0.0 0.0 0.0 0.0 0.0 0.0 0.0 0.0 nan nan nan nan nan nan nan nan nan nan nan nan nan nan nan nan nan
0.0 0.0 0.0 0.0 0.0 0.0 0.0 0.0 0.0 0.0 0.0 0.3 0.0 0.0 0.0 0.0 0.0 0.0 0.0 0.0 0.0 nan nan nan nan nan nan nan nan nan nan nan nan nan nan nan nan nan
0.0 0.0 0.0 0.0 0.0 0.0 0.0 0.0 0.0 0.2 0.0 0.0 0.0 0.0 0.0 0.0 0.0 0.0 0.0 0.0 0.0 0.0 nan nan nan nan nan nan nan nan nan nan nan nan nan nan nan nan
0.0 0.0 0.0 nan nan nan 0.0 0.0 0.0 0.1 0.1 0.1 0.1 0.1 0.0 0.1 0.0 0.0 0.0 0.0 0.0 0.0 0.0 0.0 0.0 0.0 0.0 nan nan nan nan nan nan nan nan nan nan nan
0.0 0.0 0.0 0.0 0.0 nan nan nan nan 0.1 0.2 0.3 0.1 0.1 0.0 0.1 0.0 0.2 0.2 0.0 0.1 0.0 0.0 0.0 0.0 0.0 0.0 0.0 nan nan nan nan nan nan nan nan nan nan
0.0 0.0 0.0 0.0 nan 0.0 nan nan nan nan nan 0.2 0.2 0.1 0.3 0.0 0.0 0.0 0.0 0.0 0.0 0.0 0.1 0.0 0.0 0.0 0.0 0.0 nan nan nan nan nan nan nan nan nan nan
0.0 0.0 0.0 0.0 0.0 0.0 0.1 0.1 0.0 0.0 0.0 0.0 0.0 0.0 0.0 0.0 0.0 0.0 0.0 0.0 0.2 0.0 0.0 1.1 0.1 0.4 0.0 0.0 nan nan nan nan nan nan nan nan nan nan
0.0 0.0 0.0 0.0 nan nan 0.2 0.1 0.0 0.0 nan nan nan nan nan nan nan 0.9 1.7 1.9 3.7 0.0 0.0 0.0 0.3 0.8 0.8 0.6 0.6 nan nan nan nan nan nan nan nan nan
0.1 0.0 nan 0.0 nan nan 0.6 0.4 0.8 0.0 0.0 0.0 0.0 0.0 nan nan nan 0.1 0.1 2.4 2.3 1.6 0.0 0.3 0.0 0.5 1.1 0.6 0.7 0.6 0.7 nan nan nan nan nan nan 0.0
0.9 0.7 0.6 nan nan nan nan 0.7 1.3 0.1 0.1 0.4 0.0 0.0 0.0 0.0 0.0 0.0 0.1 0.4 1.6 0.8 0.0 0.0 0.2 0.2 0.7 1.1 1.0 0.8 0.8 0.8 0.7 0.0 nan nan nan 0.0
0.9 1.0 1.4 nan nan nan 0.4 nan nan 0.5 4.7 4.5 3.0 1.8 1.4 1.0 0.0 0.0 0.0 0.3 0.2 0.1 0.0 0.0 1.5 0.5 1.3 1.6 1.9 0.8 0.9 0.8 0.9 0.3 1.2 nan nan nan
2.7 2.1 nan nan nan 1.2 nan nan 0.6 3.5 5.7 6.7 4.2 2.3 1.3 0.4 0.1 0.7 0.2 0.1 0.0 0.1 0.0 0.1 1.1 0.1 0.8 1.3 1.2 1.3 1.4 0.8 1.6 0.8 0.9 1.2 0.8 0.8
0.3 2.0 0.4 1.5 0.7 1.2 1.3 1.6 2.0 2.4 3.1 4.9 3.2 1.7 1.4 2.1 2.3 1.6 2.1 2.1 2.1 1.5 0.2 0.2 0.1 0.2 2.0 1.0 0.7 1.5 1.1 1.3 1.0 0.9 1.5 0.9 0.9 1.0
2.9 6.4 3.6 2.6 2.5 1.9 2.2 2.3 2.1 2.1 3.1 5.2 5.1 3.8 2.8 2.2 2.3 2.1 2.3 2.8 4.2 3.9 4.4 1.5 0.2 0.3 0.9 0.3 3.7 1.0 1.2 1.2 1.0 1.5 1.5 1.2 0.9 0.8
3.2 5.3 10.2 11.3 6.6 2.9 4.3 3.7 3.4 2.7 2.6 3.5 6.1 4.1 4.2 4.5 3.2 2.9 2.6 3.0 3.4 2.5 2.0 1.9 3.4 2.6 2.3 2.3 1.4 1.4 0.8 1.1 1.1 1.2 1.5 2.4 1.1 0.9
5.8 5.2 11.0 13.2 7.1 2.4 2.8 2.8 4.3 4.3 2.6 3.7 5.3 7.1 7.3 5.4 5.8 4.3 4.7 3.9 3.8 2.2 1.6 2.1 2.4 5.7 7.3 9.6 1.8 nan 2.8 1.8 2.6 3.2 2.0 2.5 2.1 1.4
2.7 4.6 6.8 6.9 3.3 2.3 2.4 2.9 3.7 6.2 6.2 5.3 8.3 12.5 14.4 9.7 8.0 5.8 5.0 6.3 3.8 2.1 1.8 1.0 1.6 1.8 3.3 10.1 11.2 7.4 nan 5.2 4.0 4.2 3.1 2.5 2.1 nan
2.6 2.3 5.1 4.2 3.4 2.6 8.8 10.8 14.5 13.2 13.9 19.3 11.2 11.1 25.8 6.1 6.7 5.0 6.0 4.1 3.4 1.6 1.8 1.8 1.6 0.1 1.4 3.4 16.9 7.9 7.4 nan 2.9 3.0 3.5 3.2 2.4 1.6
4.6 2.7 2.9 3.1 4.9 4.5 11.1 19.9 17.8 17.7 13.2 9.2 20.1 29.1 25.8 11.7 10.1 7.9 10.1 9.2 3.1 3.8 2.0 1.5 0.9 0.8 1.5 1.9 3.7 10.8 4.2 4.8 nan nan nan nan 3.5 4.4
7.8 3.3 5.4 7.4 9.4 10.0 4.3 10.1 4.3 10.1 9.4 9.7 9.1 9.8 45.1 11.6 7.3 8.1 8.0 5.0 3.0 3.6 2.5 2.6 1.3 1.1 1.7 1.3 2.3 4.4 3.3 6.4 2.8 2.8 5.8 nan nan nan

GFSNE_prec_sndepth_027.txt.gz
Snowfall_Accumulation
0.0 0.0 0.0 0.0 0.0 0.0 0.0 0.0 0.3 0.9 0.0 0.0 0.0 0.0 0.0 0.0 0.0 0.0 0.0 nan nan nan nan nan nan nan nan nan nan nan nan nan nan nan nan nan nan nan
0.0 0.0 0.0 0.0 0.0 0.0 0.0 0.0 0.0 0.3 0.5 0.0 0.0 0.0 0.0 0.0 0.0 0.0 0.0 nan nan nan nan nan nan nan nan nan nan nan nan nan nan nan nan nan nan nan
0.0 0.0 0.0 0.0 0.0 0.0 0.0 0.0 0.0 0.0 0.1 0.0 0.0 0.0 0.0 0.0 0.0 0.0 0.0 0.0 0.0 nan nan nan nan nan nan nan nan nan nan nan nan nan nan nan nan nan
0.0 0.0 0.0 0.0 0.0 0.0 0.0 0.0 0.0 0.0 0.0 0.0 0.0 0.0 0.0 0.0 0.0 0.0 0.0 0.0 0.0 nan nan nan nan nan nan nan nan nan nan nan nan nan nan nan nan nan
0.0 0.0 0.0 0.0 0.0 0.0 0.0 0.0 0.0 0.0 0.0 0.3 0.0 0.0 0.0 0.0 0.0 0.0 0.0 0.0 0.0 nan nan nan nan nan nan nan nan nan nan nan nan nan nan nan nan nan
0.0 0.0 0.0 0.0 0.0 0.0 0.0 0.0 0.0 0.2 0.0 0.0 0.0 0.0 0.0 0.0 0.0 0.0 0.0 0.0 0.0 0.0 nan nan nan nan nan nan nan nan nan nan nan nan nan nan nan nan
0.0 0.0 0.0 nan nan nan 0.0 0.0 0.0 0.1 0.1 0.1 0.1 0.1 0.0 0.1 0.0 0.0 0.0 0.0 0.0 0.0 0.0 0.0 0.0 0.0 0.0 nan nan nan nan nan nan nan nan nan nan nan
0.0 0.0 0.0 0.0 0.0 nan nan nan nan 0.1 0.2 0.3 0.1 0.1 0.0 0.1 0.2 0.2 0.2 0.0 0.1 0.0 0.0 0.0 0.0 0.0 0.0 0.0 nan nan nan nan nan nan nan nan nan nan
0.0 0.0 0.0 0.0 nan 0.0 nan nan nan nan nan 0.2 0.2 0.1 0.3 0.0 0.0 0.0 0.0 0.0 0.0 0.0 0.1 0.0 0.0 0.0 0.0 0.0 nan nan nan nan nan nan nan nan nan nan
0.0 0.0 0.0 0.0 0.0 0.0 0.1 0.1 0.0 0.0 0.0 0.0 0.0 0.0 0.0 0.0 0.0 0.0 0.0 0.0 0.2 0.0 0.0 1.1 0.1 0.4 0.0 0.0 nan nan nan nan nan nan nan nan nan nan
0.0 0.0 0.0 0.0 nan nan 0.2 0.1 0.0 0.0 nan nan nan nan nan nan nan 0.9 1.7 2.2 3.7 0.0 0.0 0.0 0.3 0.8 0.8 0.6 0.6 nan nan nan nan nan nan nan nan nan
0.1 0.0 nan 0.0 nan nan 0.6 0.4 0.8 0.0 0.0 0.0 0.0 0.0 nan nan nan 0.1 0.2 2.7 2.4 1.7 0.0 0.3 0.0 0.6 1.2 0.6 0.7 0.6 0.7 nan nan nan nan nan nan 0.0
0.9 0.7 0.6 nan nan nan nan 0.7 1.3 0.1 0.1 0.4 0.0 0.0 0.0 0.0 0.0 0.0 0.1 0.6 2.3 1.3 0.0 0.1 0.2 0.2 0.7 1.1 1.0 1.3 0.9 0.8 0.6 0.0 nan nan nan 0.0
0.9 1.0 1.4 nan nan nan 0.4 nan nan 0.5 4.7 4.5 3.0 1.8 1.4 1.0 0.0 0.0 0.0 0.3 0.2 0.5 0.1 0.0 1.5 0.5 1.4 1.6 2.4 1.1 0.9 0.9 0.9 0.3 1.5 nan nan nan
2.7 2.1 nan nan nan 1.2 nan nan 0.6 3.5 5.7 6.7 4.2 2.3 1.3 0.4 0.1 0.7 0.2 0.1 0.0 0.1 0.0 0.1 1.1 0.1 0.8 1.3 1.2 1.3 1.5 0.9 1.9 0.8 1.2 1.8 1.0 1.3
0.3 2.0 0.4 1.5 0.7 1.2 1.3 1.6 2.0 2.4 3.1 4.9 3.2 1.7 1.4 2.1 2.3 1.5 2.1 2.1 2.1 1.5 0.3 0.2 0.1 0.2 2.0 1.0 0.7 1.5 1.1 1.3 1.0 0.9 1.5 1.4 1.3 1.7
3.0 6.4 3.6 2.6 2.5 1.9 2.2 2.3 2.1 2.1 3.1 5.2 5.1 3.8 2.8 2.2 2.3 2.1 2.3 2.8 4.2 3.9 4.6 1.7 0.6 0.3 0.9 0.3 3.7 1.0 1.2 1.2 1.0 1.4 1.6 1.3 1.3 1.2
3.2 5.3 10.2 11.3 6.6 2.9 4.3 3.7 3.4 2.7 2.6 3.5 6.1 4.1 4.2 4.5 3.2 2.9 2.6 3.0 3.4 2.5 2.0 1.9 3.5 2.7 2.3 2.3 1.4 1.4 0.8 1.1 1.1 1.2 1.5 2.4 1.2 1.0
5.8 5.2 11.0 13.2 7.1 2.4 2.8 2.8 4.3 4.3 2.6 3.7 5.3 7.1 7.3 5.4 5.8 4.3 4.7 3.9 3.8 2.2 1.6 2.1 2.4 5.7 7.4 10.0 1.9 nan 2.8 1.8 2.6 3.2 2.0 2.5 2.1 1.5
2.7 4.6 6.8 6.9 3.3 2.3 2.4 2.9 3.7 6.2 6.2 5.3 8.3 12.5 14.4 9.7 8.0 5.8 5.0 6.3 3.8 2.1 1.7 1.0 1.6 1.8 3.3 10.2 11.6 7.4 nan 5.3 4.1 4.2 3.1 2.5 2.1 nan
2.6 2.3 5.1 4.2 3.4 2.6 8.8 10.8 14.5 13.2 13.9 19.2 11.2 11.1 25.7 6.1 6.7 5.0 6.0 4.1 3.3 1.6 1.8 1.7 1.6 0.1 1.4 3.4 17.0 8.0 7.4 nan 3.0 3.0 3.7 3.2 2.4 1.6
4.5 2.7 2.9 3.1 4.9 4.5 11.1 19.8 17.8 17.6 13.2 9.2 20.0 28.9 25.7 11.7 10.1 7.9 10.1 9.2 3.1 3.8 2.0 1.5 0.9 0.8 1.7 2.3 4.0 11.0 4.2 4.8 nan nan nan nan 3.6 4.4
7.8 3.3 5.4 7.4 9.4 10.0 4.3 10.1 4.3 10.1 9.4 9.7 9.1 9.8 44.8 11.6 7.3 8.2 8.0 5.0 3.0 3.6 2.5 2.6 1.3 1.1 1.8 1.4 2.4 4.6 3.3 6.5 2.8 2.8 5.8 nan nan nan

GFSNE_prec_sndepth_030.txt.gz
Snowfall_Accumulation
0.0 0.0 0.0 0.0 0.0 0.0 0.0 0.0 0.7 1.0 0.0 0.0 0.0 0.0 0.0 0.0 0.0 0.0 0.0 nan nan nan nan nan nan nan nan nan nan nan nan nan nan nan nan nan nan nan
0.0 0.0 0.0 0.0 0.0 0.0 0.0 0.0 0.0 0.3 0.5 0.0 0.0 0.0 0.0 0.0 0.0 0.0 0.0 nan nan nan nan nan nan nan nan nan nan nan nan nan nan nan nan nan nan nan
0.0 0.0 0.0 0.0 0.0 0.0 0.0 0.0 0.0 0.0 0.1 0.0 0.0 0.0 0.0 0.0 0.0 0.0 0.0 0.0 0.0 nan nan nan nan nan nan nan nan nan nan nan nan nan nan nan nan nan
0.0 0.0 0.0 0.0 0.0 0.0 0.0 0.0 0.0 0.0 0.0 0.0 0.0 0.0 0.0 0.0 0.0 0.0 0.0 0.0 0.0 nan nan nan nan nan nan nan nan nan nan nan nan nan nan nan nan nan
0.0 0.0 0.0 0.0 0.0 0.0 0.0 0.0 0.0 0.0 0.0 0.2 0.0 0.0 0.0 0.0 0.0 0.0 0.0 0.0 0.0 nan nan nan nan nan nan nan nan nan nan nan nan nan nan nan nan nan
0.0 0.0 0.0 0.0 0.0 0.0 0.0 0.0 0.0 0.2 0.0 0.0 0.0 0.0 0.0 0.0 0.0 0.0 0.0 0.0 0.0 0.0 nan nan nan nan nan nan nan nan nan nan nan nan nan nan nan nan
0.0 0.0 0.0 nan nan nan 0.0 0.0 0.0 0.1 0.1 0.1 0.1 0.1 0.0 0.1 0.0 0.0 0.0 0.0 0.0 0.0 0.0 0.0 0.0 0.0 0.0 nan nan nan nan nan nan nan nan nan nan nan
0.0 0.0 0.0 0.0 0.0 nan nan nan nan 0.1 0.2 0.3 0.1 0.1 0.0 0.1 0.2 0.2 0.2 0.0 0.1 0.0 0.0 0.0 0.0 0.0 0.0 0.0 nan nan nan nan nan nan nan nan nan nan
0.0 0.0 0.0 0.0 nan 0.0 nan nan nan nan nan 0.2 0.1 0.1 0.3 0.0 0.0 0.0 0.0 0.0 0.0 0.0 0.1 0.0 0.0 0.0 0.0 0.0 nan nan nan nan nan nan nan nan nan nan
0.0 0.0 0.0 0.0 0.0 0.0 0.1 0.1 0.0 0.0 0.0 0.0 0.0 0.0 0.0 0.0 0.0 0.0 0.1 0.0 0.2 0.0 0.0 1.2 0.1 0.4 0.0 0.0 nan nan nan nan nan nan nan nan nan nan
0.0 0.0 0.0 0.0 nan nan 0.2 0.1 0.0 0.0 nan nan nan nan nan nan nan 1.0 1.7 2.3 3.8 0.0 0.0 0.2 0.3 0.8 0.8 0.6 0.6 nan nan nan nan nan nan nan nan nan
0.1 0.0 nan 0.0 nan nan 0.6 0.4 0.8 0.0 0.0 0.0 0.0 0.0 nan nan nan 0.1 0.2 2.9 2.5 1.8 0.0 1.2 0.0 0.7 1.2 0.6 0.7 0.6 0.7 nan nan nan nan nan nan 0.0
0.9 0.7 0.5 nan nan nan nan 0.7 1.3 0.1 0.1 0.4 0.0 0.0 0.0 0.0 0.0 0.0 0.1 0.6 2.4 1.3 0.0 1.2 0.3 0.2 0.7 1.2 1.0 1.4 1.5 0.9 0.6 0.0 nan nan nan 0.0
0.9 1.0 1.4 nan nan nan 0.4 nan nan 0.5 4.7 4.5 3.0 1.8 1.4 1.0 0.0 0.0 0.0 0.3 0.2 0.5 0.2 0.2 1.7 0.5 1.4 1.6 2.4 1.1 1.1 1.0 0.9 0.5 1.6 nan nan nan
2.7 2.1 nan nan nan 1.2 nan nan 0.6 3.5 5.7 6.7 4.2 2.3 1.3 0.4 0.1 0.7 0.2 0.1 0.0 0.1 0.0 0.1 1.2 0.1 0.8 1.3 1.2 1.3 1.4 0.9 2.0 1.0 2.1 2.4 1.5 1.9
0.3 2.0 0.4 1.5 0.7 1.2 1.3 1.6 2.0 2.4 3.1 4.9 3.2 1.7 1.4 2.1 2.3 1.5 2.1 2.1 2.1 1.5 0.3 0.2 0.2 0.3 2.1 1.0 0.7 1.5 1.1 1.3 1.0 0.9 2.1 2.1 1.9 2.5
3.0 6.5 3.6 2.6 2.5 1.9 2.2 2.3 2.1 2.1 3.1 5.2 5.1 3.8 2.8 2.2 2.3 2.1 2.3 2.8 4.2 3.9 4.6 1.7 0.6 0.4 0.9 0.3 3.7 1.0 1.2 1.2 1.0 1.5 2.0 2.5 2.8 2.7
3.4 5.4 10.2 11.3 6.6 2.9 4.3 3.7 3.4 2.7 2.6 3.5 6.1 4.1 4.2 4.5 3.2 2.9 2.6 3.0 3.4 2.5 2.0 1.9 3.5 2.7 2.3 2.3 1.4 1.4 0.8 1.1 1.1 1.2 1.8 2.8 1.6 1.5
6.0 5.2 11.0 13.2 7.1 2.4 2.8 2.8 4.3 4.3 2.6 3.7 5.3 7.1 7.3 5.4 5.8 4.3 4.7 3.9 3.8 2.2 1.6 2.1 2.4 5.7 7.4 10.0 1.9 nan 2.8 1.8 2.6 3.2 2.0 2.5 2.3 2.2
2.8 4.7 6.8 6.9 3.3 2.3 2.4 2.9 3.7 6.2 6.2 5.3 8.3 12.5 14.3 9.7 8.0 5.8 5.0 6.3 3.7 2.1 1.7 1.0 1.5 1.8 3.3 10.3 11.7 7.6 nan 5.3 4.1 4.2 3.1 2.5 2.1 nan
2.6 2.3 5.1 4.2 3.4 2.6 8.8 10.8 14.4 13.2 13.9 19.2 11.2 11.0 25.6 6.1 6.7 5.0 6.0 4.1 3.3 1.6 1.8 1.7 1.5 0.1 1.4 3.5 17.1 8.1 7.4 nan 3.1 3.0 3.7 3.2 2.4 1.6
4.6 2.9 2.9 3.1 4.9 4.5 11.0 19.8 17.8 17.6 13.1 9.2 19.9 28.8 25.6 11.7 10.0 7.9 10.1 9.2 3.1 3.8 2.0 1.5 0.9 0.9 1.9 2.5 4.0 11.0 4.2 4.8 nan nan nan nan 3.6 4.4
7.9 3.4 5.5 7.4 9.3 10.0 4.3 10.0 4.3 10.0 9.4 9.7 9.1 9.8 44.5 11.6 7.3 8.1 8.0 5.0 3.0 3.6 2.5 2.6 1.3 1.1 1.8 1.6 2.7 4.6 3.3 6.5 2.8 2.8 5.8 nan nan nan

GFSNE_prec_sndepth_033.txt.gz
Snowfall_Accumulation
0.0 0.0 0.0 0.0 0.0 0.0 0.0 0.0 0.7 1.1 0.0 0.0 0.0 0.0 0.0 0.0 0.0 0.0 0.0 nan nan nan nan nan nan nan nan nan nan nan nan nan nan nan nan nan nan nan
0.0 0.0 0.0 0.0 0.0 0.0 0.0 0.0 0.0 0.4 0.7 0.0 0.0 0.0 0.0 0.0 0.0 0.0 0.0 nan nan nan nan nan nan nan nan nan nan nan nan nan nan nan nan nan nan nan
0.0 0.0 0.0 0.0 0.0 0.0 0.0 0.0 0.0 0.0 0.1 0.0 0.0 0.0 0.0 0.0 0.0 0.0 0.0 0.0 0.0 nan nan nan nan nan nan nan nan nan nan nan nan nan nan nan nan nan
0.0 0.0 0.0 0.0 0.0 0.0 0.0 0.0 0.0 0.0 0.0 0.0 0.0 0.0 0.0 0.0 0.0 0.0 0.0 0.0 0.0 nan nan nan nan nan nan nan nan nan nan nan nan nan nan nan nan nan
0.0 0.0 0.0 0.0 0.0 0.0 0.0 0.0 0.0 0.0 0.0 0.2 0.0 0.0 0.0 0.0 0.0 0.0 0.0 0.0 0.0 nan nan nan nan nan nan nan nan nan nan nan nan nan nan nan nan nan
0.0 0.0 0.0 0.0 0.0 0.0 0.0 0.0 0.0 0.2 0.0 0.0 0.0 0.0 0.0 0.0 0.0 0.0 0.0 0.0 0.0 0.0 nan nan nan nan nan nan nan nan nan nan nan nan nan nan nan nan
0.0 0.0 0.0 nan nan nan 0.0 0.0 0.0 0.1 0.1 0.1 0.1 0.1 0.0 0.1 0.0 0.0 0.0 0.0 0.0 0.0 0.0 0.0 0.0 0.0 0.0 nan nan nan nan nan nan nan nan nan nan nan
0.0 0.0 0.0 0.0 0.0 nan nan nan nan 0.1 0.2 0.3 0.1 0.1 0.0 0.1 0.2 0.2 0.2 0.0 0.2 0.0 0.0 0.0 0.0 0.0 0.0 0.0 nan nan nan nan nan nan nan nan nan nan
0.0 0.0 0.0 0.0 nan 0.0 nan nan nan nan nan 0.2 0.1 0.1 0.3 0.0 0.0 0.0 0.0 0.1 0.1 0.0 0.1 0.0 0.0 0.0 0.0 0.0 nan nan nan nan nan nan nan nan nan nan
0.0 0.0 0.0 0.0 0.0 0.0 0.1 0.1 0.0 0.0 0.0 0.0 0.0 0.0 0.0 0.0 0.0 0.1 0.4 0.3 0.2 0.0 0.0 1.3 0.1 0.4 0.0 0.0 nan nan nan nan nan nan nan nan nan nan
0.0 0.0 0.0 0.0 nan nan 0.2 0.1 0.0 0.0 nan nan nan nan nan nan nan 1.0 1.7 2.3 3.8 0.0 0.0 0.3 0.3 0.7 0.8 0.6 0.6 nan nan nan nan nan nan nan nan nan
0.1 0.0 nan 0.0 nan nan 0.6 0.4 0.8 0.0 0.0 0.0 0.0 0.0 nan nan nan 0.1 0.2 3.0 2.5 1.8 0.0 1.6 0.1 0.9 1.3 0.6 0.7 0.6 0.7 nan nan nan nan nan nan 0.0
0.9 0.7 0.5 nan nan nan nan 0.7 1.3 0.1 0.1 0.4 0.0 0.0 0.0 0.0 0.0 0.0 0.1 0.6 2.4 1.4 0.0 1.7 0.5 0.4 1.0 1.2 1.0 1.4 1.5 1.0 0.7 0.0 nan nan nan 0.0
0.9 1.0 1.4 nan nan nan 0.4 nan nan 0.5 4.7 4.5 3.0 1.8 1.4 1.0 0.0 0.0 0.0 0.3 0.2 0.5 0.2 0.4 2.6 0.8 1.5 1.7 2.4 1.1 1.1 1.1 0.9 0.6 1.5 nan nan nan
2.7 2.1 nan nan nan 1.2 nan nan 0.6 3.5 5.7 6.7 4.2 2.3 1.3 0.3 0.1 0.7 0.2 0.1 0.0 0.1 0.0 0.1 1.2 0.2 1.0 1.5 1.2 1.3 1.4 0.9 2.0 1.0 2.5 2.4 1.8 2.4
0.3 2.0 0.4 1.6 0.7 1.2 1.3 1.6 2.0 2.4 3.1 4.9 3.2 1.7 1.4 2.1 2.3 1.5 2.1 2.1 2.1 1.5 0.3 0.2 0.2 0.4 2.2 1.0 0.7 1.5 1.1 1.3 1.0 0.9 2.2 2.3 2.2 2.9
3.3 7.1 4.4 2.9 2.6 1.9 2.2 2.3 2.1 2.1 3.1 5.2 5.1 3.8 2.8 2.2 2.3 2.1 2.3 2.8 4.2 3.8 4.6 1.7 0.5 0.4 0.9 0.4 3.8 1.0 1.2 1.2 1.0 1.5 2.6 4.1 4.0 3.4
3.9 5.7 10.3 11.3 6.7 2.9 4.3 3.7 3.4 2.7 2.6 3.5 6.1 4.1 4.2 4.5 3.2 2.9 2.6 3.0 3.4 2.4 2.0 1.9 3.5 2.7 2.3 2.3 1.5 1.4 0.8 1.1 1.1 1.2 2.2 3.8 2.6 2.5
6.7 5.2 11.0 13.2 7.1 2.5 2.8 2.8 4.3 4.3 2.7 3.7 5.3 7.1 7.3 5.4 5.8 4.3 4.7 3.9 3.8 2.1 1.6 2.1 2.4 5.7 7.4 10.0 1.9 nan 2.9 1.8 2.6 3.2 2.0 2.6 2.8 2.6
3.2 4.8 6.8 7.0 3.4 2.4 2.4 2.9 3.7 6.2 6.2 5.3 8.3 12.5 14.3 9.7 8.0 5.8 5.0 6.3 3.8 2.1 1.7 1.0 1.5 1.8 3.4 10.3 11.8 7.6 nan 5.3 4.1 4.2 3.1 2.5 2.1 nan
2.7 2.4 5.2 4.5 3.7 2.7 8.8 10.7 14.4 13.2 13.8 19.1 11.2 11.0 25.5 6.1 6.7 5.0 6.0 4.1 3.4 1.6 1.8 1.7 1.5 0.1 1.5 3.7 17.2 8.2 7.4 nan 3.2 3.0 3.8 3.2 2.4 1.6
4.6 2.9 3.0 3.2 5.1 4.7 11.1 19.7 17.7 17.5 13.1 9.2 19.8 28.6 25.5 11.7 10.0 7.9 10.1 9.2 3.1 3.8 2.0 1.5 0.9 0.9 2.0 2.7 4.1 11.1 4.2 4.9 nan nan nan nan 3.6 4.4
8.1 3.5 5.6 7.6 9.5 10.2 4.6 10.1 4.3 10.0 9.4 9.7 9.0 9.7 44.1 11.6 7.3 8.1 8.0 5.0 3.1 3.6 2.5 2.6 1.3 1.1 1.9 1.9 3.0 4.8 3.3 6.5 2.8 2.8 5.9 nan nan nan

GFSNE_prec_sndepth_036.txt.gz
Snowfall_Accumulation
0.0 0.0 0.0 0.0 0.0 0.0 0.0 0.0 0.6 1.1 0.0 0.0 0.0 0.0 0.0 0.0 0.0 0.0 0.0 nan nan nan nan nan nan nan nan nan nan nan nan nan nan nan nan nan nan nan
0.0 0.0 0.0 0.0 0.0 0.0 0.0 0.0 0.0 0.4 0.8 0.0 0.0 0.0 0.0 0.0 0.0 0.0 0.0 nan nan nan nan nan nan nan nan nan nan nan nan nan nan nan nan nan nan nan
0.0 0.0 0.0 0.0 0.0 0.0 0.0 0.0 0.0 0.0 0.1 0.0 0.0 0.0 0.0 0.0 0.0 0.0 0.0 0.0 0.0 nan nan nan nan nan nan nan nan nan nan nan nan nan nan nan nan nan
0.0 0.0 0.0 0.0 0.0 0.0 0.0 0.0 0.0 0.0 0.0 0.0 0.0 0.0 0.0 0.0 0.0 0.0 0.0 0.0 0.0 nan nan nan nan nan nan nan nan nan nan nan nan nan nan nan nan nan
0.0 0.0 0.0 0.0 0.0 0.0 0.0 0.0 0.0 0.0 0.0 0.2 0.0 0.0 0.0 0.0 0.0 0.0 0.0 0.0 0.0 nan nan nan nan nan nan nan nan nan nan nan nan nan nan nan nan nan
0.0 0.0 0.0 0.0 0.0 0.0 0.0 0.0 0.0 0.2 0.0 0.0 0.0 0.0 0.0 0.0 0.0 0.0 0.0 0.0 0.0 0.0 nan nan nan nan nan nan nan nan nan nan nan nan nan nan nan nan
0.0 0.0 0.0 nan nan nan 0.0 0.0 0.0 0.1 0.1 0.1 0.1 0.1 0.0 0.1 0.0 0.0 0.0 0.0 0.0 0.0 0.0 0.0 0.0 0.0 0.0 nan nan nan nan nan nan nan nan nan nan nan
0.0 0.0 0.0 0.0 0.0 nan nan nan nan 0.1 0.2 0.3 0.1 0.1 0.0 0.1 0.2 0.2 0.2 0.0 0.3 0.0 0.0 0.0 0.0 0.0 0.0 0.0 nan nan nan nan nan nan nan nan nan nan
0.0 0.0 0.0 0.0 nan 0.0 nan nan nan nan nan 0.2 0.1 0.1 0.3 0.0 0.0 0.0 0.0 0.1 0.1 0.0 0.1 0.0 0.0 0.0 0.0 0.0 nan nan nan nan nan nan nan nan nan nan
0.0 0.0 0.0 0.0 0.0 0.0 0.1 0.1 0.0 0.0 0.0 0.0 0.0 0.0 0.0 0.0 0.0 0.1 0.5 0.3 0.2 0.0 0.0 1.3 0.1 0.4 0.0 0.0 nan nan nan nan nan nan nan nan nan nan
0.0 0.0 0.0 0.0 nan nan 0.2 0.1 0.0 0.0 nan nan nan nan nan nan nan 1.0 1.7 2.3 3.7 0.0 0.0 0.3 0.3 0.7 0.8 0.6 0.5 nan nan nan nan nan nan nan nan nan
0.1 0.0 nan 0.0 nan nan 0.6 0.4 0.8 0.0 0.0 0.0 0.0 0.0 nan nan nan 0.1 0.2 3.0 2.5 1.8 0.0 1.6 0.1 0.9 1.5 0.6 0.7 0.6 0.7 nan nan nan nan nan nan 0.0
0.9 0.7 0.5 nan nan nan nan 0.7 1.3 0.1 0.1 0.4 0.0 0.0 0.0 0.0 0.0 0.0 0.1 0.6 2.4 1.4 0.0 1.7 0.5 0.4 1.2 1.2 1.0 1.4 1.5 1.0 0.7 0.0 nan nan nan 0.0
0.9 1.0 1.3 nan nan nan 0.4 nan nan 0.5 4.7 4.5 3.0 1.8 1.4 1.0 0.0 0.0 0.0 0.3 0.2 0.6 0.2 0.4 3.1 1.1 1.9 1.8 2.4 1.1 1.1 1.0 0.9 0.6 1.5 nan nan nan
2.7 2.1 nan nan nan 1.2 nan nan 0.6 3.5 5.7 6.7 4.2 2.3 1.3 0.3 0.1 0.7 0.2 0.1 0.0 0.1 0.0 0.1 1.4 0.2 1.1 1.7 1.4 1.3 1.4 0.9 2.0 1.0 2.6 2.6 1.8 2.3
0.3 2.0 0.4 1.7 0.8 1.3 1.3 1.6 2.0 2.4 3.1 4.9 3.2 1.7 1.4 2.1 2.3 1.5 2.1 2.1 2.1 1.5 0.3 0.2 0.2 0.4 2.1 1.0 0.9 1.6 1.1 1.3 1.0 0.9 2.2 3.0 2.6 3.4
3.3 7.1 4.5 3.3 3.0 2.3 2.6 2.5 2.2 2.2 3.2 5.2 5.1 3.8 2.8 2.2 2.3 2.1 2.3 2.8 4.2 3.8 4.5 1.7 0.5 0.4 0.9 0.4 3.8 1.0 1.2 1.2 1.0 1.5 3.0 5.4 5.5 4.4
4.1 5.8 10.3 11.3 6.8 3.0 4.6 3.9 3.5 2.8 2.6 3.5 6.1 4.1 4.2 4.5 3.2 2.9 2.6 3.0 3.4 2.4 2.0 1.9 3.5 2.7 2.3 2.3 1.6 1.5 0.8 1.1 1.1 1.2 2.7 4.7 3.1 3.6
7.0 5.3 11.0 13.2 7.1 2.6 3.0 3.1 4.5 4.3 2.7 3.7 5.3 7.1 7.3 5.4 5.8 4.3 4.7 3.9 3.8 2.1 1.5 2.1 2.4 5.7 7.4 10.0 1.9 nan 3.0 1.8 2.6 3.2 2.0 2.8 3.3 3.3
3.2 4.8 6.9 7.0 3.4 2.6 2.7 3.3 3.9 6.2 6.2 5.3 8.3 12.4 14.3 9.7 8.0 5.8 5.0 6.3 3.8 2.1 1.7 1.0 1.5 1.8 3.6 10.3 11.8 7.6 nan 5.4 4.1 4.2 3.1 2.5 2.1 nan
2.7 2.4 5.2 4.6 3.8 3.0 9.1 11.0 14.5 13.2 13.8 19.0 11.2 11.0 25.3 6.1 6.7 5.0 6.0 4.1 3.4 1.6 1.8 1.7 1.5 0.1 1.9 4.0 17.3 8.3 7.4 nan 3.4 3.0 3.8 3.2 2.4 1.6
4.6 2.9 3.0 3.2 5.1 4.7 11.2 19.8 17.8 17.6 13.1 9.1 19.7 28.4 25.4 11.7 10.0 7.9 10.1 9.2 3.1 3.8 2.0 1.5 0.9 0.9 2.1 2.9 4.2 11.1 4.3 5.0 nan nan nan nan 3.6 4.4
8.6 4.0 5.9 7.8 9.6 10.3 4.9 10.5 4.6 10.1 9.4 9.7 9.0 9.7 43.7 11.7 7.3 8.1 8.0 5.0 3.1 3.6 2.5 2.6 1.3 1.0 1.9 2.1 3.2 5.0 3.5 6.6 2.8 2.8 5.9 nan nan nan

GFSNE_prec_sndepth_039.txt.gz
Snowfall_Accumulation
0.0 0.0 0.0 0.0 0.0 0.0 0.0 0.0 0.5 1.0 0.0 0.0 0.0 0.0 0.0 0.0 0.0 0.0 0.0 nan nan nan nan nan nan nan nan nan nan nan nan nan nan nan nan nan nan nan
0.0 0.0 0.0 0.0 0.0 0.0 0.0 0.0 0.0 0.3 0.7 0.0 0.0 0.0 0.0 0.0 0.0 0.0 0.0 nan nan nan nan nan nan nan nan nan nan nan nan nan nan nan nan nan nan nan
0.0 0.0 0.0 0.0 0.0 0.0 0.0 0.0 0.0 0.0 0.1 0.0 0.0 0.0 0.0 0.0 0.0 0.0 0.0 0.0 0.0 nan nan nan nan nan nan nan nan nan nan nan nan nan nan nan nan nan
0.0 0.0 0.0 0.0 0.0 0.0 0.0 0.0 0.0 0.0 0.0 0.0 0.0 0.0 0.0 0.0 0.0 0.0 0.0 0.0 0.0 nan nan nan nan nan nan nan nan nan nan nan nan nan nan nan nan nan
0.0 0.0 0.0 0.0 0.0 0.0 0.0 0.0 0.0 0.0 0.0 0.2 0.0 0.0 0.0 0.0 0.0 0.0 0.0 0.0 0.0 nan nan nan nan nan nan nan nan nan nan nan nan nan nan nan nan nan
0.0 0.0 0.0 0.0 0.0 0.0 0.0 0.0 0.0 0.1 0.0 0.0 0.0 0.0 0.0 0.0 0.0 0.0 0.0 0.0 0.0 0.0 nan nan nan nan nan nan nan nan nan nan nan nan nan nan nan nan
0.0 0.0 0.0 nan nan nan 0.0 0.0 0.0 0.0 0.1 0.1 0.1 0.0 0.0 0.0 0.0 0.0 0.0 0.0 0.0 0.0 0.0 0.0 0.0 0.0 0.0 nan nan nan nan nan nan nan nan nan nan nan
0.0 0.0 0.0 0.0 0.0 nan nan nan nan 0.1 0.1 0.3 0.0 0.1 0.0 0.1 0.2 0.2 0.2 0.0 0.3 0.0 0.0 0.0 0.0 0.0 0.0 0.0 nan nan nan nan nan nan nan nan nan nan
0.0 0.0 0.0 0.0 nan 0.0 nan nan nan nan nan 0.1 0.1 0.1 0.2 0.0 0.0 0.0 0.0 0.1 0.1 0.0 0.0 0.0 0.0 0.0 0.0 0.0 nan nan nan nan nan nan nan nan nan nan
0.0 0.0 0.0 0.0 0.0 0.0 0.1 0.1 0.0 0.0 0.0 0.0 0.0 0.0 0.0 0.0 0.0 0.0 0.3 0.2 0.1 0.0 0.0 1.2 0.1 0.3 0.0 0.0 nan nan nan nan nan nan nan nan nan nan
0.0 0.0 0.0 0.0 nan nan 0.1 0.1 0.0 0.0 nan nan nan nan nan nan nan 0.9 1.6 2.2 3.6 0.0 0.0 0.3 0.3 0.6 0.6 0.5 0.4 nan nan nan nan nan nan nan nan nan
0.0 0.0 nan 0.0 nan nan 0.4 0.3 0.6 0.0 0.0 0.0 0.0 0.0 nan nan nan 0.1 0.2 2.9 2.4 1.8 0.0 1.4 0.0 0.9 1.4 0.5 0.6 0.5 0.6 nan nan nan nan nan nan 0.0
0.8 0.6 0.5 nan nan nan nan 0.5 1.0 0.1 0.1 0.3 0.0 0.0 0.0 0.0 0.0 0.0 0.1 0.5 2.2 1.3 0.0 1.6 0.4 0.4 1.3 1.3 0.8 1.1 1.2 0.8 0.5 0.0 nan nan nan 0.0
0.7 0.9 1.1 nan nan nan 0.5 nan nan 0.4 4.1 4.1 2.7 1.6 1.2 0.9 0.0 0.0 0.0 0.2 0.2 0.5 0.1 0.3 3.1 1.1 2.0 1.7 2.3 0.9 0.9 0.9 0.7 0.5 1.2 nan nan nan
2.2 1.7 nan nan nan 1.1 nan nan 0.6 3.4 5.2 6.3 3.9 2.1 1.1 0.3 0.1 0.6 0.2 0.0 0.0 0.1 0.0 0.1 1.3 0.2 1.0 1.6 1.3 1.2 1.4 0.7 1.6 0.9 2.2 2.9 2.2 2.2
0.3 1.7 0.3 1.4 0.7 1.1 1.4 1.7 2.2 2.5 3.0 4.7 3.0 1.5 1.2 1.9 2.1 1.4 1.9 1.9 1.9 1.3 0.2 0.1 0.2 0.3 2.0 0.9 0.8 1.6 1.0 1.4 0.8 0.8 2.0 3.4 2.9 3.7
3.2 6.8 4.3 3.2 3.0 2.3 2.6 2.7 2.5 2.6 3.7 5.1 4.9 3.6 2.6 2.0 2.1 1.9 2.1 2.6 4.0 3.7 4.3 1.5 0.3 0.2 0.8 0.3 3.6 0.9 1.1 1.0 0.9 1.3 3.1 5.7 6.1 4.7
4.7 5.8 9.7 10.7 6.4 2.9 4.6 3.8 3.6 3.2 2.9 3.4 6.0 3.9 4.0 4.2 2.9 2.6 2.4 2.8 3.3 2.3 1.9 1.7 3.2 2.5 2.0 1.9 1.5 1.4 0.8 1.0 1.0 1.0 2.5 4.5 3.4 4.3
7.6 5.1 10.5 12.3 6.7 2.6 3.0 2.9 4.3 4.2 2.9 4.1 5.1 6.8 6.9 5.1 5.5 4.0 4.4 3.7 3.6 2.0 1.4 1.9 2.2 5.5 7.3 9.9 1.7 nan 2.9 1.6 2.5 3.0 1.8 2.8 3.6 3.6
3.1 4.5 6.6 6.5 3.3 2.6 2.7 3.3 3.8 6.1 6.2 5.1 8.1 11.9 13.8 9.3 7.7 5.5 4.7 6.2 3.6 1.9 1.6 0.9 1.4 1.6 3.7 10.3 11.8 7.1 nan 5.1 4.0 4.1 2.9 2.2 1.8 nan
2.7 2.3 4.7 4.2 3.6 2.9 9.1 10.5 13.8 12.7 13.4 18.7 10.8 10.8 24.9 5.9 6.5 4.8 5.6 4.0 3.2 1.5 1.7 1.6 1.4 0.1 1.7 3.9 17.3 7.8 6.6 nan 3.3 3.0 3.7 3.0 2.2 1.4
5.0 3.4 3.3 3.5 5.2 4.7 10.6 18.6 17.0 16.9 12.9 9.2 19.7 28.2 24.9 11.6 9.9 7.7 9.7 8.9 2.9 3.6 1.9 1.4 0.8 0.8 1.9 2.8 4.1 10.3 3.9 4.5 nan nan nan nan 3.5 4.4
8.9 4.5 6.3 8.1 9.8 10.4 4.9 10.1 4.5 9.7 9.3 9.8 9.3 9.8 43.1 11.5 7.1 7.8 7.7 4.9 2.9 3.5 2.3 2.4 1.2 1.0 1.8 2.1 3.1 4.7 3.2 6.0 2.6 2.6 5.4 nan nan nan

GFSNE_prec_sndepth_042.txt.gz
Snowfall_Accumulation
0.0 0.0 0.0 0.0 0.0 0.0 0.0 0.0 0.4 0.7 0.0 0.0 0.0 0.0 0.0 0.0 0.0 0.0 0.0 nan nan nan nan nan nan nan nan nan nan nan nan nan nan nan nan nan nan nan
0.0 0.0 0.0 0.0 0.0 0.0 0.0 0.0 0.0 0.2 0.5 0.0 0.0 0.0 0.0 0.0 0.0 0.0 0.0 nan nan nan nan nan nan nan nan nan nan nan nan nan nan nan nan nan nan nan
0.0 0.0 0.0 0.0 0.0 0.0 0.0 0.0 0.0 0.0 0.1 0.0 0.0 0.0 0.0 0.0 0.0 0.0 0.0 0.0 0.0 nan nan nan nan nan nan nan nan nan nan nan nan nan nan nan nan nan
0.0 0.0 0.0 0.0 0.0 0.0 0.0 0.0 0.0 0.0 0.0 0.0 0.0 0.0 0.0 0.0 0.0 0.0 0.0 0.0 0.0 nan nan nan nan nan nan nan nan nan nan nan nan nan nan nan nan nan
0.0 0.0 0.0 0.0 0.0 0.0 0.0 0.0 0.0 0.0 0.0 0.1 0.0 0.0 0.0 0.0 0.0 0.0 0.0 0.0 0.0 nan nan nan nan nan nan nan nan nan nan nan nan nan nan nan nan nan
0.0 0.0 0.0 0.0 0.0 0.0 0.0 0.0 0.0 0.0 0.0 0.0 0.0 0.0 0.0 0.0 0.0 0.0 0.0 0.0 0.0 0.0 nan nan nan nan nan nan nan nan nan nan nan nan nan nan nan nan
0.0 0.0 0.0 nan nan nan 0.0 0.0 0.0 0.0 0.0 0.0 0.0 0.0 0.0 0.0 0.0 0.0 0.0 0.0 0.0 0.0 0.0 0.0 0.0 0.0 0.0 nan nan nan nan nan nan nan nan nan nan nan
0.0 0.0 0.0 0.0 0.0 nan nan nan nan 0.0 0.1 0.2 0.0 0.0 0.0 0.0 0.1 0.1 0.1 0.0 0.2 0.0 0.0 0.0 0.0 0.0 0.0 0.0 nan nan nan nan nan nan nan nan nan nan
0.0 0.0 0.0 0.0 nan 0.0 nan nan nan nan nan 0.0 0.0 0.0 0.1 0.0 0.0 0.0 0.0 0.0 0.0 0.0 0.0 0.0 0.0 0.0 0.0 0.0 nan nan nan nan nan nan nan nan nan nan
0.0 0.0 0.0 0.0 0.0 0.0 0.0 0.0 0.0 0.0 0.0 0.0 0.0 0.0 0.0 0.0 0.0 0.0 0.2 0.1 0.1 0.0 0.0 0.9 0.1 0.2 0.0 0.0 nan nan nan nan nan nan nan nan nan nan
0.0 0.0 0.0 0.0 nan nan 0.1 0.0 0.0 0.0 nan nan nan nan nan nan nan 0.7 1.2 1.6 2.9 0.0 0.0 0.2 0.2 0.5 0.5 0.4 0.3 nan nan nan nan nan nan nan nan nan
0.0 0.0 nan 0.0 nan nan 0.2 0.1 0.3 0.0 0.0 0.0 0.0 0.0 nan nan nan 0.0 0.1 2.2 1.8 1.4 0.0 1.1 0.0 0.7 1.1 0.4 0.4 0.4 0.4 nan nan nan nan nan nan 0.0
0.6 0.5 0.3 nan nan nan nan 0.2 0.4 0.0 0.1 0.3 0.0 0.0 0.0 0.0 0.0 0.0 0.0 0.4 1.7 1.0 0.0 1.2 0.3 0.3 1.0 1.0 0.6 0.8 0.9 0.6 0.4 0.0 nan nan nan 0.0
0.5 0.6 0.7 nan nan nan 0.2 nan nan 0.4 3.6 3.4 2.2 1.3 1.0 0.7 0.0 0.0 0.0 0.1 0.1 0.3 0.0 0.1 2.5 0.9 1.8 1.6 1.9 0.7 0.7 0.7 0.6 0.3 0.9 nan nan nan
1.6 1.2 nan nan nan 0.5 nan nan 0.2 3.2 4.6 5.6 3.3 1.8 0.9 0.2 0.0 0.4 0.1 0.0 0.0 0.0 0.0 0.0 1.1 0.2 0.9 1.5 1.2 1.0 1.1 0.6 1.2 0.7 1.6 2.2 2.2 2.2
0.2 1.3 0.0 1.0 0.1 0.7 1.1 1.5 1.9 2.1 2.6 3.9 2.7 1.4 1.2 1.6 1.7 1.1 1.5 1.5 1.5 1.0 0.1 0.1 0.1 0.1 1.5 0.7 0.7 1.3 0.8 1.3 0.7 0.7 1.5 2.8 2.7 3.8
2.3 5.3 3.5 2.7 2.5 2.1 2.3 2.3 2.1 2.3 3.2 4.1 4.2 3.1 2.2 1.6 1.7 1.5 1.6 2.0 3.2 2.9 3.3 1.1 0.2 0.1 0.6 0.2 2.9 0.8 0.9 0.9 0.7 1.1 2.4 4.6 5.4 4.8
3.7 4.7 7.7 8.2 5.0 2.4 3.9 3.4 3.0 2.6 2.4 3.1 5.1 3.4 3.4 3.5 2.4 2.1 1.9 2.2 2.6 1.8 1.5 1.3 2.5 1.9 1.5 1.4 1.1 1.2 0.7 0.9 0.8 0.9 2.1 4.0 3.0 4.2
6.1 4.0 8.1 9.7 5.4 2.3 2.8 2.6 3.8 3.6 2.1 3.7 4.7 5.9 6.0 4.3 4.6 3.2 3.6 3.1 2.9 1.6 1.1 1.5 1.7 4.4 7.2 9.8 1.4 nan 2.6 1.4 2.2 2.6 1.5 2.5 3.5 3.5
2.6 4.0 5.5 5.1 2.6 2.1 2.2 2.8 3.2 5.0 5.3 4.3 6.7 9.9 11.6 7.7 6.5 4.5 3.8 5.1 2.9 1.5 1.3 0.7 1.1 1.3 3.4 10.3 11.7 5.8 nan 4.4 3.5 3.9 2.6 1.8 1.5 nan
2.5 2.1 4.5 3.9 3.2 2.6 7.4 8.6 11.5 10.7 11.3 15.7 9.1 9.3 21.3 5.0 5.5 3.9 4.6 3.2 2.7 1.2 1.4 1.3 1.1 0.0 1.3 3.3 17.0 6.8 5.5 nan 2.6 2.5 3.2 2.7 1.9 1.2
4.9 3.4 3.3 3.6 5.4 5.1 10.2 16.8 14.7 14.5 10.8 7.8 16.7 24.5 21.6 9.8 8.2 6.4 8.2 7.7 2.4 2.8 1.5 1.1 0.6 0.7 1.5 2.5 3.6 8.6 3.1 3.7 nan nan nan nan 3.2 4.1
8.8 4.4 6.3 8.1 9.9 10.6 5.1 10.1 4.3 8.6 7.8 8.3 7.8 8.6 38.8 10.2 5.9 6.4 6.6 4.2 2.4 2.8 1.9 1.9 1.0 0.8 1.4 1.8 2.7 4.0 2.3 4.9 2.1 2.1 4.5 nan nan nan

GFSNE_prec_sndepth_045.txt.gz
Snowfall_Accumulation
0.0 0.0 0.0 0.0 0.0 0.0 0.0 0.0 0.3 0.5 0.0 0.0 0.0 0.0 0.0 0.0 0.0 0.0 0.0 nan nan nan nan nan nan nan nan nan nan nan nan nan nan nan nan nan nan nan
0.0 0.0 0.0 0.0 0.0 0.0 0.0 0.0 0.0 0.2 0.4 0.0 0.0 0.0 0.0 0.0 0.0 0.0 0.0 nan nan nan nan nan nan nan nan nan nan nan nan nan nan nan nan nan nan nan
0.0 0.0 0.0 0.0 0.0 0.0 0.0 0.0 0.0 0.0 0.0 0.0 0.0 0.0 0.0 0.0 0.0 0.0 0.0 0.0 0.0 nan nan nan nan nan nan nan nan nan nan nan nan nan nan nan nan nan
0.0 0.0 0.0 0.0 0.0 0.0 0.0 0.0 0.0 0.0 0.0 0.0 0.0 0.0 0.0 0.0 0.0 0.0 0.0 0.0 0.0 nan nan nan nan nan nan nan nan nan nan nan nan nan nan nan nan nan
0.0 0.0 0.0 0.0 0.0 0.0 0.0 0.0 0.0 0.0 0.0 0.0 0.0 0.0 0.0 0.0 0.0 0.0 0.0 0.0 0.0 nan nan nan nan nan nan nan nan nan nan nan nan nan nan nan nan nan
0.0 0.0 0.0 0.0 0.0 0.0 0.0 0.0 0.0 0.0 0.0 0.0 0.0 0.0 0.0 0.0 0.0 0.0 0.0 0.0 0.0 0.0 nan nan nan nan nan nan nan nan nan nan nan nan nan nan nan nan
0.0 0.0 0.0 nan nan nan 0.0 0.0 0.0 0.0 0.0 0.0 0.0 0.0 0.0 0.0 0.0 0.0 0.0 0.0 0.0 0.0 0.0 0.0 0.0 0.0 0.0 nan nan nan nan nan nan nan nan nan nan nan
0.0 0.0 0.0 0.0 0.0 nan nan nan nan 0.0 0.0 0.1 0.0 0.0 0.0 0.0 0.0 0.0 0.0 0.0 0.1 0.0 0.0 0.0 0.0 0.0 0.0 0.0 nan nan nan nan nan nan nan nan nan nan
0.0 0.0 0.0 0.0 nan 0.0 nan nan nan nan nan 0.0 0.0 0.0 0.0 0.0 0.0 0.0 0.0 0.0 0.0 0.0 0.0 0.0 0.0 0.0 0.0 0.0 nan nan nan nan nan nan nan nan nan nan
0.0 0.0 0.0 0.0 0.0 0.0 0.0 0.0 0.0 0.0 0.0 0.0 0.0 0.0 0.0 0.0 0.0 0.0 0.1 0.0 0.1 0.0 0.0 0.7 0.1 0.2 0.0 0.0 nan nan nan nan nan nan nan nan nan nan
0.0 0.0 0.0 0.0 nan nan 0.0 0.0 0.0 0.0 nan nan nan nan nan nan nan 0.5 1.0 1.3 2.4 0.0 0.0 0.1 0.2 0.4 0.4 0.3 0.2 nan nan nan nan nan nan nan nan nan
0.0 0.0 nan 0.0 nan nan 0.1 0.0 0.1 0.0 0.0 0.0 0.0 0.0 nan nan nan 0.0 0.1 1.7 1.4 1.1 0.0 0.9 0.0 0.5 0.9 0.3 0.3 0.3 0.3 nan nan nan nan nan nan 0.0
0.4 0.3 0.2 nan nan nan nan 0.1 0.2 0.0 0.0 0.2 0.0 0.0 0.0 0.0 0.0 0.0 0.0 0.3 1.3 0.8 0.0 0.9 0.2 0.2 0.8 0.8 0.5 0.6 0.7 0.5 0.3 0.0 nan nan nan 0.0
0.4 0.5 0.5 nan nan nan 0.1 nan nan 0.3 2.7 2.8 1.9 1.1 0.8 0.6 0.0 0.0 0.0 0.0 0.1 0.2 0.0 0.1 2.0 0.8 1.5 1.4 1.6 0.5 0.5 0.5 0.5 0.2 0.7 nan nan nan
1.1 0.9 nan nan nan 0.1 nan nan 0.0 2.6 3.7 4.9 2.8 1.4 0.8 0.2 0.0 0.4 0.1 0.0 0.0 0.0 0.0 0.0 0.9 0.1 0.7 1.3 1.0 0.8 0.9 0.5 0.9 0.6 1.2 1.7 1.7 1.9
0.2 1.0 0.0 0.8 0.0 0.4 0.8 1.3 1.7 1.9 2.5 3.4 2.1 1.1 1.0 1.6 1.7 0.9 1.3 1.2 1.2 0.8 0.1 0.0 0.0 0.1 1.3 0.6 0.5 1.1 0.7 1.1 0.5 0.6 1.2 2.2 2.1 3.5
1.8 4.0 2.6 2.0 1.8 1.5 1.7 1.8 1.8 2.0 2.9 3.3 3.3 2.5 1.9 1.5 1.5 1.2 1.4 1.6 2.7 2.4 2.7 0.9 0.1 0.1 0.5 0.1 2.5 0.7 0.8 0.7 0.6 1.0 2.0 3.7 4.5 4.6
2.9 3.7 6.1 6.5 3.8 1.8 3.0 2.9 2.8 2.5 2.2 2.6 4.0 2.7 2.9 3.2 2.0 1.8 1.6 1.9 2.2 1.5 1.2 1.1 2.0 1.5 1.3 1.0 0.9 1.0 0.6 0.8 0.7 0.8 1.7 3.4 2.7 3.8
5.3 3.6 7.6 8.6 4.6 1.8 2.5 2.7 4.0 3.3 1.4 3.1 3.8 4.7 4.8 3.7 4.2 2.9 3.1 2.6 2.5 1.3 0.9 1.2 1.4 3.8 7.1 9.8 1.1 nan 2.3 1.2 2.0 2.3 1.3 2.1 3.4 3.2
2.1 3.7 5.4 5.0 2.4 1.9 1.9 2.4 2.8 4.2 4.1 3.5 5.4 7.8 9.4 6.4 5.7 3.9 3.3 4.4 2.4 1.3 1.0 0.6 0.9 1.0 2.9 10.1 11.5 5.0 nan 3.9 3.3 3.7 2.4 1.6 1.6 nan
2.2 1.9 4.3 3.9 3.1 2.5 7.3 8.6 11.3 9.8 9.8 13.0 7.3 7.7 17.9 4.2 4.9 3.5 3.8 2.7 2.3 1.0 1.1 1.0 0.9 0.0 1.1 2.7 16.7 6.0 5.2 nan 2.0 2.1 2.9 2.4 1.8 1.1
4.8 3.3 3.2 3.5 5.3 5.1 10.2 16.8 14.3 13.9 10.2 7.1 14.0 20.8 18.3 8.1 7.2 5.7 7.0 6.6 2.0 2.3 1.2 0.9 0.5 0.6 1.2 2.1 3.2 7.8 2.7 3.1 nan nan nan nan 3.1 4.1
8.7 4.4 6.2 8.0 9.8 10.5 5.1 10.1 4.4 8.8 8.0 7.9 6.9 7.2 33.9 8.8 5.1 5.7 5.7 3.7 2.1 2.4 1.5 1.6 0.8 0.6 1.1 1.5 2.3 3.5 1.7 4.2 1.7 2.0 3.9 nan nan nan

GFSNE_prec_sndepth_048.txt.gz
Snowfall_Accumulation
0.0 0.0 0.0 0.0 0.0 0.0 0.0 0.0 0.2 0.4 0.0 0.0 0.0 0.0 0.0 0.0 0.0 0.0 0.0 nan nan nan nan nan nan nan nan nan nan nan nan nan nan nan nan nan nan nan
0.0 0.0 0.0 0.0 0.0 0.0 0.0 0.0 0.0 0.1 0.3 0.0 0.0 0.0 0.0 0.0 0.0 0.0 0.0 nan nan nan nan nan nan nan nan nan nan nan nan nan nan nan nan nan nan nan
0.0 0.0 0.0 0.0 0.0 0.0 0.0 0.0 0.0 0.0 0.0 0.0 0.0 0.0 0.0 0.0 0.0 0.0 0.0 0.0 0.0 nan nan nan nan nan nan nan nan nan nan nan nan nan nan nan nan nan
0.0 0.0 0.0 0.0 0.0 0.0 0.0 0.0 0.0 0.0 0.0 0.0 0.0 0.0 0.0 0.0 0.0 0.0 0.0 0.0 0.0 nan nan nan nan nan nan nan nan nan nan nan nan nan nan nan nan nan
0.0 0.0 0.0 0.0 0.0 0.0 0.0 0.0 0.0 0.0 0.0 0.0 0.0 0.0 0.0 0.0 0.0 0.0 0.0 0.0 0.0 nan nan nan nan nan nan nan nan nan nan nan nan nan nan nan nan nan
0.0 0.0 0.0 0.0 0.0 0.0 0.0 0.0 0.0 0.0 0.0 0.0 0.0 0.0 0.0 0.0 0.0 0.0 0.0 0.0 0.0 0.0 nan nan nan nan nan nan nan nan nan nan nan nan nan nan nan nan
0.0 0.0 0.0 nan nan nan 0.0 0.0 0.0 0.0 0.0 0.0 0.0 0.0 0.0 0.0 0.0 0.0 0.0 0.0 0.0 0.0 0.0 0.0 0.0 0.0 0.0 nan nan nan nan nan nan nan nan nan nan nan
0.0 0.0 0.0 0.0 0.0 nan nan nan nan 0.0 0.0 0.1 0.0 0.0 0.0 0.0 0.0 0.0 0.0 0.0 0.1 0.0 0.0 0.0 0.0 0.0 0.0 0.0 nan nan nan nan nan nan nan nan nan nan
0.0 0.0 0.0 0.0 nan 0.0 nan nan nan nan nan 0.0 0.0 0.0 0.0 0.0 0.0 0.0 0.0 0.0 0.0 0.0 0.0 0.0 0.0 0.0 0.0 0.0 nan nan nan nan nan nan nan nan nan nan
0.0 0.0 0.0 0.0 0.0 0.0 0.0 0.0 0.0 0.0 0.0 0.0 0.0 0.0 0.0 0.0 0.0 0.0 0.0 0.0 0.1 0.0 0.0 0.7 0.1 0.2 0.0 0.0 nan nan nan nan nan nan nan nan nan nan
0.0 0.0 0.0 0.0 nan nan 0.0 0.0 0.0 0.0 nan nan nan nan nan nan nan 0.5 0.9 1.2 2.3 0.0 0.0 0.1 0.2 0.3 0.3 0.2 0.2 nan nan nan nan nan nan nan nan nan
0.0 0.0 nan 0.0 nan nan 0.1 0.0 0.1 0.0 0.0 0.0 0.0 0.0 nan nan nan 0.0 0.1 2.0 1.6 1.1 0.0 0.8 0.0 0.5 0.9 0.3 0.3 0.3 0.3 nan nan nan nan nan nan 0.0
0.4 0.3 0.2 nan nan nan nan 0.1 0.2 0.0 0.1 0.2 0.0 0.0 0.0 0.0 0.0 0.0 0.0 0.3 1.3 0.8 0.0 0.9 0.2 0.2 0.8 0.8 0.5 0.6 0.7 0.5 0.3 0.0 nan nan nan 0.0
0.3 0.4 0.5 nan nan nan 0.1 nan nan 0.3 2.4 2.5 1.7 1.0 0.7 0.5 0.0 0.0 0.0 0.0 0.1 0.2 0.0 0.0 1.9 0.7 1.4 1.4 1.6 0.5 0.5 0.5 0.4 0.2 0.7 nan nan nan
1.0 0.8 nan nan nan 0.1 nan nan 0.0 2.4 3.4 4.6 2.7 1.4 0.7 0.2 0.0 0.4 0.1 0.0 0.0 0.0 0.0 0.0 0.8 0.1 0.7 1.3 1.0 0.8 0.9 0.4 0.9 0.5 1.2 1.6 1.6 1.9
0.1 0.9 0.0 0.7 0.0 0.4 0.8 1.1 1.5 1.7 2.4 3.3 2.1 1.0 0.9 1.5 1.6 0.9 1.4 1.3 1.4 0.8 0.0 0.0 0.0 0.1 1.3 0.6 0.5 1.0 0.7 1.1 0.5 0.6 1.2 2.1 2.0 3.4
1.8 3.8 2.4 1.8 1.7 1.4 1.5 1.6 1.6 1.8 2.7 3.1 3.1 2.4 1.8 1.4 1.4 1.2 1.3 1.6 2.8 2.3 2.6 0.8 0.1 0.1 0.4 0.1 2.5 0.6 0.8 0.7 0.6 0.9 2.0 3.6 4.6 4.5
2.9 3.6 6.0 6.4 3.7 1.7 2.9 2.8 2.7 2.4 2.2 3.0 4.1 2.5 2.6 3.0 2.0 1.8 1.6 1.9 2.2 1.4 1.2 1.0 1.9 1.5 1.2 1.0 0.9 1.0 0.6 0.8 0.7 0.7 1.6 3.5 2.8 3.8
5.2 3.5 7.5 8.5 4.6 1.8 2.5 2.7 4.0 3.7 1.7 3.3 3.8 4.4 4.5 3.5 4.1 3.0 3.2 2.7 2.6 1.3 0.9 1.1 1.4 3.7 7.0 9.8 1.1 nan 2.3 1.2 2.0 2.3 1.3 2.1 3.8 3.4
2.1 3.6 5.3 5.0 2.4 1.9 1.9 2.5 2.8 4.2 4.6 4.0 5.8 7.6 8.8 6.1 5.5 4.0 3.3 4.5 2.5 1.3 1.0 0.5 0.9 1.0 2.9 10.0 11.4 4.9 nan 3.9 3.3 3.7 2.4 1.5 1.9 nan
2.2 1.8 4.3 3.8 3.1 2.5 7.3 8.6 11.3 10.0 10.2 13.5 7.6 7.8 16.9 4.1 4.7 3.4 3.9 2.8 2.3 1.1 1.1 1.0 0.8 0.0 1.0 2.6 16.7 6.0 5.2 nan 1.9 2.1 2.9 2.4 1.9 1.2
4.8 3.3 3.1 3.5 5.3 5.1 10.2 16.7 14.2 13.9 10.3 7.4 14.6 20.7 17.6 7.9 6.9 5.5 7.0 6.9 2.1 2.3 1.2 0.8 0.5 0.5 1.2 2.1 3.2 7.8 3.1 3.5 nan nan nan nan 3.1 4.1
8.6 4.4 6.2 8.0 9.8 10.4 5.1 10.1 4.5 8.8 8.0 8.1 7.2 7.6 33.7 8.8 5.0 5.5 5.9 4.1 2.3 2.4 1.5 1.6 0.8 0.6 1.1 1.4 2.3 3.5 1.8 4.3 2.0 2.1 4.0 nan nan nan

GFSNE_prec_sndepth_051.txt.gz
Snowfall_Accumulation
0.0 0.0 0.0 0.0 0.0 0.0 0.0 0.0 0.2 0.4 0.0 0.0 0.0 0.0 0.0 0.0 0.0 0.0 0.0 nan nan nan nan nan nan nan nan nan nan nan nan nan nan nan nan nan nan nan
0.0 0.0 0.0 0.0 0.0 0.0 0.0 0.0 0.0 0.1 0.3 0.0 0.0 0.0 0.0 0.0 0.0 0.0 0.0 nan nan nan nan nan nan nan nan nan nan nan nan nan nan nan nan nan nan nan
0.0 0.0 0.0 0.0 0.0 0.0 0.0 0.0 0.0 0.0 0.0 0.0 0.0 0.0 0.0 0.0 0.0 0.0 0.0 0.0 0.0 nan nan nan nan nan nan nan nan nan nan nan nan nan nan nan nan nan
0.0 0.0 0.0 0.0 0.0 0.0 0.0 0.0 0.0 0.0 0.0 0.0 0.0 0.0 0.0 0.0 0.0 0.0 0.0 0.0 0.0 nan nan nan nan nan nan nan nan nan nan nan nan nan nan nan nan nan
0.0 0.0 0.0 0.0 0.0 0.0 0.0 0.0 0.0 0.0 0.0 0.0 0.0 0.0 0.0 0.0 0.0 0.0 0.0 0.0 0.0 nan nan nan nan nan nan nan nan nan nan nan nan nan nan nan nan nan
0.0 0.0 0.0 0.0 0.0 0.0 0.0 0.0 0.0 0.0 0.0 0.0 0.0 0.0 0.0 0.0 0.0 0.0 0.0 0.0 0.0 0.0 nan nan nan nan nan nan nan nan nan nan nan nan nan nan nan nan
0.0 0.0 0.0 nan nan nan 0.0 0.0 0.0 0.0 0.0 0.0 0.0 0.0 0.0 0.0 0.0 0.0 0.0 0.0 0.0 0.0 0.0 0.0 0.0 0.0 0.0 nan nan nan nan nan nan nan nan nan nan nan
0.0 0.0 0.0 0.0 0.0 nan nan nan nan 0.0 0.0 0.1 0.0 0.0 0.0 0.0 0.0 0.1 0.1 0.0 0.2 0.0 0.0 0.0 0.0 0.0 0.0 0.0 nan nan nan nan nan nan nan nan nan nan
0.0 0.0 0.0 0.0 nan 0.0 nan nan nan nan nan 0.0 0.0 0.0 0.0 0.0 0.1 0.1 0.0 0.0 0.1 0.0 0.0 0.0 0.0 0.0 0.0 0.0 nan nan nan nan nan nan nan nan nan nan
0.0 0.0 0.0 0.0 0.0 0.0 0.0 0.0 0.0 0.0 0.0 0.0 0.0 0.0 0.0 0.0 0.0 0.0 0.0 0.0 0.1 0.0 0.0 0.7 0.1 0.2 0.0 0.0 nan nan nan nan nan nan nan nan nan nan
0.0 0.0 0.0 0.0 nan nan 0.0 0.0 0.0 0.0 nan nan nan nan nan nan nan 0.6 1.0 1.3 2.3 0.0 0.0 0.1 0.2 0.3 0.3 0.2 0.2 nan nan nan nan nan nan nan nan nan
0.0 0.0 nan 0.0 nan nan 0.1 0.0 0.1 0.0 0.0 0.0 0.0 0.0 nan nan nan 0.0 0.3 2.8 2.2 1.6 0.1 0.8 0.0 0.5 0.9 0.3 0.3 0.3 0.3 nan nan nan nan nan nan 0.0
0.4 0.3 0.2 nan nan nan nan 0.1 0.2 0.0 0.1 0.2 0.0 0.0 0.0 0.0 0.0 0.0 0.0 0.4 1.7 1.1 0.0 0.9 0.2 0.2 0.8 0.8 0.5 0.6 0.7 0.5 0.3 0.0 nan nan nan 0.0
0.3 0.4 0.5 nan nan nan 0.1 nan nan 0.3 2.4 2.5 1.7 1.0 0.7 0.5 0.0 0.0 0.0 0.0 0.1 0.2 0.0 0.0 1.9 0.7 1.4 1.4 1.6 0.5 0.5 0.5 0.4 0.2 0.7 nan nan nan
1.0 0.8 nan nan nan 0.1 nan nan 0.0 2.4 3.5 4.7 2.8 1.4 0.7 0.2 0.0 0.7 0.6 0.5 0.0 0.0 0.0 0.0 0.8 0.1 0.7 1.3 1.0 0.8 0.9 0.4 0.9 0.5 1.2 1.6 1.6 2.1
0.1 0.9 0.0 0.7 0.0 0.4 0.8 1.1 1.5 1.7 2.5 3.4 2.2 1.0 0.9 1.5 1.7 0.9 1.4 1.4 1.8 0.9 0.0 0.0 0.0 0.1 1.3 0.6 0.5 1.0 0.7 1.1 0.5 0.6 1.2 2.1 2.0 3.9
1.8 3.8 2.4 1.8 1.7 1.4 1.5 1.6 1.6 1.8 2.7 3.1 3.1 2.4 2.1 1.7 1.5 1.1 1.4 1.8 3.0 2.3 2.6 0.9 0.1 0.1 0.4 0.1 2.5 0.6 0.8 0.7 0.6 0.9 2.0 3.6 4.6 4.9
2.9 3.6 6.0 6.4 3.7 1.7 2.9 2.7 2.7 2.4 2.2 3.0 4.4 3.0 2.9 3.1 2.1 1.9 1.7 2.0 2.2 1.5 1.2 1.0 1.9 1.5 1.2 1.0 0.9 1.0 0.6 0.8 0.7 0.7 1.6 3.5 2.8 4.2
5.2 3.5 7.5 8.5 4.6 1.8 2.4 2.7 4.0 3.7 1.7 3.3 3.9 4.6 4.7 3.8 4.3 3.2 3.3 2.8 2.8 1.3 0.9 1.1 1.4 3.7 7.0 9.8 1.1 nan 2.3 1.2 2.0 2.3 1.3 2.1 3.8 3.8
2.1 3.6 5.3 5.0 2.4 1.9 1.9 2.4 2.8 4.2 4.6 4.0 5.8 7.9 9.4 6.7 5.9 4.2 3.4 4.7 2.6 1.3 1.0 0.5 0.9 1.0 2.9 10.0 11.4 4.9 nan 3.9 3.3 3.7 2.4 1.5 2.0 nan
2.2 1.8 4.3 3.8 3.1 2.5 7.3 8.6 11.2 10.0 10.2 13.5 7.7 8.1 17.5 4.9 5.3 3.9 4.1 3.0 2.5 1.3 1.3 1.0 0.8 0.0 1.0 2.6 16.7 6.0 5.2 nan 1.9 2.1 2.9 2.4 1.9 1.2
4.8 3.3 3.1 3.5 5.3 5.1 10.2 16.7 14.2 13.8 10.3 7.4 14.6 20.9 18.0 8.5 7.7 6.1 7.4 7.2 2.3 2.4 1.3 0.8 0.5 0.5 1.2 2.1 3.2 7.8 3.1 3.7 nan nan nan nan 3.1 4.1
8.6 4.4 6.2 8.0 9.8 10.4 5.2 10.1 4.5 8.8 8.0 8.2 7.3 7.6 33.9 9.6 5.6 5.7 6.0 4.2 2.5 2.6 1.7 1.8 0.8 0.6 1.1 1.4 2.3 3.5 1.8 4.4 2.2 2.2 4.0 nan nan nan

GFSNE_prec_sndepth_054.txt.gz
Snowfall_Accumulation
0.0 0.0 0.0 0.0 0.0 0.0 0.0 0.0 0.2 0.4 0.0 0.0 0.0 0.0 0.0 0.0 0.0 0.0 0.0 nan nan nan nan nan nan nan nan nan nan nan nan nan nan nan nan nan nan nan
0.0 0.0 0.0 0.0 0.0 0.0 0.0 0.0 0.0 0.1 0.3 0.0 0.0 0.0 0.0 0.0 0.0 0.0 0.0 nan nan nan nan nan nan nan nan nan nan nan nan nan nan nan nan nan nan nan
0.0 0.0 0.0 0.0 0.0 0.0 0.0 0.0 0.0 0.0 0.0 0.0 0.0 0.0 0.0 0.0 0.0 0.0 0.0 0.0 0.0 nan nan nan nan nan nan nan nan nan nan nan nan nan nan nan nan nan
0.0 0.0 0.0 0.0 0.0 0.0 0.0 0.0 0.0 0.0 0.0 0.0 0.0 0.0 0.0 0.0 0.0 0.0 0.0 0.0 0.0 nan nan nan nan nan nan nan nan nan nan nan nan nan nan nan nan nan
0.0 0.0 0.0 0.0 0.0 0.0 0.0 0.0 0.0 0.0 0.0 0.0 0.0 0.0 0.0 0.0 0.0 0.0 0.0 0.0 0.0 nan nan nan nan nan nan nan nan nan nan nan nan nan nan nan nan nan
0.0 0.0 0.0 0.0 0.0 0.0 0.0 0.0 0.0 0.0 0.0 0.0 0.0 0.0 0.0 0.0 0.0 0.0 0.0 0.0 0.0 0.0 nan nan nan nan nan nan nan nan nan nan nan nan nan nan nan nan
0.0 0.0 0.0 nan nan nan 0.0 0.0 0.0 0.0 0.0 0.0 0.0 0.0 0.0 0.0 0.0 0.0 0.0 0.0 0.0 0.0 0.0 0.0 0.0 0.0 0.0 nan nan nan nan nan nan nan nan nan nan nan
0.0 0.0 0.0 0.0 0.0 nan nan nan nan 0.0 0.0 0.1 0.0 0.0 0.0 0.0 0.0 0.1 0.2 0.1 0.4 0.0 0.0 0.0 0.0 0.0 0.0 0.0 nan nan nan nan nan nan nan nan nan nan
0.0 0.0 0.0 0.0 nan 0.0 nan nan nan nan nan 0.0 0.0 0.0 0.0 0.0 0.1 0.1 0.1 0.0 0.2 0.0 0.1 0.1 0.0 0.0 0.0 0.0 nan nan nan nan nan nan nan nan nan nan
0.0 0.0 0.0 0.0 0.0 0.0 0.0 0.0 0.0 0.0 0.0 0.0 0.0 0.0 0.0 0.0 0.0 0.0 0.1 0.1 0.1 0.1 0.1 1.3 0.2 0.4 0.0 0.0 nan nan nan nan nan nan nan nan nan nan
0.0 0.0 0.0 0.0 nan nan 0.0 0.0 0.0 0.0 nan nan nan nan nan nan nan 0.5 1.1 1.5 2.5 0.0 0.0 0.3 0.3 0.5 0.4 0.2 0.2 nan nan nan nan nan nan nan nan nan
0.0 0.0 nan 0.0 nan nan 0.1 0.0 0.1 0.0 0.0 0.0 0.0 0.0 nan nan nan 0.0 0.3 3.2 2.6 1.8 0.2 1.2 0.0 0.5 0.9 0.3 0.3 0.3 0.3 nan nan nan nan nan nan 0.0
0.4 0.3 0.2 nan nan nan nan 0.1 0.2 0.0 0.1 0.2 0.0 0.0 0.0 0.0 0.0 0.0 0.0 0.5 2.2 1.5 0.2 1.5 0.5 0.4 0.8 0.8 0.5 0.6 0.7 0.5 0.3 0.0 nan nan nan 0.0
0.3 0.4 0.5 nan nan nan 0.1 nan nan 0.3 2.4 2.5 1.7 1.0 0.7 0.5 0.0 0.0 0.0 0.0 0.1 0.2 0.1 0.5 2.5 0.7 1.4 1.4 1.6 0.5 0.5 0.5 0.4 0.2 0.7 nan nan nan
1.0 0.8 nan nan nan 0.1 nan nan 0.0 2.4 3.5 4.7 2.8 1.4 0.7 0.2 0.0 0.6 0.5 0.5 0.3 0.1 0.1 0.2 0.8 0.1 0.7 1.3 1.0 0.8 0.9 0.4 0.9 0.5 1.2 1.6 1.6 2.1
0.1 0.9 0.0 0.7 0.0 0.4 0.7 1.1 1.5 1.7 2.5 3.4 2.2 1.0 0.9 1.5 1.7 0.8 1.6 1.5 1.8 0.9 0.1 0.5 0.1 0.1 1.3 0.6 0.5 1.0 0.7 1.1 0.5 0.6 1.2 2.1 2.0 3.9
1.8 3.8 2.4 1.8 1.7 1.4 1.5 1.6 1.6 1.8 2.7 3.0 3.2 2.4 2.1 1.8 1.9 1.6 1.8 1.8 3.1 2.4 2.6 0.9 0.1 0.1 0.5 0.1 2.5 0.6 0.8 0.7 0.6 0.9 2.0 3.6 4.6 4.9
2.9 3.5 6.0 6.3 3.7 1.7 2.9 2.7 2.7 2.4 2.2 3.0 4.4 3.0 2.9 3.2 2.2 2.0 1.9 2.1 2.2 1.5 1.2 1.0 2.0 1.6 1.2 1.0 0.9 1.0 0.6 0.8 0.7 0.7 1.6 3.5 2.8 4.2
5.2 3.5 7.5 8.5 4.6 1.8 2.4 2.7 4.0 3.7 1.7 3.3 3.9 4.6 4.7 3.8 4.5 3.3 3.6 3.1 2.9 1.3 0.9 1.1 1.6 3.9 7.1 9.7 1.1 nan 2.3 1.2 2.0 2.3 1.3 2.1 3.8 3.8
2.1 3.6 5.3 5.0 2.4 1.9 1.9 2.4 2.8 4.2 4.6 4.0 5.8 7.9 9.5 6.8 6.1 4.5 3.8 5.0 2.8 1.4 1.1 0.7 1.0 1.0 2.9 10.0 11.4 4.9 nan 3.9 3.3 3.7 2.4 1.5 2.0 nan
2.2 1.8 4.3 3.8 3.1 2.5 7.3 8.6 11.3 10.0 10.2 13.5 7.7 8.2 17.5 5.1 5.4 4.4 5.0 3.4 2.8 1.5 1.5 1.0 0.8 0.0 1.0 2.6 16.6 6.0 5.2 nan 1.9 2.0 2.9 2.4 2.0 1.2
4.8 3.3 3.1 3.5 5.3 5.1 10.2 16.7 14.2 13.8 10.3 7.4 14.6 20.9 17.9 8.5 8.1 6.6 7.9 7.6 2.4 2.6 1.4 0.8 0.6 0.7 1.2 2.1 3.2 7.8 3.1 3.8 nan nan nan nan 3.1 4.1
8.6 4.4 6.2 8.0 9.8 10.4 5.2 10.1 4.5 8.9 8.0 8.2 7.3 7.6 33.8 9.7 5.7 6.0 6.5 4.6 2.7 2.6 1.7 2.0 1.2 0.8 1.1 1.4 2.3 3.5 1.8 4.4 2.2 2.3 4.0 nan nan nan

GFSNE_prec_sndepth_057.txt.gz
Snowfall_Accumulation
0.0 0.0 0.0 0.0 0.0 0.0 0.0 0.0 0.2 0.4 0.0 0.0 0.0 0.0 0.0 0.0 0.0 0.0 0.0 nan nan nan nan nan nan nan nan nan nan nan nan nan nan nan nan nan nan nan
0.0 0.0 0.0 0.0 0.0 0.0 0.0 0.0 0.0 0.1 0.2 0.0 0.0 0.0 0.0 0.0 0.0 0.0 0.0 nan nan nan nan nan nan nan nan nan nan nan nan nan nan nan nan nan nan nan
0.0 0.0 0.0 0.0 0.0 0.0 0.0 0.0 0.0 0.0 0.0 0.0 0.0 0.0 0.0 0.0 0.0 0.0 0.0 0.0 0.0 nan nan nan nan nan nan nan nan nan nan nan nan nan nan nan nan nan
0.0 0.0 0.0 0.0 0.0 0.0 0.0 0.0 0.0 0.0 0.0 0.0 0.0 0.0 0.0 0.0 0.0 0.0 0.0 0.0 0.0 nan nan nan nan nan nan nan nan nan nan nan nan nan nan nan nan nan
0.0 0.0 0.0 0.0 0.0 0.0 0.0 0.0 0.0 0.0 0.0 0.0 0.0 0.0 0.0 0.0 0.0 0.0 0.0 0.0 0.0 nan nan nan nan nan nan nan nan nan nan nan nan nan nan nan nan nan
0.0 0.0 0.0 0.0 0.0 0.0 0.0 0.0 0.0 0.0 0.0 0.0 0.0 0.0 0.0 0.0 0.0 0.0 0.0 0.0 0.0 0.0 nan nan nan nan nan nan nan nan nan nan nan nan nan nan nan nan
0.0 0.0 0.0 nan nan nan 0.0 0.0 0.0 0.0 0.0 0.0 0.0 0.0 0.0 0.0 0.0 0.0 0.0 0.0 0.0 0.0 0.0 0.0 0.0 0.0 0.0 nan nan nan nan nan nan nan nan nan nan nan
0.0 0.0 0.0 0.0 0.0 nan nan nan nan 0.0 0.0 0.1 0.0 0.0 0.0 0.0 0.0 0.1 0.2 0.1 0.4 0.0 0.0 0.0 0.0 0.0 0.0 0.0 nan nan nan nan nan nan nan nan nan nan
0.0 0.0 0.0 0.0 nan 0.0 nan nan nan nan nan 0.0 0.0 0.0 0.0 0.0 0.2 0.1 0.1 0.1 0.3 0.0 0.1 0.2 0.0 0.0 0.0 0.0 nan nan nan nan nan nan nan nan nan nan
0.0 0.0 0.0 0.0 0.0 0.0 0.0 0.0 0.0 0.0 0.0 0.0 0.0 0.0 0.0 0.0 0.0 0.0 0.1 0.1 0.1 0.1 0.1 1.4 0.2 0.4 0.0 0.1 nan nan nan nan nan nan nan nan nan nan
0.0 0.0 0.0 0.0 nan nan 0.0 0.0 0.0 0.0 nan nan nan nan nan nan nan 0.5 1.1 1.5 2.5 0.1 0.0 0.5 0.5 0.6 0.4 0.3 0.2 nan nan nan nan nan nan nan nan nan
0.0 0.0 nan 0.0 nan nan 0.1 0.0 0.1 0.0 0.0 0.0 0.0 0.0 nan nan nan 0.0 0.3 3.4 2.7 1.9 0.2 1.3 0.0 0.5 1.1 0.3 0.3 0.3 0.3 nan nan nan nan nan nan 0.0
0.4 0.3 0.2 nan nan nan nan 0.1 0.2 0.0 0.1 0.2 0.0 0.0 0.0 0.0 0.0 0.0 0.0 0.6 2.4 1.7 0.2 1.9 0.7 0.6 1.4 0.8 0.5 0.6 0.7 0.5 0.3 0.0 nan nan nan 0.0
0.3 0.4 0.5 nan nan nan 0.1 nan nan 0.3 2.4 2.5 1.7 1.0 0.7 0.5 0.0 0.0 0.0 0.0 0.1 0.3 0.1 1.0 3.6 1.4 2.2 1.9 1.6 0.5 0.5 0.5 0.4 0.2 0.7 nan nan nan
1.0 0.8 nan nan nan 0.1 nan nan 0.0 2.4 3.5 4.7 2.8 1.4 0.7 0.2 0.0 0.6 0.5 0.4 0.3 0.1 0.1 0.6 1.4 0.7 1.0 1.3 1.0 0.8 0.9 0.4 0.9 0.5 1.2 1.6 1.6 2.1
0.1 0.9 0.0 0.7 0.0 0.4 0.7 1.1 1.5 1.7 2.5 3.4 2.1 1.0 0.9 1.4 1.7 0.8 1.7 1.6 2.1 1.0 0.1 0.5 0.8 1.0 1.7 0.6 0.5 1.0 0.7 1.1 0.5 0.6 1.2 2.1 2.0 3.9
1.8 3.8 2.4 1.8 1.7 1.3 1.5 1.6 1.6 1.8 2.7 3.0 3.2 2.4 2.1 1.8 1.9 1.6 1.8 2.1 3.5 2.5 2.6 0.9 0.1 0.2 0.5 0.2 2.6 0.6 0.8 0.7 0.6 0.9 2.0 3.6 4.7 4.9
2.9 3.5 6.0 6.3 3.7 1.7 2.9 2.7 2.7 2.3 2.2 3.0 4.4 3.0 2.9 3.2 2.2 2.0 1.8 2.2 2.5 1.5 1.2 1.0 2.0 1.9 1.4 1.1 0.9 1.0 0.6 0.8 0.7 0.7 1.6 3.5 2.8 4.2
5.2 3.5 7.5 8.5 4.6 1.8 2.4 2.7 4.0 3.7 1.7 3.3 3.9 4.6 4.7 3.8 4.5 3.3 3.5 3.2 3.1 1.5 1.0 1.2 1.7 4.1 7.2 9.8 1.1 nan 2.3 1.2 2.0 2.3 1.3 2.1 3.9 3.8
2.1 3.6 5.3 5.0 2.4 1.9 1.9 2.4 2.8 4.2 4.6 4.0 5.8 7.9 9.5 6.8 6.1 4.6 3.8 5.3 3.0 1.6 1.2 0.8 1.3 1.4 3.0 10.0 11.4 4.9 nan 3.9 3.3 3.7 2.4 1.5 2.0 nan
2.2 1.9 4.3 3.8 3.1 2.5 7.3 8.6 11.2 9.9 10.2 13.5 7.7 8.2 17.4 5.1 5.4 4.5 5.1 3.6 3.1 1.9 1.7 1.2 0.9 0.1 1.7 2.8 16.6 6.0 5.2 nan 1.9 2.0 2.9 2.4 2.0 1.2
4.8 3.3 3.1 3.4 5.3 5.1 10.2 16.7 14.2 13.8 10.3 7.5 14.6 20.9 17.9 8.6 8.1 6.7 7.9 7.9 2.9 3.2 1.7 0.9 0.6 0.9 1.4 2.1 3.2 7.8 3.1 3.7 nan nan nan nan 3.1 4.1
8.7 4.4 6.2 8.0 9.8 10.4 5.2 10.1 4.5 8.9 8.0 8.2 7.3 7.6 33.8 9.7 5.7 6.0 6.5 4.7 3.0 2.9 2.1 2.1 1.2 1.0 1.2 1.5 2.3 3.5 1.8 4.4 2.2 2.3 4.1 nan nan nan

GFSNE_prec_sndepth_060.txt.gz
Snowfall_Accumulation
0.0 0.0 0.0 0.0 0.0 0.0 0.0 0.0 0.2 0.4 0.0 0.0 0.0 0.0 0.0 0.0 0.0 0.0 0.0 nan nan nan nan nan nan nan nan nan nan nan nan nan nan nan nan nan nan nan
0.0 0.0 0.0 0.0 0.0 0.0 0.0 0.0 0.0 0.1 0.2 0.0 0.0 0.0 0.0 0.0 0.0 0.0 0.0 nan nan nan nan nan nan nan nan nan nan nan nan nan nan nan nan nan nan nan
0.0 0.0 0.0 0.0 0.0 0.0 0.0 0.0 0.0 0.0 0.0 0.0 0.0 0.0 0.0 0.0 0.0 0.0 0.0 0.0 0.0 nan nan nan nan nan nan nan nan nan nan nan nan nan nan nan nan nan
0.0 0.0 0.0 0.0 0.0 0.0 0.0 0.0 0.0 0.0 0.0 0.0 0.0 0.0 0.0 0.0 0.0 0.0 0.0 0.0 0.0 nan nan nan nan nan nan nan nan nan nan nan nan nan nan nan nan nan
0.0 0.0 0.0 0.0 0.0 0.0 0.0 0.0 0.0 0.0 0.0 0.0 0.0 0.0 0.0 0.0 0.0 0.0 0.0 0.0 0.0 nan nan nan nan nan nan nan nan nan nan nan nan nan nan nan nan nan
0.0 0.0 0.0 0.0 0.0 0.0 0.0 0.0 0.0 0.0 0.0 0.0 0.0 0.0 0.0 0.0 0.0 0.0 0.0 0.0 0.0 0.0 nan nan nan nan nan nan nan nan nan nan nan nan nan nan nan nan
0.0 0.0 0.0 nan nan nan 0.0 0.0 0.0 0.0 0.0 0.0 0.0 0.0 0.0 0.0 0.0 0.0 0.0 0.0 0.0 0.0 0.0 0.0 0.0 0.0 0.0 nan nan nan nan nan nan nan nan nan nan nan
0.0 0.0 0.0 0.0 0.0 nan nan nan nan 0.0 0.0 0.1 0.0 0.0 0.0 0.0 0.0 0.1 0.2 0.1 0.4 0.0 0.0 0.0 0.0 0.0 0.0 0.0 nan nan nan nan nan nan nan nan nan nan
0.0 0.0 0.0 0.0 nan 0.0 nan nan nan nan nan 0.0 0.0 0.0 0.0 0.0 0.2 0.1 0.1 0.1 0.3 0.0 0.1 0.2 0.0 0.0 0.0 0.0 nan nan nan nan nan nan nan nan nan nan
0.0 0.0 0.0 0.0 0.0 0.0 0.0 0.0 0.0 0.0 0.0 0.0 0.0 0.0 0.0 0.0 0.0 0.0 0.1 0.1 0.1 0.1 0.1 1.5 0.2 0.4 0.0 0.1 nan nan nan nan nan nan nan nan nan nan
0.0 0.0 0.0 0.0 nan nan 0.0 0.0 0.0 0.0 nan nan nan nan nan nan nan 0.5 1.1 1.5 2.5 0.1 0.0 0.5 0.5 0.6 0.4 0.3 0.2 nan nan nan nan nan nan nan nan nan
0.0 0.0 nan 0.0 nan nan 0.1 0.0 0.1 0.0 0.0 0.0 0.0 0.0 nan nan nan 0.0 0.4 3.5 2.7 1.9 0.2 1.3 0.0 0.7 1.2 0.3 0.3 0.3 0.3 nan nan nan nan nan nan 0.0
0.4 0.3 0.2 nan nan nan nan 0.1 0.2 0.0 0.0 0.2 0.0 0.0 0.0 0.0 0.0 0.0 0.0 0.6 2.5 1.7 0.2 2.0 0.7 0.6 1.5 0.9 0.5 0.6 0.7 0.5 0.3 0.0 nan nan nan 0.0
0.3 0.4 0.5 nan nan nan 0.1 nan nan 0.3 2.4 2.5 1.7 1.0 0.7 0.5 0.0 0.0 0.0 0.0 0.1 0.4 0.1 0.9 4.4 1.6 2.4 2.4 2.2 0.5 0.5 0.5 0.4 0.2 0.6 nan nan nan
1.0 0.8 nan nan nan 0.1 nan nan 0.0 2.4 3.5 4.7 2.8 1.4 0.7 0.2 0.0 0.6 0.5 0.4 0.3 0.1 0.1 0.5 1.6 0.9 1.4 1.7 1.2 0.9 0.8 0.4 0.9 0.5 1.2 1.6 1.6 2.1
0.1 0.9 0.0 0.7 0.0 0.4 0.7 1.1 1.5 1.7 2.4 3.4 2.1 1.0 0.8 1.4 1.7 0.8 1.7 1.5 2.1 1.0 0.1 0.5 0.9 1.2 2.0 0.9 0.9 1.2 0.7 1.1 0.5 0.6 1.2 2.1 2.0 3.9
1.9 3.8 2.4 1.8 1.7 1.3 1.5 1.6 1.6 1.7 2.6 3.0 3.1 2.4 2.0 1.8 1.9 1.5 1.8 2.1 3.5 2.5 2.7 0.9 0.2 0.4 0.6 0.3 2.8 0.7 0.8 0.8 0.6 0.9 2.0 3.6 4.6 4.9
2.9 3.5 5.9 6.3 3.7 1.7 2.9 2.7 2.7 2.3 2.2 3.0 4.4 3.0 2.9 3.2 2.2 2.0 1.8 2.2 2.5 1.5 1.2 1.0 2.3 2.4 1.6 1.1 1.0 1.0 0.6 0.8 0.7 0.7 1.6 3.5 2.8 4.2
5.2 3.5 7.5 8.5 4.6 1.8 2.4 2.7 4.0 3.7 1.7 3.3 3.9 4.6 4.7 3.8 4.4 3.3 3.5 3.2 3.1 1.5 1.0 1.3 2.2 4.8 7.7 9.8 1.1 nan 2.3 1.2 2.0 2.3 1.3 2.1 3.8 3.8
2.2 3.7 5.3 5.0 2.5 1.9 1.9 2.4 2.8 4.2 4.5 4.0 5.8 7.9 9.5 6.9 6.2 4.6 3.8 5.4 3.0 1.6 1.3 0.8 1.7 2.0 4.1 10.3 11.5 4.9 nan 3.9 3.3 3.7 2.4 1.5 2.0 nan
2.6 2.3 4.6 4.1 3.3 2.6 7.4 8.6 11.2 9.9 10.2 13.5 7.7 8.2 17.4 5.1 5.5 4.5 5.1 3.6 3.1 2.0 1.8 1.2 1.0 0.2 2.3 3.6 17.3 6.0 5.2 nan 1.9 2.0 2.9 2.4 2.0 1.2
5.2 3.7 3.6 3.7 5.5 5.1 10.2 16.7 14.2 13.8 10.3 7.5 14.6 20.8 17.9 8.6 8.2 6.7 8.0 8.0 2.9 3.2 1.8 0.9 0.7 1.2 1.9 2.5 3.3 7.8 3.1 3.7 nan nan nan nan 3.1 4.1
9.0 4.7 6.4 8.1 9.8 10.4 5.2 10.1 4.5 8.9 8.0 8.2 7.3 7.6 33.7 9.7 5.7 6.1 6.5 4.7 3.0 2.9 2.2 2.3 1.5 1.3 1.4 1.7 2.6 3.8 1.8 4.4 2.2 2.3 4.1 nan nan nan

GFSNE_prec_sndepth_063.txt.gz
Snowfall_Accumulation
0.0 0.0 0.0 0.0 0.0 0.0 0.0 0.0 0.1 0.3 0.0 0.0 0.0 0.0 0.0 0.0 0.0 0.0 0.0 nan nan nan nan nan nan nan nan nan nan nan nan nan nan nan nan nan nan nan
0.0 0.0 0.0 0.0 0.0 0.0 0.0 0.0 0.0 0.1 0.2 0.0 0.0 0.0 0.0 0.0 0.0 0.0 0.0 nan nan nan nan nan nan nan nan nan nan nan nan nan nan nan nan nan nan nan
0.0 0.0 0.0 0.0 0.0 0.0 0.0 0.0 0.0 0.0 0.0 0.0 0.0 0.0 0.0 0.0 0.0 0.0 0.0 0.0 0.0 nan nan nan nan nan nan nan nan nan nan nan nan nan nan nan nan nan
0.0 0.0 0.0 0.0 0.0 0.0 0.0 0.0 0.0 0.0 0.0 0.0 0.0 0.0 0.0 0.0 0.0 0.0 0.0 0.0 0.0 nan nan nan nan nan nan nan nan nan nan nan nan nan nan nan nan nan
0.0 0.0 0.0 0.0 0.0 0.0 0.0 0.0 0.0 0.0 0.0 0.0 0.0 0.0 0.0 0.0 0.0 0.0 0.0 0.0 0.0 nan nan nan nan nan nan nan nan nan nan nan nan nan nan nan nan nan
0.0 0.0 0.0 0.0 0.0 0.0 0.0 0.0 0.0 0.0 0.0 0.0 0.0 0.0 0.0 0.0 0.0 0.0 0.0 0.0 0.0 0.0 nan nan nan nan nan nan nan nan nan nan nan nan nan nan nan nan
0.0 0.0 0.0 nan nan nan 0.0 0.0 0.0 0.0 0.0 0.0 0.0 0.0 0.0 0.0 0.0 0.0 0.0 0.0 0.0 0.0 0.0 0.0 0.0 0.0 0.0 nan nan nan nan nan nan nan nan nan nan nan
0.0 0.0 0.0 0.0 0.0 nan nan nan nan 0.0 0.0 0.1 0.0 0.0 0.0 0.0 0.0 0.1 0.1 0.1 0.3 0.0 0.0 0.0 0.0 0.0 0.0 0.0 nan nan nan nan nan nan nan nan nan nan
0.0 0.0 0.0 0.0 nan 0.0 nan nan nan nan nan 0.0 0.0 0.0 0.0 0.0 0.1 0.1 0.0 0.1 0.2 0.0 0.1 0.1 0.0 0.0 0.0 0.0 nan nan nan nan nan nan nan nan nan nan
0.0 0.0 0.0 0.0 0.0 0.0 0.0 0.0 0.0 0.0 0.0 0.0 0.0 0.0 0.0 0.0 0.0 0.0 0.1 0.1 0.1 0.1 0.1 1.3 0.1 0.3 0.0 0.0 nan nan nan nan nan nan nan nan nan nan
0.0 0.0 0.0 0.0 nan nan 0.0 0.0 0.0 0.0 nan nan nan nan nan nan nan 0.5 1.0 1.4 2.3 0.0 0.0 0.4 0.4 0.5 0.3 0.2 0.2 nan nan nan nan nan nan nan nan nan
0.0 0.0 nan 0.0 nan nan 0.1 0.0 0.1 0.0 0.0 0.0 0.0 0.0 nan nan nan 0.0 0.3 3.2 2.5 1.8 0.2 1.1 0.0 0.6 1.2 0.2 0.3 0.2 0.3 nan nan nan nan nan nan 0.0
0.4 0.3 0.2 nan nan nan nan 0.1 0.2 0.0 0.0 0.2 0.0 0.0 0.0 0.0 0.0 0.0 0.0 0.6 2.4 1.6 0.2 1.7 0.6 0.5 1.5 0.8 0.4 0.5 0.5 0.4 0.3 0.0 nan nan nan 0.0
0.3 0.4 0.5 nan nan nan 0.1 nan nan 0.3 2.3 2.4 1.7 1.0 0.7 0.5 0.0 0.0 0.0 0.0 0.1 0.4 0.1 0.8 4.6 1.4 2.2 2.2 1.9 0.4 0.4 0.4 0.4 0.2 0.5 nan nan nan
1.0 0.8 nan nan nan 0.1 nan nan 0.0 2.4 3.4 4.6 2.7 1.4 0.7 0.2 0.0 0.6 0.5 0.3 0.2 0.1 0.1 0.4 1.6 0.7 1.6 1.7 1.1 0.8 0.8 0.4 0.7 0.4 0.9 1.3 1.3 1.7
0.1 0.9 0.0 0.8 0.0 0.4 0.7 1.1 1.4 1.7 2.4 3.3 2.1 0.9 0.8 1.4 1.7 0.8 1.6 1.5 2.0 0.9 0.1 0.4 0.7 1.1 2.4 1.0 0.9 1.2 0.7 1.1 0.4 0.5 1.0 1.7 1.7 3.2
1.9 3.8 2.4 1.8 1.6 1.3 1.5 1.5 1.5 1.7 2.6 3.0 3.1 2.3 2.0 1.8 1.8 1.5 1.8 2.0 3.4 2.4 2.6 0.8 0.2 0.3 0.6 0.3 2.8 0.6 0.8 0.8 0.5 0.8 1.7 3.0 3.9 4.0
2.9 3.5 5.9 6.3 3.7 1.7 2.8 2.7 2.6 2.3 2.2 3.0 4.4 3.0 2.8 3.1 2.1 2.0 1.8 2.2 2.5 1.5 1.2 1.0 2.3 2.3 1.5 1.0 0.9 0.9 0.6 0.7 0.6 0.6 1.4 3.1 2.4 3.4
5.4 3.6 7.5 8.5 4.7 1.9 2.5 2.8 4.2 3.8 1.7 3.2 3.8 4.5 4.7 3.8 4.4 3.3 3.5 3.2 3.0 1.4 0.9 1.3 2.2 4.8 8.0 9.9 1.0 nan 2.1 1.1 1.7 2.0 1.1 1.8 3.3 3.1
2.2 3.7 5.5 5.1 2.7 2.0 2.0 2.5 2.8 4.2 4.5 4.0 5.8 7.9 9.4 6.8 6.1 4.5 3.8 5.3 3.0 1.6 1.2 0.8 1.6 2.1 4.5 10.7 11.7 4.5 nan 3.5 2.9 3.2 2.0 1.3 1.7 nan
2.7 2.4 4.7 4.2 3.4 2.7 7.5 8.7 11.3 9.9 10.2 13.4 7.7 8.1 17.3 5.1 5.4 4.4 5.1 3.5 3.1 1.9 1.7 1.2 0.9 0.2 2.5 3.9 17.5 6.0 4.7 nan 1.5 1.7 2.4 2.2 1.7 1.0
5.4 3.9 3.8 3.9 5.6 5.3 10.4 16.8 14.1 13.7 10.2 7.4 14.5 20.7 17.8 8.5 8.2 6.7 7.9 7.9 2.9 3.2 1.8 0.9 0.6 1.1 2.0 3.0 3.5 7.9 3.0 3.3 nan nan nan nan 2.7 3.7
9.1 4.8 6.5 8.3 10.0 10.4 5.1 10.0 4.4 8.8 8.0 8.1 7.2 7.6 33.5 9.7 5.7 6.1 6.5 4.7 3.0 2.9 2.2 2.3 1.5 1.3 1.5 2.0 2.9 4.1 2.4 4.4 2.0 2.1 3.6 nan nan nan

GFSNE_prec_sndepth_066.txt.gz
Snowfall_Accumulation
0.0 0.0 0.0 0.0 0.0 0.0 0.0 0.0 0.1 0.3 0.0 0.0 0.0 0.0 0.0 0.0 0.0 0.0 0.0 nan nan nan nan nan nan nan nan nan nan nan nan nan nan nan nan nan nan nan
0.0 0.0 0.0 0.0 0.0 0.0 0.0 0.0 0.0 0.0 0.2 0.0 0.0 0.0 0.0 0.0 0.0 0.0 0.0 nan nan nan nan nan nan nan nan nan nan nan nan nan nan nan nan nan nan nan
0.0 0.0 0.0 0.0 0.0 0.0 0.0 0.0 0.0 0.0 0.0 0.0 0.0 0.0 0.0 0.0 0.0 0.0 0.0 0.0 0.0 nan nan nan nan nan nan nan nan nan nan nan nan nan nan nan nan nan
0.0 0.0 0.0 0.0 0.0 0.0 0.0 0.0 0.0 0.0 0.0 0.0 0.0 0.0 0.0 0.0 0.0 0.0 0.0 0.0 0.0 nan nan nan nan nan nan nan nan nan nan nan nan nan nan nan nan nan
0.0 0.0 0.0 0.0 0.0 0.0 0.0 0.0 0.0 0.0 0.0 0.0 0.0 0.0 0.0 0.0 0.0 0.0 0.0 0.0 0.0 nan nan nan nan nan nan nan nan nan nan nan nan nan nan nan nan nan
0.0 0.0 0.0 0.0 0.0 0.0 0.0 0.0 0.0 0.0 0.0 0.0 0.0 0.0 0.0 0.0 0.0 0.0 0.0 0.0 0.0 0.0 nan nan nan nan nan nan nan nan nan nan nan nan nan nan nan nan
0.0 0.0 0.0 nan nan nan 0.0 0.0 0.0 0.0 0.0 0.0 0.0 0.0 0.0 0.0 0.0 0.0 0.0 0.0 0.0 0.0 0.0 0.0 0.0 0.0 0.0 nan nan nan nan nan nan nan nan nan nan nan
0.0 0.0 0.0 0.0 0.0 nan nan nan nan 0.0 0.0 0.1 0.0 0.0 0.0 0.0 0.0 0.0 0.1 0.0 0.2 0.0 0.0 0.0 0.0 0.0 0.0 0.0 nan nan nan nan nan nan nan nan nan nan
0.0 0.0 0.0 0.0 nan 0.0 nan nan nan nan nan 0.0 0.0 0.0 0.0 0.0 0.1 0.0 0.0 0.0 0.1 0.0 0.0 0.1 0.0 0.0 0.0 0.0 nan nan nan nan nan nan nan nan nan nan
0.0 0.0 0.0 0.0 0.0 0.0 0.0 0.0 0.0 0.0 0.0 0.0 0.0 0.0 0.0 0.0 0.0 0.0 0.0 0.0 0.1 0.0 0.0 1.0 0.1 0.2 0.0 0.0 nan nan nan nan nan nan nan nan nan nan
0.0 0.0 0.0 0.0 nan nan 0.1 0.1 0.1 0.0 nan nan nan nan nan nan nan 0.4 0.8 1.1 1.8 0.0 0.0 0.3 0.3 0.4 0.2 0.1 0.1 nan nan nan nan nan nan nan nan nan
0.0 0.1 nan 0.2 nan nan 0.4 0.2 0.2 0.0 0.0 0.0 0.0 0.0 nan nan nan 0.0 0.3 2.6 2.0 1.4 0.1 0.8 0.0 0.4 0.9 0.1 0.2 0.2 0.2 nan nan nan nan nan nan 0.0
0.8 1.0 1.0 nan nan nan nan 0.1 0.1 0.0 0.0 0.2 0.0 0.0 0.0 0.0 0.0 0.0 0.0 0.5 1.9 1.3 0.1 1.3 0.5 0.4 1.1 0.6 0.3 0.4 0.4 0.3 0.2 0.0 nan nan nan 0.0
0.7 0.9 0.8 nan nan nan 0.1 nan nan 0.2 2.0 2.0 1.4 0.9 0.6 0.4 0.0 0.0 0.0 0.0 0.0 0.2 0.0 0.5 3.9 1.1 1.9 1.8 1.5 0.3 0.3 0.3 0.3 0.1 0.4 nan nan nan
1.3 1.1 nan nan nan 0.1 nan nan 0.0 2.2 3.1 4.0 2.4 1.2 0.6 0.1 0.0 0.5 0.3 0.2 0.1 0.1 0.0 0.2 1.4 0.4 1.3 1.5 1.0 0.7 0.6 0.3 0.5 0.4 0.7 1.0 1.0 1.3
0.3 0.9 0.0 0.7 0.0 0.5 0.8 0.9 1.3 1.5 2.1 2.8 1.8 0.8 0.7 1.3 1.5 0.7 1.5 1.3 1.8 0.8 0.0 0.2 0.4 0.6 2.0 0.9 0.8 1.0 0.5 1.0 0.4 0.4 0.8 1.3 1.2 2.3
2.1 3.9 2.4 1.8 1.4 1.2 1.4 1.4 1.3 1.4 2.2 2.6 2.9 2.2 1.9 1.7 1.7 1.4 1.6 1.9 3.3 2.3 2.3 0.7 0.1 0.2 0.5 0.2 2.4 0.5 0.7 0.7 0.5 0.7 1.3 2.3 2.9 2.8
2.8 3.4 5.7 5.9 3.3 1.5 2.4 2.3 2.2 2.0 2.0 2.8 4.2 2.9 2.8 3.0 2.0 1.9 1.7 2.0 2.4 1.4 1.1 0.8 1.9 1.9 1.2 0.8 0.7 0.8 0.5 0.6 0.5 0.5 1.1 2.6 1.9 2.4
5.2 3.4 7.3 7.9 4.2 1.7 2.3 2.6 3.8 3.6 1.5 3.1 3.8 4.4 4.6 3.7 4.3 3.2 3.4 3.1 2.9 1.3 0.8 1.1 1.8 4.3 7.9 9.8 0.8 nan 2.0 0.9 1.4 1.7 0.9 1.5 2.6 2.3
2.1 3.5 5.3 5.0 2.4 1.8 1.8 2.2 2.6 4.2 4.5 3.9 5.7 7.8 9.3 6.7 6.0 4.4 3.6 5.2 2.9 1.4 1.1 0.7 1.3 1.8 4.5 10.6 11.7 3.9 nan 3.0 2.8 2.8 1.7 1.0 1.2 nan
2.5 2.3 4.6 4.1 3.3 2.5 7.4 8.6 11.2 9.9 10.1 13.3 7.6 8.1 17.2 5.0 5.3 4.3 4.9 3.5 3.1 1.8 1.6 1.1 0.8 0.2 2.2 3.7 17.6 5.5 3.9 nan 1.0 1.5 1.6 1.8 1.4 0.8
5.3 3.9 3.7 3.9 5.6 5.3 10.3 16.7 14.0 13.6 10.1 7.3 14.4 20.6 17.7 8.5 8.1 6.6 7.8 7.8 2.9 3.1 1.8 0.8 0.5 0.9 1.8 3.1 3.5 7.8 2.7 3.1 nan nan nan nan 2.2 3.2
9.0 4.8 6.5 8.2 9.9 10.3 5.0 9.9 4.4 8.7 7.9 8.1 7.1 7.5 33.3 9.7 5.7 6.0 6.5 4.7 3.0 2.9 2.2 2.3 1.4 1.2 1.4 2.0 3.0 4.1 2.4 4.4 2.0 1.9 2.9 nan nan nan

GFSNE_prec_sndepth_069.txt.gz
Snowfall_Accumulation
0.0 0.0 0.0 0.0 0.0 0.0 0.0 0.0 0.1 0.2 0.0 0.0 0.0 0.0 0.0 0.0 0.0 0.0 0.0 nan nan nan nan nan nan nan nan nan nan nan nan nan nan nan nan nan nan nan
0.0 0.0 0.0 0.0 0.0 0.0 0.0 0.0 0.0 0.0 0.1 0.0 0.0 0.0 0.0 0.0 0.0 0.0 0.0 nan nan nan nan nan nan nan nan nan nan nan nan nan nan nan nan nan nan nan
0.0 0.0 0.0 0.0 0.0 0.0 0.0 0.0 0.0 0.0 0.0 0.0 0.0 0.0 0.0 0.0 0.0 0.0 0.0 0.0 0.0 nan nan nan nan nan nan nan nan nan nan nan nan nan nan nan nan nan
0.0 0.0 0.0 0.0 0.0 0.0 0.0 0.0 0.0 0.0 0.0 0.0 0.0 0.0 0.0 0.0 0.0 0.0 0.0 0.0 0.0 nan nan nan nan nan nan nan nan nan nan nan nan nan nan nan nan nan
0.0 0.0 0.0 0.0 0.0 0.0 0.0 0.0 0.0 0.0 0.0 0.0 0.0 0.0 0.0 0.0 0.0 0.0 0.0 0.0 0.0 nan nan nan nan nan nan nan nan nan nan nan nan nan nan nan nan nan
0.0 0.0 0.0 0.0 0.0 0.0 0.0 0.0 0.0 0.0 0.0 0.0 0.0 0.0 0.0 0.0 0.0 0.0 0.0 0.0 0.0 0.0 nan nan nan nan nan nan nan nan nan nan nan nan nan nan nan nan
0.0 0.0 0.0 nan nan nan 0.0 0.0 0.0 0.0 0.0 0.0 0.0 0.0 0.0 0.0 0.0 0.0 0.0 0.0 0.0 0.0 0.0 0.0 0.0 0.0 0.0 nan nan nan nan nan nan nan nan nan nan nan
0.0 0.0 0.0 0.0 0.0 nan nan nan nan 0.0 0.0 0.0 0.0 0.0 0.0 0.0 0.0 0.0 0.0 0.0 0.2 0.0 0.0 0.0 0.0 0.0 0.0 0.0 nan nan nan nan nan nan nan nan nan nan
0.0 0.0 0.0 0.0 nan 0.0 nan nan nan nan nan 0.0 0.0 0.0 0.0 0.0 0.0 0.0 0.0 0.0 0.1 0.0 0.0 0.0 0.0 0.0 0.0 0.0 nan nan nan nan nan nan nan nan nan nan
0.0 0.0 0.0 0.0 0.0 0.0 0.0 0.0 0.0 0.1 0.0 0.0 0.0 0.1 0.2 0.0 0.0 0.0 0.0 0.0 0.0 0.0 0.0 0.8 0.0 0.1 0.0 0.0 nan nan nan nan nan nan nan nan nan nan
0.0 0.0 0.0 0.0 nan nan 0.1 0.7 1.3 1.5 nan nan nan nan nan nan nan 0.3 0.7 0.9 1.5 0.0 0.0 0.2 0.2 0.3 0.2 0.1 0.1 nan nan nan nan nan nan nan nan nan
0.0 0.1 nan 0.1 nan nan 0.4 0.5 0.8 0.8 0.7 0.6 0.3 0.1 nan nan nan 0.0 0.2 2.2 1.7 1.1 0.1 0.7 0.0 0.3 0.7 0.1 0.1 0.1 0.1 nan nan nan nan nan nan 0.0
0.8 1.1 1.1 nan nan nan nan 0.4 0.6 0.5 0.5 0.4 0.1 0.0 0.0 0.0 0.0 0.0 0.0 0.4 1.6 1.1 0.1 1.0 0.4 0.3 0.9 0.5 0.2 0.3 0.3 0.2 0.2 0.0 nan nan nan 0.0
1.0 1.3 1.7 nan nan nan 0.9 nan nan 0.4 2.1 1.9 1.3 0.8 0.5 0.4 0.0 0.0 0.0 0.0 0.0 0.2 0.0 0.3 3.5 1.0 1.6 1.6 1.3 0.3 0.3 0.3 0.2 0.1 0.4 nan nan nan
1.4 1.4 nan nan nan 0.7 nan nan 0.1 2.1 2.7 3.4 2.1 1.0 0.5 0.1 0.0 0.4 0.2 0.1 0.1 0.0 0.0 0.2 1.2 0.3 1.1 1.3 0.8 0.5 0.5 0.2 0.4 0.3 0.6 0.8 0.8 1.0
1.0 2.3 0.8 1.8 0.6 1.0 1.4 1.2 1.2 1.4 2.0 2.7 1.6 0.7 0.6 1.1 1.3 0.6 1.3 1.2 1.6 0.7 0.0 0.2 0.3 0.4 1.8 0.7 0.6 0.8 0.5 0.8 0.3 0.3 0.6 1.0 1.0 1.8
2.8 4.8 3.2 2.2 1.5 1.2 1.3 1.3 1.2 1.2 1.9 2.3 2.6 2.1 1.8 1.6 1.6 1.2 1.5 1.7 3.2 2.2 2.2 0.6 0.1 0.1 0.4 0.1 2.1 0.4 0.6 0.6 0.4 0.6 1.1 1.9 2.3 2.2
2.6 3.2 5.3 5.4 3.1 1.4 2.2 2.0 2.0 1.8 1.9 2.6 4.1 2.9 2.7 3.0 2.0 1.8 1.6 1.9 2.3 1.3 1.0 0.7 1.7 1.6 1.0 0.6 0.6 0.6 0.4 0.5 0.5 0.4 0.9 2.2 1.5 1.9
5.1 3.5 7.2 7.5 3.9 1.6 2.1 2.4 3.6 3.3 1.4 3.1 3.7 4.4 4.5 3.6 4.2 3.1 3.3 3.0 2.8 1.2 0.7 0.9 1.6 4.1 7.7 9.6 0.6 nan 1.9 1.0 1.4 1.5 0.8 1.4 2.2 1.9
2.1 3.6 5.5 5.0 2.3 1.7 1.7 2.0 2.5 4.1 4.5 3.9 5.6 7.7 9.2 6.6 5.9 4.3 3.6 5.1 2.9 1.4 1.1 0.6 1.2 1.6 4.3 10.5 11.6 3.8 nan 2.9 2.6 3.1 2.3 0.9 1.0 nan
2.5 2.3 4.6 4.1 3.2 2.4 7.4 8.6 11.1 9.8 10.0 13.2 7.5 8.0 17.1 4.9 5.3 4.3 4.9 3.4 3.0 1.8 1.6 1.0 0.7 0.2 2.0 3.5 17.5 5.4 3.4 nan 1.0 1.5 1.6 2.2 1.7 0.7
5.3 3.8 3.7 3.8 5.5 5.2 10.2 16.5 13.9 13.5 10.0 7.2 14.2 20.4 17.5 8.4 8.0 6.6 7.8 7.8 2.8 3.1 1.7 0.8 0.5 0.9 1.7 3.0 3.5 7.7 2.6 2.7 nan nan nan nan 2.7 2.9
8.9 4.7 6.4 8.1 9.7 10.2 4.9 9.8 4.3 8.6 7.8 8.0 7.1 7.4 33.1 9.6 5.6 6.0 6.5 4.7 3.0 2.9 2.1 2.3 1.4 1.2 1.4 1.9 3.0 4.1 2.3 4.4 2.1 2.3 3.0 nan nan nan

GFSNE_prec_sndepth_072.txt.gz
Snowfall_Accumulation
0.0 0.0 0.0 0.0 0.0 0.0 0.0 0.0 0.0 0.2 0.0 0.0 0.0 0.0 0.0 0.0 0.0 0.0 0.0 nan nan nan nan nan nan nan nan nan nan nan nan nan nan nan nan nan nan nan
0.0 0.0 0.0 0.0 0.0 0.0 0.0 0.0 0.0 0.0 0.1 0.0 0.0 0.0 0.0 0.0 0.0 0.0 0.0 nan nan nan nan nan nan nan nan nan nan nan nan nan nan nan nan nan nan nan
0.0 0.0 0.0 0.0 0.0 0.0 0.0 0.0 0.0 0.0 0.0 0.0 0.0 0.0 0.0 0.0 0.0 0.0 0.0 0.0 0.0 nan nan nan nan nan nan nan nan nan nan nan nan nan nan nan nan nan
0.0 0.0 0.0 0.0 0.0 0.0 0.0 0.0 0.0 0.0 0.0 0.0 0.0 0.0 0.0 0.0 0.0 0.0 0.0 0.0 0.0 nan nan nan nan nan nan nan nan nan nan nan nan nan nan nan nan nan
0.0 0.0 0.0 0.0 0.0 0.0 0.0 0.0 0.0 0.0 0.0 0.0 0.0 0.0 0.0 0.0 0.0 0.0 0.0 0.0 0.0 nan nan nan nan nan nan nan nan nan nan nan nan nan nan nan nan nan
0.0 0.0 0.0 0.0 0.0 0.0 0.0 0.0 0.0 0.0 0.0 0.0 0.0 0.0 0.0 0.0 0.0 0.0 0.0 0.0 0.0 0.0 nan nan nan nan nan nan nan nan nan nan nan nan nan nan nan nan
0.0 0.0 0.0 nan nan nan 0.0 0.0 0.0 0.0 0.0 0.0 0.0 0.0 0.0 0.0 0.0 0.0 0.0 0.0 0.0 0.0 0.0 0.0 0.0 0.0 0.0 nan nan nan nan nan nan nan nan nan nan nan
0.0 0.0 0.0 0.0 0.0 nan nan nan nan 0.0 0.0 0.0 0.0 0.0 0.0 0.0 0.0 0.0 0.0 0.0 0.4 0.0 0.0 0.0 0.0 0.0 0.0 0.0 nan nan nan nan nan nan nan nan nan nan
0.0 0.0 0.0 0.0 nan 0.0 nan nan nan nan nan 0.0 0.0 0.0 0.0 0.0 0.0 0.0 0.1 0.2 0.5 0.0 0.0 0.0 0.0 0.0 0.0 0.0 nan nan nan nan nan nan nan nan nan nan
0.0 0.0 0.0 0.0 0.0 0.0 0.0 0.0 0.1 0.1 0.1 0.0 0.1 0.2 0.2 0.2 0.1 0.2 0.4 0.3 0.2 0.0 0.0 0.8 0.0 0.1 0.0 0.0 nan nan nan nan nan nan nan nan nan nan
0.0 0.0 0.0 0.0 nan nan 0.1 0.7 1.8 2.5 nan nan nan nan nan nan nan 0.9 1.5 1.3 1.7 0.1 0.0 0.2 0.2 0.3 0.1 0.1 0.0 nan nan nan nan nan nan nan nan nan
0.0 0.1 nan 0.1 nan nan 0.3 0.5 1.0 1.5 1.1 1.2 0.9 0.8 nan nan nan 0.4 0.5 2.3 1.6 1.1 0.0 0.6 0.0 0.3 0.7 0.1 0.1 0.1 0.1 nan nan nan nan nan nan 0.0
0.9 1.2 1.1 nan nan nan nan 0.5 0.8 1.0 1.3 1.1 0.8 0.7 0.6 0.4 0.2 0.1 0.1 0.4 1.5 1.0 0.1 1.0 0.4 0.3 0.9 0.5 0.2 0.3 0.3 0.2 0.2 0.0 nan nan nan 0.0
1.1 1.5 2.4 nan nan nan 1.2 nan nan 1.0 3.3 3.4 2.3 1.3 0.6 0.5 0.1 0.1 0.0 0.0 0.0 0.2 0.0 0.3 3.5 1.0 1.6 1.6 1.3 0.3 0.3 0.2 0.2 0.1 0.3 nan nan nan
1.7 2.1 nan nan nan 0.8 nan nan 0.5 2.8 3.3 3.9 2.5 1.3 0.6 0.1 0.0 0.4 0.2 0.1 0.1 0.0 0.0 0.1 1.2 0.3 1.1 1.3 0.8 0.5 0.5 0.2 0.4 0.3 0.5 0.8 0.8 0.9
1.1 2.5 1.0 2.2 0.9 1.6 2.3 2.3 2.1 2.1 2.6 3.1 1.9 0.8 0.6 1.1 1.3 0.6 1.3 1.2 1.6 0.7 0.0 0.1 0.2 0.4 1.8 0.7 0.6 0.8 0.4 0.8 0.3 0.3 0.6 1.0 0.9 1.6
3.2 5.3 3.8 2.8 2.3 2.0 2.0 1.8 1.4 1.4 2.0 2.3 2.6 2.1 1.8 1.5 1.6 1.2 1.4 1.7 3.1 2.2 2.2 0.5 0.1 0.1 0.4 0.1 2.1 0.4 0.5 0.5 0.4 0.5 1.1 1.9 2.2 2.0
3.5 4.3 6.6 6.5 4.1 2.3 3.0 2.5 2.2 1.8 1.9 2.6 4.1 2.8 2.7 2.9 2.0 1.8 1.6 1.9 2.3 1.3 1.0 0.7 1.6 1.6 0.9 0.6 0.6 0.6 0.4 0.6 0.6 0.5 0.9 2.2 1.5 1.7
6.7 4.9 8.4 8.5 4.6 1.9 2.2 2.4 3.7 3.3 1.3 3.1 3.7 4.3 4.5 3.6 4.2 3.1 3.3 3.0 2.8 1.3 0.7 0.9 1.6 4.1 7.6 9.5 0.6 nan 1.9 0.9 1.4 1.5 0.8 1.6 2.9 2.4
2.7 4.2 6.0 5.3 2.6 1.9 1.8 2.1 2.5 4.0 4.5 3.9 5.6 7.7 9.2 6.6 5.9 4.3 3.5 5.1 2.8 1.4 1.1 0.6 1.1 1.6 4.9 10.7 11.6 3.7 nan 2.8 2.6 3.1 2.4 1.0 1.0 nan
3.1 2.8 5.1 4.4 3.5 2.5 7.3 8.5 11.1 9.8 9.9 13.1 7.5 8.0 17.0 4.9 5.3 4.2 4.9 3.4 3.0 1.8 1.7 1.1 0.7 0.2 2.0 3.4 17.4 5.4 3.4 nan 1.0 1.5 1.7 2.6 2.6 1.7
5.3 3.7 3.6 3.8 5.5 5.2 10.2 16.5 13.8 13.4 9.9 7.2 14.1 20.3 17.5 8.4 8.0 6.6 7.8 7.8 2.9 3.1 1.8 0.8 0.5 0.9 1.7 3.1 3.5 7.7 2.6 2.7 nan nan nan nan 3.3 4.9
8.8 4.7 6.4 8.0 9.7 10.1 4.9 9.7 4.3 8.6 7.8 7.9 7.0 7.4 32.9 9.6 5.6 6.0 6.5 4.7 3.1 3.0 2.2 2.3 1.5 1.3 1.4 1.9 3.0 4.1 2.3 4.4 2.1 2.3 3.0 nan nan nan

GFSNE_prec_sndepth_075.txt.gz
Snowfall_Accumulation
0.0 0.0 0.0 0.0 0.0 0.0 0.0 0.0 0.0 0.1 0.0 0.0 0.0 0.0 0.0 0.0 0.0 0.0 0.0 nan nan nan nan nan nan nan nan nan nan nan nan nan nan nan nan nan nan nan
0.0 0.0 0.0 0.0 0.0 0.0 0.0 0.0 0.0 0.0 0.0 0.0 0.0 0.0 0.0 0.0 0.0 0.0 0.0 nan nan nan nan nan nan nan nan nan nan nan nan nan nan nan nan nan nan nan
0.0 0.0 0.0 0.0 0.0 0.0 0.0 0.0 0.0 0.0 0.0 0.0 0.0 0.0 0.0 0.0 0.0 0.0 0.0 0.0 0.0 nan nan nan nan nan nan nan nan nan nan nan nan nan nan nan nan nan
0.0 0.0 0.0 0.0 0.0 0.0 0.0 0.0 0.0 0.0 0.0 0.0 0.0 0.0 0.0 0.0 0.0 0.0 0.0 0.0 0.0 nan nan nan nan nan nan nan nan nan nan nan nan nan nan nan nan nan
0.0 0.0 0.0 0.0 0.0 0.0 0.0 0.0 0.0 0.0 0.0 0.0 0.0 0.0 0.0 0.0 0.0 0.0 0.0 0.0 0.0 nan nan nan nan nan nan nan nan nan nan nan nan nan nan nan nan nan
0.0 0.0 0.0 0.0 0.0 0.0 0.0 0.0 0.0 0.0 0.0 0.0 0.0 0.0 0.0 0.0 0.0 0.0 0.0 0.0 0.0 0.0 nan nan nan nan nan nan nan nan nan nan nan nan nan nan nan nan
0.0 0.0 0.0 nan nan nan 0.0 0.0 0.0 0.0 0.0 0.0 0.0 0.0 0.0 0.0 0.0 0.0 0.0 0.0 0.0 0.0 0.0 0.0 0.0 0.0 0.0 nan nan nan nan nan nan nan nan nan nan nan
0.0 0.0 0.0 0.0 0.0 nan nan nan nan 0.0 0.0 0.0 0.0 0.0 0.0 0.0 0.0 0.0 0.0 0.0 0.4 0.0 0.0 0.0 0.0 0.0 0.0 0.0 nan nan nan nan nan nan nan nan nan nan
0.0 0.0 0.0 0.0 nan 0.0 nan nan nan nan nan 0.0 0.0 0.0 0.0 0.0 0.0 0.0 0.1 0.2 0.8 0.4 0.1 0.5 0.0 0.1 0.0 0.0 nan nan nan nan nan nan nan nan nan nan
0.0 0.0 0.0 0.0 0.0 0.0 0.0 0.0 0.0 0.1 0.1 0.0 0.1 0.2 0.2 0.1 0.1 0.1 0.4 0.7 0.8 0.6 0.4 1.8 0.2 0.2 0.0 0.0 nan nan nan nan nan nan nan nan nan nan
0.0 0.0 0.0 0.0 nan nan 0.1 0.7 2.0 2.9 nan nan nan nan nan nan nan 0.9 2.1 2.1 2.6 0.6 0.2 0.7 0.3 0.3 0.1 0.1 0.0 nan nan nan nan nan nan nan nan nan
0.0 0.1 nan 0.1 nan nan 0.3 0.5 1.1 2.0 1.4 1.5 1.5 1.5 nan nan nan 0.8 1.0 2.9 2.1 1.7 0.4 0.9 0.0 0.3 0.7 0.1 0.1 0.1 0.1 nan nan nan nan nan nan 0.0
0.8 1.2 1.0 nan nan nan nan 0.5 1.3 1.6 1.8 1.4 1.0 1.1 1.1 1.0 0.6 0.5 0.4 1.0 2.1 1.4 0.1 1.0 0.4 0.3 0.9 0.5 0.2 0.3 0.3 0.2 0.2 0.0 nan nan nan 0.0
1.2 1.7 2.6 nan nan nan 1.9 nan nan 1.5 3.6 3.9 3.1 2.3 1.5 1.1 0.5 0.3 0.2 0.1 0.0 0.2 0.0 0.3 3.5 1.0 1.6 1.6 1.3 0.3 0.3 0.2 0.2 0.1 0.3 nan nan nan
3.1 4.0 nan nan nan 1.5 nan nan 0.9 3.5 4.1 4.8 3.4 2.2 1.3 0.4 0.2 0.5 0.3 0.2 0.1 0.1 0.0 0.1 1.2 0.3 1.1 1.2 0.8 0.5 0.5 0.2 0.4 0.3 0.5 0.8 0.8 0.9
2.1 4.6 2.5 3.5 1.8 2.4 3.0 2.9 2.7 2.9 3.4 4.1 2.8 1.7 1.3 1.6 1.8 0.8 1.3 1.2 1.6 0.7 0.0 0.1 0.2 0.4 1.8 0.7 0.6 0.8 0.4 0.8 0.3 0.3 0.6 1.0 0.9 1.6
4.3 6.7 5.1 3.8 3.3 3.3 3.4 3.2 2.8 2.7 3.5 3.7 3.7 2.8 2.2 1.7 1.6 1.2 1.4 1.7 3.1 2.2 2.2 0.5 0.1 0.1 0.4 0.1 2.0 0.4 0.5 0.5 0.4 0.6 1.4 1.9 2.2 2.0
4.6 5.5 8.0 8.0 5.6 3.9 4.5 4.1 3.5 2.6 2.6 3.1 4.4 3.0 2.8 2.9 2.0 1.8 1.6 1.9 2.3 1.3 1.0 0.7 1.6 1.6 0.9 0.6 0.6 0.6 0.4 0.6 0.7 0.4 0.9 2.2 1.5 1.7
7.8 6.1 9.5 9.6 5.6 2.7 2.8 2.9 4.1 3.6 1.4 3.1 3.7 4.3 4.5 3.6 4.2 3.1 3.3 3.0 2.8 1.2 0.7 0.9 1.6 4.1 7.6 9.6 0.6 nan 1.9 0.9 1.4 1.5 0.8 1.6 2.9 2.4
3.3 4.8 6.6 5.8 2.9 2.2 2.0 2.2 2.6 4.0 4.4 3.8 5.6 7.7 9.2 6.6 5.9 4.3 3.5 5.1 2.8 1.4 1.0 0.6 1.1 1.6 5.2 10.8 11.5 3.7 nan 2.8 2.6 3.1 2.4 1.0 1.0 nan
3.6 3.2 5.3 4.6 3.7 2.5 7.3 8.5 11.1 9.8 9.9 13.1 7.5 8.0 17.0 4.9 5.3 4.2 4.8 3.4 3.0 1.8 1.7 1.1 0.7 0.2 1.9 3.4 17.4 5.4 3.4 nan 1.0 1.5 1.8 2.7 2.6 1.7
5.4 3.7 3.6 3.8 5.5 5.1 10.1 16.4 13.8 13.4 9.9 7.1 14.1 20.2 17.5 8.4 8.0 6.6 7.8 7.8 2.9 3.1 1.8 0.8 0.5 0.9 1.7 3.2 3.6 7.7 2.6 2.6 nan nan nan nan 3.5 5.3
8.9 4.7 6.4 8.0 9.6 10.1 4.9 9.7 4.3 8.6 7.8 7.9 7.0 7.4 32.8 9.6 5.6 6.0 6.5 4.7 3.1 2.9 2.1 2.4 1.5 1.3 1.4 1.9 3.0 4.1 2.3 4.3 2.0 2.3 3.0 nan nan nan

GFSNE_prec_sndepth_078.txt.gz
Snowfall_Accumulation
0.0 0.0 0.0 0.0 0.0 0.0 0.0 0.0 0.0 0.1 0.0 0.0 0.0 0.0 0.0 0.0 0.0 0.0 0.0 nan nan nan nan nan nan nan nan nan nan nan nan nan nan nan nan nan nan nan
0.0 0.0 0.0 0.0 0.0 0.0 0.0 0.0 0.0 0.0 0.0 0.0 0.0 0.0 0.0 0.0 0.0 0.0 0.0 nan nan nan nan nan nan nan nan nan nan nan nan nan nan nan nan nan nan nan
0.0 0.0 0.0 0.0 0.0 0.0 0.0 0.0 0.0 0.0 0.0 0.0 0.0 0.0 0.0 0.0 0.0 0.0 0.0 0.0 0.0 nan nan nan nan nan nan nan nan nan nan nan nan nan nan nan nan nan
0.0 0.0 0.0 0.0 0.0 0.0 0.0 0.0 0.0 0.0 0.0 0.0 0.0 0.0 0.0 0.0 0.0 0.0 0.0 0.0 0.0 nan nan nan nan nan nan nan nan nan nan nan nan nan nan nan nan nan
0.0 0.0 0.0 0.0 0.0 0.0 0.0 0.0 0.0 0.0 0.0 0.0 0.0 0.0 0.0 0.0 0.0 0.0 0.0 0.0 0.0 nan nan nan nan nan nan nan nan nan nan nan nan nan nan nan nan nan
0.0 0.0 0.0 0.0 0.0 0.0 0.0 0.0 0.0 0.0 0.0 0.0 0.0 0.0 0.0 0.0 0.0 0.0 0.0 0.0 0.0 0.0 nan nan nan nan nan nan nan nan nan nan nan nan nan nan nan nan
0.0 0.0 0.0 nan nan nan 0.0 0.0 0.0 0.0 0.0 0.0 0.0 0.0 0.0 0.0 0.0 0.0 0.0 0.0 0.0 0.0 0.0 0.0 0.0 0.0 0.0 nan nan nan nan nan nan nan nan nan nan nan
0.0 0.0 0.0 0.0 0.0 nan nan nan nan 0.0 0.0 0.0 0.0 0.0 0.0 0.0 0.0 0.0 0.0 0.0 0.4 0.0 0.0 0.0 0.0 0.0 0.0 0.0 nan nan nan nan nan nan nan nan nan nan
0.0 0.0 0.0 0.0 nan 0.0 nan nan nan nan nan 0.0 0.0 0.0 0.0 0.0 0.0 0.0 0.1 0.2 0.7 0.4 0.1 0.5 0.0 0.1 0.0 0.0 nan nan nan nan nan nan nan nan nan nan
0.0 0.0 0.0 0.0 0.0 0.0 0.0 0.0 0.0 0.1 0.1 0.0 0.1 0.1 0.2 0.1 0.1 0.1 0.4 0.8 1.0 0.9 0.4 2.1 0.6 0.8 0.0 0.0 nan nan nan nan nan nan nan nan nan nan
0.0 0.0 0.0 0.0 nan nan 0.1 0.6 2.0 2.8 nan nan nan nan nan nan nan 0.8 2.1 2.0 2.9 1.1 0.5 1.1 0.9 0.9 0.7 0.3 0.0 nan nan nan nan nan nan nan nan nan
0.0 0.1 nan 0.1 nan nan 0.2 0.4 1.1 2.2 1.5 1.7 2.0 2.3 nan nan nan 1.2 1.4 3.3 2.6 2.2 0.8 1.3 0.4 0.9 0.9 0.1 0.2 0.2 0.1 nan nan nan nan nan nan 0.0
0.8 1.2 1.0 nan nan nan nan 0.6 1.8 3.0 3.2 2.6 1.9 1.8 1.8 1.7 1.5 1.2 1.0 1.7 2.9 2.2 0.4 1.2 0.4 0.3 0.9 0.5 0.2 0.3 0.3 0.2 0.2 0.0 nan nan nan 0.0
1.6 2.1 3.2 nan nan nan 2.2 nan nan 2.4 5.1 5.5 4.5 3.7 2.7 2.0 1.2 0.8 0.5 0.3 0.3 0.4 0.2 0.5 3.6 1.0 1.6 1.6 1.3 0.3 0.3 0.2 0.2 0.1 0.3 nan nan nan
4.0 5.2 nan nan nan 1.5 nan nan 2.7 5.6 6.4 7.3 5.9 4.5 2.8 1.4 0.9 1.1 0.8 0.6 0.5 0.3 0.1 0.2 1.2 0.3 1.1 1.2 0.8 0.5 0.5 0.2 0.4 0.3 0.5 0.8 0.8 0.9
2.5 6.0 3.4 4.7 3.3 4.2 5.0 5.1 4.9 4.9 5.3 5.5 4.0 2.6 2.1 2.2 2.3 1.2 1.7 1.2 1.6 0.7 0.0 0.1 0.2 0.4 1.7 0.7 0.6 0.8 0.4 0.8 0.3 0.3 0.6 1.0 0.9 1.6
5.1 7.7 6.4 5.3 5.0 4.9 4.9 4.5 3.9 3.6 4.2 4.3 4.1 3.2 2.5 1.9 1.8 1.2 1.4 1.7 3.1 2.1 2.1 0.5 0.1 0.1 0.4 0.1 2.0 0.4 0.5 0.5 0.4 0.6 1.4 1.9 2.2 2.0
5.6 7.0 10.0 9.9 7.3 5.5 6.0 5.2 4.3 3.1 3.1 3.4 4.6 3.1 2.8 2.9 1.9 1.8 1.6 1.9 2.3 1.2 1.0 0.7 1.6 1.6 0.9 0.6 0.5 0.6 0.4 0.6 0.7 0.4 0.9 2.2 1.5 1.7
8.4 6.9 10.4 10.5 6.5 3.5 3.5 3.5 4.7 4.1 1.6 3.2 3.7 4.3 4.5 3.6 4.2 3.1 3.3 2.9 2.8 1.2 0.7 0.9 1.6 4.1 7.6 9.6 0.6 nan 1.9 0.9 1.4 1.5 0.7 1.6 2.9 2.4
3.9 5.5 7.3 6.4 3.5 2.7 2.3 2.5 2.6 4.0 4.4 3.8 5.6 7.6 9.2 6.6 5.9 4.3 3.5 5.1 2.8 1.3 1.0 0.6 1.1 1.6 5.2 10.8 11.6 3.7 nan 2.8 2.6 3.1 2.4 1.0 1.0 nan
4.1 3.7 5.8 5.0 3.9 2.6 7.3 8.5 11.1 9.8 9.9 13.1 7.5 8.0 17.0 4.9 5.3 4.2 4.8 3.4 3.0 1.8 1.7 1.0 0.7 0.2 1.9 3.4 17.4 5.4 3.3 nan 1.0 1.5 1.8 2.7 2.6 1.7
5.5 3.7 3.6 3.7 5.4 5.1 10.1 16.4 13.8 13.3 9.9 7.1 14.1 20.2 17.5 8.4 8.0 6.6 7.8 7.8 2.9 3.1 1.8 0.8 0.5 0.9 1.7 3.1 3.6 7.7 2.5 2.6 nan nan nan nan 4.2 5.9
8.9 4.7 6.4 8.0 9.6 10.1 4.9 9.7 4.3 8.6 7.8 7.9 7.0 7.4 32.8 9.6 5.6 6.0 6.5 4.7 3.1 2.9 2.1 2.4 1.5 1.2 1.4 1.9 3.0 4.1 2.3 4.3 2.0 2.3 3.0 nan nan nan

GFSNE_prec_sndepth_081.txt.gz
Snowfall_Accumulation
0.0 0.0 0.0 0.0 0.0 0.0 0.0 0.0 0.0 0.1 0.0 0.0 0.0 0.0 0.0 0.0 0.0 0.0 0.0 nan nan nan nan nan nan nan nan nan nan nan nan nan nan nan nan nan nan nan
0.0 0.0 0.0 0.0 0.0 0.0 0.0 0.0 0.0 0.0 0.0 0.0 0.0 0.0 0.0 0.0 0.0 0.0 0.0 nan nan nan nan nan nan nan nan nan nan nan nan nan nan nan nan nan nan nan
0.0 0.0 0.0 0.0 0.0 0.0 0.0 0.0 0.0 0.0 0.0 0.0 0.0 0.0 0.0 0.0 0.0 0.0 0.0 0.0 0.0 nan nan nan nan nan nan nan nan nan nan nan nan nan nan nan nan nan
0.0 0.0 0.0 0.0 0.0 0.0 0.0 0.0 0.0 0.0 0.0 0.0 0.0 0.0 0.0 0.0 0.0 0.0 0.0 0.0 0.0 nan nan nan nan nan nan nan nan nan nan nan nan nan nan nan nan nan
0.0 0.0 0.0 0.0 0.0 0.0 0.0 0.0 0.0 0.0 0.0 0.0 0.0 0.0 0.0 0.0 0.0 0.0 0.0 0.0 0.0 nan nan nan nan nan nan nan nan nan nan nan nan nan nan nan nan nan
0.0 0.0 0.0 0.0 0.0 0.0 0.0 0.0 0.0 0.0 0.0 0.0 0.0 0.0 0.0 0.0 0.0 0.0 0.0 0.0 0.0 0.0 nan nan nan nan nan nan nan nan nan nan nan nan nan nan nan nan
0.0 0.0 0.0 nan nan nan 0.0 0.0 0.0 0.0 0.0 0.0 0.0 0.0 0.0 0.0 0.0 0.0 0.0 0.0 0.0 0.0 0.0 0.0 0.0 0.0 0.0 nan nan nan nan nan nan nan nan nan nan nan
0.0 0.0 0.0 0.0 0.0 nan nan nan nan 0.0 0.0 0.0 0.0 0.0 0.0 0.0 0.0 0.0 0.0 0.0 0.3 0.0 0.0 0.0 0.0 0.0 0.0 0.0 nan nan nan nan nan nan nan nan nan nan
0.0 0.0 0.0 0.0 nan 0.0 nan nan nan nan nan 0.0 0.0 0.0 0.0 0.0 0.0 0.0 0.1 0.2 0.6 0.4 0.1 0.5 0.0 0.1 0.0 0.0 nan nan nan nan nan nan nan nan nan nan
0.0 0.0 0.0 0.0 0.0 0.0 0.0 0.0 0.0 0.1 0.1 0.0 0.1 0.1 0.2 0.1 0.1 0.1 0.3 0.8 1.1 1.5 0.4 2.6 0.9 1.0 0.0 0.0 nan nan nan nan nan nan nan nan nan nan
0.0 0.0 0.0 0.0 nan nan 0.1 0.3 1.7 2.7 nan nan nan nan nan nan nan 0.8 1.9 1.9 4.2 2.5 1.6 1.8 1.6 1.6 1.3 0.9 0.3 nan nan nan nan nan nan nan nan nan
0.0 0.1 nan 0.1 nan nan 0.1 0.2 0.9 2.2 1.5 1.9 2.2 2.6 nan nan nan 1.7 1.5 4.2 3.6 3.3 1.8 2.3 1.5 1.8 1.9 0.6 0.9 0.6 0.4 nan nan nan nan nan nan 0.0
0.9 1.4 1.1 nan nan nan nan 0.7 2.3 3.7 4.2 3.1 2.2 2.3 2.3 2.3 2.1 2.0 2.1 3.2 4.7 4.4 2.2 2.6 1.5 1.0 1.4 0.8 0.3 0.5 0.6 0.5 0.2 0.0 nan nan nan 0.0
2.8 3.1 4.2 nan nan nan 3.2 nan nan 3.1 6.7 7.3 6.3 5.4 4.2 3.6 3.0 2.5 2.1 1.8 1.4 1.5 1.0 0.9 4.2 1.4 2.0 1.9 1.5 0.3 0.3 0.2 0.2 0.1 0.3 nan nan nan
4.7 6.8 nan nan nan 1.6 nan nan 3.8 7.0 8.1 9.3 8.2 7.0 5.2 3.3 2.2 2.1 1.5 1.1 0.8 0.6 0.3 0.3 1.3 0.3 1.1 1.3 0.8 0.5 0.5 0.2 0.4 0.3 0.5 0.8 0.8 0.9
2.5 6.5 3.7 5.1 3.6 4.8 5.8 6.2 6.0 6.2 6.8 7.1 5.6 4.2 3.5 3.5 3.5 2.4 2.7 1.7 2.0 1.0 0.1 0.2 0.2 0.4 1.7 0.7 0.6 0.8 0.4 0.8 0.3 0.3 0.6 0.9 0.9 1.6
5.1 7.8 6.5 5.4 5.3 5.3 5.4 5.2 4.8 4.6 5.2 5.4 5.2 4.1 3.2 2.4 2.1 1.3 1.4 1.6 3.1 2.1 2.1 0.5 0.1 0.1 0.4 0.1 2.0 0.4 0.5 0.5 0.4 0.6 1.4 1.9 2.2 2.0
5.6 7.1 10.0 10.1 7.5 5.8 6.3 5.6 4.7 3.4 3.4 3.8 4.9 3.4 2.9 3.0 1.9 1.8 1.5 1.9 2.3 1.2 1.0 0.7 1.6 1.5 0.9 0.6 0.5 0.6 0.4 0.6 0.7 0.4 0.9 2.2 1.5 1.7
8.4 7.1 10.6 10.8 6.9 3.9 3.9 3.9 5.2 4.5 1.9 3.3 3.7 4.3 4.5 3.6 4.2 3.1 3.3 2.9 2.8 1.2 0.7 0.9 1.5 4.0 7.6 9.6 0.6 nan 1.8 0.9 1.4 1.5 0.7 1.6 2.9 2.4
3.9 5.6 7.4 6.6 3.7 3.0 2.6 2.7 2.8 4.1 4.5 3.8 5.6 7.6 9.2 6.6 5.9 4.3 3.5 5.1 2.8 1.3 1.0 0.6 1.1 1.6 5.2 10.9 11.6 3.7 nan 2.8 2.6 3.1 2.4 0.9 1.0 nan
4.2 3.8 5.9 5.1 4.0 2.6 7.3 8.5 11.0 9.7 9.9 13.1 7.5 7.9 16.9 4.9 5.3 4.2 4.8 3.4 3.0 1.8 1.7 1.0 0.7 0.2 1.9 3.4 17.4 5.4 3.3 nan 0.9 1.5 1.8 2.7 2.6 1.7
5.5 3.7 3.6 3.7 5.4 5.1 10.1 16.3 13.7 13.3 9.9 7.1 14.1 20.2 17.4 8.4 8.0 6.6 7.8 7.8 2.9 3.1 1.8 0.8 0.5 0.9 1.7 3.1 3.6 7.7 2.5 2.6 nan nan nan nan 4.4 6.6
8.9 4.7 6.4 8.0 9.6 10.0 4.9 9.7 4.3 8.6 7.8 7.9 7.0 7.4 32.7 9.6 5.6 6.0 6.5 4.7 3.1 2.9 2.1 2.4 1.5 1.2 1.4 1.9 3.0 4.1 2.3 4.3 2.0 2.3 2.9 nan nan nan

GFSNE_prec_sndepth_084.txt.gz
Snowfall_Accumulation
0.0 0.0 0.0 0.0 0.0 0.0 0.0 0.0 0.0 0.1 0.0 0.0 0.0 0.0 0.0 0.0 0.0 0.0 0.0 nan nan nan nan nan nan nan nan nan nan nan nan nan nan nan nan nan nan nan
0.0 0.0 0.0 0.0 0.0 0.0 0.0 0.0 0.0 0.0 0.0 0.0 0.0 0.0 0.0 0.0 0.0 0.0 0.0 nan nan nan nan nan nan nan nan nan nan nan nan nan nan nan nan nan nan nan
0.0 0.0 0.0 0.0 0.0 0.0 0.0 0.0 0.0 0.0 0.0 0.0 0.0 0.0 0.0 0.0 0.0 0.0 0.0 0.0 0.0 nan nan nan nan nan nan nan nan nan nan nan nan nan nan nan nan nan
0.0 0.0 0.0 0.0 0.0 0.0 0.0 0.0 0.0 0.0 0.0 0.0 0.0 0.0 0.0 0.0 0.0 0.0 0.0 0.0 0.0 nan nan nan nan nan nan nan nan nan nan nan nan nan nan nan nan nan
0.0 0.0 0.0 0.0 0.0 0.0 0.0 0.0 0.0 0.0 0.0 0.0 0.0 0.0 0.0 0.0 0.0 0.0 0.0 0.0 0.0 nan nan nan nan nan nan nan nan nan nan nan nan nan nan nan nan nan
0.0 0.0 0.0 0.0 0.0 0.0 0.0 0.0 0.0 0.0 0.0 0.0 0.0 0.0 0.0 0.0 0.0 0.0 0.0 0.0 0.0 0.0 nan nan nan nan nan nan nan nan nan nan nan nan nan nan nan nan
0.0 0.0 0.0 nan nan nan 0.0 0.0 0.0 0.0 0.0 0.0 0.0 0.0 0.0 0.0 0.0 0.0 0.0 0.0 0.0 0.0 0.0 0.0 0.0 0.0 0.0 nan nan nan nan nan nan nan nan nan nan nan
0.0 0.0 0.0 0.0 0.0 nan nan nan nan 0.0 0.0 0.0 0.0 0.0 0.0 0.0 0.0 0.0 0.0 0.0 0.3 0.0 0.0 0.0 0.0 0.0 0.0 0.0 nan nan nan nan nan nan nan nan nan nan
0.0 0.0 0.0 0.0 nan 0.0 nan nan nan nan nan 0.0 0.0 0.0 0.0 0.0 0.0 0.0 0.0 0.1 0.4 0.4 0.1 0.5 0.0 0.1 0.0 0.0 nan nan nan nan nan nan nan nan nan nan
0.0 0.0 0.0 0.0 0.0 0.0 0.0 0.0 0.0 0.1 0.0 0.0 0.0 0.1 0.1 0.1 0.1 0.1 0.2 0.7 1.1 1.6 0.4 2.6 1.4 1.9 0.4 0.3 nan nan nan nan nan nan nan nan nan nan
0.0 0.0 0.0 0.0 nan nan 0.1 0.2 1.2 2.5 nan nan nan nan nan nan nan 0.7 1.8 1.7 4.3 3.3 2.5 2.7 2.6 2.3 2.1 1.8 1.2 nan nan nan nan nan nan nan nan nan
0.0 0.1 nan 0.1 nan nan 0.1 0.2 0.8 3.0 2.1 2.2 2.5 3.0 nan nan nan 1.9 1.6 4.7 4.6 4.4 2.5 3.1 2.5 3.1 3.7 2.4 2.6 2.2 1.9 nan nan nan nan nan nan 0.0
1.0 1.8 1.5 nan nan nan nan 0.7 3.4 6.1 5.8 5.2 4.6 4.5 4.1 3.8 3.4 3.1 3.1 4.1 5.7 5.7 3.9 4.2 3.6 3.1 3.4 2.5 1.7 1.6 1.4 1.1 0.5 0.2 nan nan nan 0.0
2.9 3.5 4.8 nan nan nan 4.2 nan nan 3.6 8.9 9.1 7.9 7.0 5.7 5.1 4.3 3.8 3.3 2.9 2.6 2.9 2.2 2.0 5.4 2.4 2.9 2.7 2.2 0.6 0.5 0.5 0.3 0.1 0.3 nan nan nan
4.8 7.0 nan nan nan 1.6 nan nan 3.8 7.5 8.8 10.1 9.1 7.9 6.0 4.0 2.8 2.7 2.1 1.6 1.3 1.1 0.9 0.9 2.0 1.0 1.6 1.9 1.4 0.7 0.5 0.2 0.4 0.3 0.5 0.8 0.7 0.9
2.5 6.5 3.7 5.1 3.6 4.8 5.8 6.3 6.1 6.4 6.9 7.3 5.8 4.4 3.8 3.7 3.8 2.8 3.2 2.2 2.3 1.2 0.1 0.2 0.2 0.4 1.7 0.7 0.6 0.8 0.4 0.8 0.3 0.3 0.6 0.9 0.9 1.6
5.1 7.8 6.5 5.4 5.2 5.3 5.5 5.2 4.8 4.6 5.3 5.5 5.3 4.3 3.4 2.4 2.1 1.3 1.4 1.6 3.1 2.1 2.2 0.5 0.1 0.1 0.4 0.1 2.0 0.4 0.5 0.5 0.3 0.6 1.4 1.9 2.1 2.0
5.6 7.0 10.0 10.0 7.5 5.9 6.4 5.7 4.7 3.4 3.6 3.8 4.9 3.3 2.9 3.0 1.9 1.7 1.5 1.9 2.3 1.2 0.9 0.7 1.6 1.5 0.9 0.6 0.5 0.6 0.4 0.6 0.6 0.4 0.9 2.1 1.5 1.7
8.4 7.1 10.6 10.8 6.9 4.0 4.0 4.0 5.3 4.6 1.9 3.3 3.7 4.3 4.5 3.6 4.2 3.1 3.2 2.9 2.8 1.2 0.7 0.9 1.5 4.0 7.6 9.6 0.6 nan 1.8 0.9 1.4 1.5 0.7 1.6 2.9 2.4
4.0 5.7 7.5 6.7 3.8 3.1 2.7 2.7 2.7 4.0 4.5 3.8 5.5 7.6 9.1 6.5 5.9 4.3 3.5 5.1 2.8 1.3 1.0 0.6 1.1 1.6 5.2 10.8 11.5 3.7 nan 2.8 2.6 3.1 2.4 0.9 0.9 nan
4.2 3.8 5.9 5.1 4.0 2.6 7.3 8.5 11.0 9.7 9.9 13.0 7.5 7.9 16.9 4.9 5.3 4.2 4.8 3.4 3.0 1.8 1.6 1.0 0.7 0.2 1.9 3.4 17.3 5.4 3.3 nan 0.9 1.5 1.8 2.7 2.6 1.7
5.5 3.7 3.6 3.7 5.4 5.1 10.1 16.3 13.7 13.3 9.9 7.1 14.0 20.1 17.4 8.4 8.0 6.5 7.8 7.8 2.9 3.1 1.8 0.8 0.5 0.8 1.7 3.1 3.5 7.7 2.5 2.6 nan nan nan nan 4.6 7.0
8.9 4.7 6.4 8.0 9.6 10.0 4.9 9.7 4.3 8.5 7.8 7.9 7.0 7.4 32.6 9.6 5.6 6.0 6.5 4.7 3.1 2.9 2.1 2.4 1.5 1.2 1.4 1.9 3.0 4.1 2.3 4.3 2.0 2.3 2.9 nan nan nan

GFSNE_prec_sndepth_087.txt.gz
Snowfall_Accumulation
0.0 0.0 0.0 0.0 0.0 0.0 0.0 0.0 0.0 0.1 0.0 0.0 0.0 0.0 0.0 0.0 0.0 0.0 0.0 nan nan nan nan nan nan nan nan nan nan nan nan nan nan nan nan nan nan nan
0.0 0.0 0.0 0.0 0.0 0.0 0.0 0.0 0.0 0.0 0.0 0.0 0.0 0.0 0.0 0.0 0.0 0.0 0.0 nan nan nan nan nan nan nan nan nan nan nan nan nan nan nan nan nan nan nan
0.0 0.0 0.0 0.0 0.0 0.0 0.0 0.0 0.0 0.0 0.0 0.0 0.0 0.0 0.0 0.0 0.0 0.0 0.0 0.0 0.0 nan nan nan nan nan nan nan nan nan nan nan nan nan nan nan nan nan
0.0 0.0 0.0 0.0 0.0 0.0 0.0 0.0 0.0 0.0 0.0 0.0 0.0 0.0 0.0 0.0 0.0 0.0 0.0 0.0 0.0 nan nan nan nan nan nan nan nan nan nan nan nan nan nan nan nan nan
0.0 0.0 0.0 0.0 0.0 0.0 0.0 0.0 0.0 0.0 0.0 0.0 0.0 0.0 0.0 0.0 0.0 0.0 0.0 0.0 0.0 nan nan nan nan nan nan nan nan nan nan nan nan nan nan nan nan nan
0.0 0.0 0.0 0.0 0.0 0.0 0.0 0.0 0.0 0.0 0.0 0.0 0.0 0.0 0.0 0.0 0.0 0.0 0.0 0.0 0.0 0.0 nan nan nan nan nan nan nan nan nan nan nan nan nan nan nan nan
0.0 0.0 0.0 nan nan nan 0.0 0.0 0.0 0.0 0.0 0.0 0.0 0.0 0.0 0.0 0.0 0.0 0.0 0.0 0.0 0.0 0.0 0.0 0.0 0.0 0.0 nan nan nan nan nan nan nan nan nan nan nan
0.0 0.0 0.0 0.0 0.0 nan nan nan nan 0.0 0.0 0.0 0.0 0.0 0.0 0.0 0.0 0.0 0.0 0.0 0.2 0.0 0.0 0.0 0.0 0.0 0.0 0.0 nan nan nan nan nan nan nan nan nan nan
0.0 0.0 0.0 0.0 nan 0.0 nan nan nan nan nan 0.0 0.0 0.0 0.0 0.0 0.0 0.0 0.0 0.1 0.3 0.3 0.1 0.5 0.0 0.1 0.0 0.0 nan nan nan nan nan nan nan nan nan nan
0.0 0.0 0.0 0.0 0.0 0.0 0.0 0.0 0.0 0.1 0.0 0.0 0.1 0.2 0.3 0.1 0.1 0.1 0.2 0.6 1.0 1.8 0.5 2.5 1.8 2.4 0.6 0.4 nan nan nan nan nan nan nan nan nan nan
0.0 0.0 0.0 0.0 nan nan 0.1 0.1 1.1 2.9 nan nan nan nan nan nan nan 0.7 1.7 1.6 4.1 5.1 4.5 4.0 4.3 3.6 3.2 2.9 2.1 nan nan nan nan nan nan nan nan nan
0.2 0.4 nan 0.1 nan nan 0.1 0.2 0.7 3.8 3.1 3.4 3.7 4.1 nan nan nan 2.4 1.8 4.5 4.9 5.1 3.4 4.0 3.4 3.8 4.9 3.1 3.2 2.7 2.4 nan nan nan nan nan nan 0.2
1.0 1.9 1.7 nan nan nan nan 1.0 4.5 7.8 6.7 6.6 5.8 5.8 5.4 4.5 3.9 3.7 3.8 4.7 6.5 6.7 4.9 4.7 4.2 3.5 3.9 3.0 2.2 2.2 2.0 1.7 1.0 0.6 nan nan nan 0.0
2.9 3.5 4.8 nan nan nan 4.1 nan nan 3.6 9.0 9.2 8.0 7.1 5.9 5.3 4.6 3.9 3.4 3.0 2.7 3.1 2.3 2.1 5.6 2.6 3.2 3.0 2.5 0.9 0.9 0.8 0.6 0.4 0.5 nan nan nan
4.8 7.0 nan nan nan 1.6 nan nan 3.8 7.4 8.7 10.1 9.1 8.0 6.1 4.1 2.7 2.6 2.0 1.5 1.1 1.0 0.7 0.7 1.9 0.9 1.6 2.0 1.5 0.7 0.5 0.2 0.4 0.3 0.5 0.7 0.7 0.9
2.5 6.5 3.7 5.1 3.6 4.8 5.8 6.2 6.0 6.3 6.8 7.2 5.8 4.4 3.7 3.6 3.7 2.6 3.0 2.1 2.2 1.2 0.1 0.1 0.2 0.3 1.7 0.6 0.6 0.8 0.4 0.7 0.3 0.3 0.6 0.9 0.9 1.6
5.0 7.7 6.4 5.3 5.2 5.2 5.4 5.1 4.7 4.5 5.2 5.5 5.2 4.2 3.3 2.3 2.0 1.2 1.4 1.6 3.1 2.1 2.1 0.5 0.0 0.1 0.3 0.1 1.9 0.4 0.5 0.5 0.3 0.5 1.3 1.8 2.1 1.9
5.6 7.0 9.9 10.0 7.4 5.8 6.3 5.6 4.7 3.4 3.5 3.7 4.8 3.3 2.8 2.9 1.9 1.7 1.5 1.8 2.2 1.2 0.9 0.7 1.5 1.5 0.9 0.6 0.5 0.6 0.3 0.6 0.6 0.4 0.8 2.1 1.4 1.6
8.3 7.0 10.6 10.7 6.9 4.0 4.0 4.0 5.2 4.5 1.8 3.2 3.6 4.3 4.4 3.5 4.1 3.0 3.2 2.9 2.7 1.2 0.7 0.9 1.5 4.0 7.5 9.5 0.6 nan 1.8 0.9 1.3 1.4 0.7 1.5 2.9 2.3
3.9 5.6 7.5 6.6 3.7 3.0 2.7 2.7 2.7 4.0 4.4 3.8 5.5 7.5 9.1 6.5 5.8 4.2 3.4 5.0 2.8 1.3 1.0 0.5 1.1 1.5 5.1 10.7 11.5 3.6 nan 2.7 2.5 3.0 2.3 0.9 0.9 nan
4.2 3.8 5.9 5.0 4.0 2.5 7.2 8.4 10.9 9.7 9.8 12.9 7.4 7.9 16.8 4.8 5.2 4.2 4.8 3.4 3.0 1.7 1.6 1.0 0.7 0.2 1.9 3.3 17.2 5.3 3.3 nan 0.9 1.4 1.7 2.7 2.5 1.6
5.5 3.7 3.6 3.7 5.4 5.1 10.0 16.2 13.6 13.2 9.8 7.0 14.0 20.0 17.3 8.3 8.0 6.5 7.7 7.7 2.8 3.1 1.8 0.8 0.5 0.8 1.7 3.1 3.5 7.7 2.5 2.5 nan nan nan nan 4.7 7.3
8.9 4.7 6.3 7.9 9.6 10.0 4.8 9.6 4.2 8.5 7.7 7.8 7.0 7.3 32.4 9.5 5.6 5.9 6.5 4.7 3.0 2.9 2.1 2.3 1.5 1.2 1.4 1.9 2.9 4.0 2.2 4.3 1.9 2.2 2.8 nan nan nan

GFSNE_prec_sndepth_093.txt.gz
Snowfall_Accumulation
0.0 0.0 0.0 0.0 0.0 0.0 0.0 0.0 0.0 0.0 0.0 0.0 0.0 0.0 0.0 0.0 0.0 0.0 0.0 nan nan nan nan nan nan nan nan nan nan nan nan nan nan nan nan nan nan nan
0.0 0.0 0.0 0.0 0.0 0.0 0.0 0.0 0.0 0.0 0.0 0.0 0.0 0.0 0.0 0.0 0.0 0.0 0.0 nan nan nan nan nan nan nan nan nan nan nan nan nan nan nan nan nan nan nan
0.0 0.0 0.0 0.0 0.0 0.0 0.0 0.0 0.0 0.0 0.0 0.0 0.0 0.0 0.0 0.0 0.0 0.0 0.0 0.0 0.0 nan nan nan nan nan nan nan nan nan nan nan nan nan nan nan nan nan
0.0 0.0 0.0 0.0 0.0 0.0 0.0 0.0 0.0 0.0 0.0 0.0 0.0 0.0 0.0 0.0 0.0 0.0 0.0 0.0 0.0 nan nan nan nan nan nan nan nan nan nan nan nan nan nan nan nan nan
0.0 0.0 0.0 0.0 0.0 0.0 0.0 0.0 0.0 0.0 0.0 0.0 0.0 0.0 0.0 0.0 0.0 0.0 0.0 0.0 0.0 nan nan nan nan nan nan nan nan nan nan nan nan nan nan nan nan nan
0.0 0.0 0.0 0.0 0.0 0.0 0.0 0.0 0.0 0.0 0.0 0.0 0.0 0.0 0.0 0.0 0.0 0.0 0.0 0.0 0.0 0.0 nan nan nan nan nan nan nan nan nan nan nan nan nan nan nan nan
0.0 0.0 0.0 nan nan nan 0.0 0.0 0.0 0.0 0.0 0.0 0.0 0.0 0.0 0.0 0.0 0.0 0.0 0.0 0.0 0.0 0.0 0.0 0.0 0.0 0.0 nan nan nan nan nan nan nan nan nan nan nan
0.0 0.0 0.0 0.0 0.0 nan nan nan nan 0.0 0.0 0.0 0.0 0.0 0.0 0.0 0.0 0.0 0.0 0.0 0.2 0.0 0.0 0.0 0.0 0.0 0.0 0.0 nan nan nan nan nan nan nan nan nan nan
0.0 0.0 0.0 0.0 nan 0.0 nan nan nan nan nan 0.0 0.0 0.0 0.0 0.0 0.0 0.0 0.0 0.1 0.3 0.3 0.1 0.4 0.0 0.6 0.2 0.1 nan nan nan nan nan nan nan nan nan nan
0.0 0.0 0.0 0.0 0.0 0.0 0.0 0.0 0.0 0.1 0.2 0.2 0.9 1.9 2.0 0.6 0.0 0.0 0.1 0.4 0.8 2.3 0.8 2.1 2.4 3.5 1.0 0.6 nan nan nan nan nan nan nan nan nan nan
0.0 0.0 0.0 0.0 nan nan 0.0 0.1 1.7 4.0 nan nan nan nan nan nan nan 0.5 1.4 1.3 3.3 5.5 4.9 3.8 4.5 4.1 3.5 3.1 2.1 nan nan nan nan nan nan nan nan nan
0.4 0.4 nan 0.1 nan nan 0.1 0.1 0.7 4.2 4.0 4.8 4.5 4.9 nan nan nan 1.6 1.3 3.6 4.0 4.3 2.8 3.4 2.7 3.1 4.0 2.2 2.3 1.9 1.7 nan nan nan nan nan nan 0.2
1.5 2.5 2.4 nan nan nan nan 1.0 4.7 8.0 6.8 6.4 5.3 5.1 4.5 3.7 3.3 2.9 2.5 3.4 4.8 5.4 3.9 3.6 3.0 2.5 2.7 2.2 1.6 1.5 1.4 1.1 0.7 0.4 nan nan nan 0.0
2.6 3.2 4.1 nan nan nan 2.5 nan nan 2.8 7.6 7.8 6.6 6.1 4.9 4.4 3.5 2.7 2.0 1.8 1.7 1.7 0.9 0.9 4.1 1.8 2.3 2.2 1.9 0.6 0.6 0.6 0.4 0.2 0.4 nan nan nan
3.6 5.8 nan nan nan 1.1 nan nan 2.8 5.6 6.7 8.2 7.7 7.1 5.0 3.1 1.3 1.4 0.6 0.3 0.3 0.2 0.1 0.2 1.2 0.3 1.0 1.3 1.0 0.5 0.3 0.1 0.3 0.2 0.4 0.5 0.5 0.6
1.6 4.5 3.0 3.7 2.9 3.7 4.1 4.3 4.4 4.7 5.2 5.7 4.6 3.1 2.3 2.1 2.2 1.5 1.7 1.2 1.4 0.8 0.0 0.0 0.1 0.1 1.1 0.4 0.4 0.5 0.3 0.5 0.2 0.2 0.4 0.6 0.6 1.1
3.7 5.5 4.6 3.7 3.7 3.7 3.7 3.7 3.2 2.9 3.5 3.8 3.4 2.6 2.0 1.4 1.3 0.8 0.9 1.0 2.0 1.4 1.4 0.3 0.0 0.0 0.2 0.0 1.3 0.3 0.3 0.4 0.2 0.4 1.0 1.4 1.5 1.4
4.1 5.8 9.7 9.7 6.5 4.5 4.7 4.0 3.3 2.4 2.4 2.5 3.2 2.1 1.9 2.0 1.2 1.1 1.0 1.2 1.5 0.8 0.6 0.5 1.1 1.0 0.6 0.4 0.4 0.4 0.2 0.4 0.5 0.3 0.6 1.7 1.1 1.1
6.9 6.8 10.3 10.5 5.5 2.7 2.8 2.9 4.2 3.6 1.3 2.4 2.7 3.3 3.3 2.5 3.0 2.2 2.4 2.1 2.0 0.8 0.5 0.6 1.1 3.2 6.6 9.1 0.4 nan 1.6 0.7 1.1 1.2 0.6 1.3 2.6 1.9
3.0 4.8 7.0 5.4 2.7 2.2 2.0 2.1 2.2 3.4 3.7 3.1 4.8 7.2 8.7 5.4 4.8 3.4 2.8 4.7 2.2 1.0 0.7 0.4 0.8 1.2 4.8 10.3 11.1 3.2 nan 2.5 2.2 2.8 2.1 0.7 0.7 nan
3.2 2.8 4.9 4.2 3.2 2.0 6.9 8.1 10.6 9.3 9.4 12.6 7.1 7.5 16.4 4.2 4.8 3.7 4.0 3.1 2.8 1.3 1.3 0.8 0.5 0.2 1.4 2.7 16.8 4.8 2.7 nan 0.6 1.3 1.5 2.5 2.4 1.4
5.0 3.1 3.0 3.4 5.1 4.8 9.7 15.8 13.2 12.8 9.4 6.8 13.6 19.6 16.9 8.0 7.7 6.2 7.4 7.4 2.4 2.8 1.5 0.6 0.3 0.6 1.3 2.7 3.3 7.4 2.1 2.0 nan nan nan nan 4.5 7.2
8.5 4.4 6.0 7.6 9.2 9.6 4.6 9.3 4.1 8.2 7.4 7.6 6.7 7.0 31.9 9.2 5.3 5.7 6.2 4.5 2.9 2.8 1.9 2.2 1.2 0.9 1.1 1.6 2.8 3.8 2.0 4.1 1.7 1.8 2.4 nan nan nan

GFSNE_prec_sndepth_096.txt.gz
Snowfall_Accumulation
0.0 0.0 0.0 0.0 0.0 0.0 0.0 0.0 0.0 0.0 0.0 0.0 0.0 0.0 0.0 0.0 0.0 0.0 0.0 nan nan nan nan nan nan nan nan nan nan nan nan nan nan nan nan nan nan nan
0.0 0.0 0.0 0.0 0.0 0.0 0.0 0.0 0.0 0.0 0.0 0.0 0.0 0.0 0.0 0.0 0.0 0.0 0.0 nan nan nan nan nan nan nan nan nan nan nan nan nan nan nan nan nan nan nan
0.0 0.0 0.0 0.0 0.0 0.0 0.0 0.0 0.0 0.0 0.0 0.0 0.0 0.0 0.0 0.0 0.0 0.0 0.0 0.0 0.0 nan nan nan nan nan nan nan nan nan nan nan nan nan nan nan nan nan
0.0 0.0 0.0 0.0 0.0 0.0 0.0 0.0 0.0 0.0 0.0 0.0 0.0 0.0 0.0 0.0 0.0 0.0 0.0 0.0 0.0 nan nan nan nan nan nan nan nan nan nan nan nan nan nan nan nan nan
0.0 0.0 0.0 0.0 0.0 0.0 0.0 0.0 0.0 0.0 0.0 0.0 0.0 0.0 0.0 0.0 0.0 0.0 0.0 0.0 0.0 nan nan nan nan nan nan nan nan nan nan nan nan nan nan nan nan nan
0.0 0.0 0.0 0.0 0.0 0.0 0.0 0.0 0.0 0.0 0.0 0.0 0.0 0.0 0.0 0.0 0.0 0.0 0.0 0.0 0.0 0.0 nan nan nan nan nan nan nan nan nan nan nan nan nan nan nan nan
0.0 0.0 0.0 nan nan nan 0.0 0.0 0.0 0.0 0.0 0.0 0.0 0.0 0.0 0.0 0.0 0.0 0.0 0.0 0.0 0.0 0.0 0.0 0.0 0.0 0.0 nan nan nan nan nan nan nan nan nan nan nan
0.0 0.0 0.0 0.0 0.0 nan nan nan nan 0.0 0.0 0.0 0.0 0.0 0.0 0.0 0.0 0.0 0.0 0.0 0.2 0.0 0.0 0.0 0.0 0.0 0.0 0.0 nan nan nan nan nan nan nan nan nan nan
0.0 0.0 0.0 0.0 nan 0.0 nan nan nan nan nan 0.0 0.0 0.0 0.0 0.0 0.0 0.0 0.0 0.1 0.3 0.3 0.1 0.4 0.0 0.6 0.2 0.0 nan nan nan nan nan nan nan nan nan nan
0.0 0.0 0.0 0.0 0.0 0.0 0.0 0.0 0.0 0.1 0.1 0.1 1.0 2.5 2.6 0.9 0.0 0.0 0.1 0.3 0.8 2.2 0.7 1.9 2.3 3.5 1.0 0.6 nan nan nan nan nan nan nan nan nan nan
0.0 0.0 0.0 0.0 nan nan 0.0 0.1 1.8 4.7 nan nan nan nan nan nan nan 0.5 1.3 1.2 3.0 5.3 4.7 3.6 4.2 3.9 3.3 3.0 1.9 nan nan nan nan nan nan nan nan nan
0.4 0.4 nan 0.1 nan nan 0.1 0.1 0.7 4.6 4.2 5.1 4.8 5.1 nan nan nan 1.5 1.3 3.3 3.7 4.1 2.7 3.3 2.5 2.9 3.8 2.0 2.1 1.7 1.6 nan nan nan nan nan nan 0.2
3.0 4.2 4.2 nan nan nan nan 2.2 5.9 8.7 7.0 6.3 5.0 4.9 4.3 3.5 3.1 2.8 2.3 3.3 4.6 5.4 3.7 3.5 2.8 2.4 2.6 2.1 1.5 1.4 1.3 1.1 0.7 0.3 nan nan nan 0.0
2.8 3.3 4.3 nan nan nan 2.4 nan nan 2.6 7.0 7.5 6.4 6.0 4.9 4.2 3.3 2.5 1.8 1.7 1.6 1.6 0.8 0.8 4.0 1.8 2.2 2.1 1.9 0.6 0.6 0.5 0.4 0.2 0.4 nan nan nan
3.5 5.7 nan nan nan 1.0 nan nan 2.7 5.3 6.5 8.1 7.7 7.1 4.8 2.9 1.2 1.3 0.5 0.3 0.2 0.2 0.1 0.2 1.1 0.3 1.0 1.2 0.9 0.5 0.3 0.1 0.3 0.2 0.3 0.5 0.5 0.6
1.5 4.2 2.9 3.5 2.8 3.6 3.9 4.0 4.1 4.5 5.1 5.7 4.5 2.9 2.1 1.9 2.0 1.4 1.6 1.2 1.3 0.7 0.0 0.0 0.1 0.1 1.1 0.4 0.4 0.5 0.3 0.5 0.2 0.2 0.4 0.6 0.6 1.0
3.5 5.2 4.4 3.5 3.6 3.6 3.6 3.5 3.1 2.7 3.4 3.7 3.3 2.4 1.9 1.3 1.2 0.7 0.8 1.0 1.9 1.4 1.4 0.3 0.0 0.0 0.2 0.0 1.3 0.3 0.3 0.3 0.2 0.4 1.0 1.4 1.5 1.3
4.0 5.7 9.6 9.6 6.5 4.4 4.7 3.9 3.3 2.4 2.3 2.4 3.2 2.1 1.8 1.9 1.2 1.1 0.9 1.2 1.5 0.8 0.6 0.5 1.1 1.0 0.6 0.4 0.4 0.4 0.2 0.4 0.4 0.3 0.6 1.7 1.1 1.1
6.9 6.7 10.2 10.4 5.4 2.6 2.7 2.8 4.1 3.5 1.2 2.3 2.7 3.2 3.3 2.5 3.0 2.2 2.3 2.0 1.9 0.8 0.5 0.6 1.1 3.2 6.6 9.1 0.4 nan 1.5 0.7 1.1 1.2 0.5 1.2 2.6 1.9
3.0 4.8 6.9 5.3 2.7 2.1 1.9 2.0 2.2 3.4 3.7 3.0 4.8 7.2 8.6 5.4 4.8 3.3 2.8 4.7 2.2 1.0 0.7 0.4 0.8 1.2 4.8 10.3 11.1 3.2 nan 2.4 2.2 2.8 2.1 0.7 0.7 nan
3.1 2.8 4.9 4.1 3.2 2.0 6.8 8.0 10.6 9.3 9.4 12.5 7.1 7.5 16.3 4.1 4.7 3.7 4.0 3.1 2.8 1.3 1.3 0.8 0.5 0.2 1.4 2.7 16.8 4.8 2.6 nan 0.6 1.2 1.5 2.5 2.3 1.4
5.0 3.1 3.0 3.4 5.0 4.8 9.6 15.7 13.1 12.8 9.4 6.7 13.5 19.5 16.8 7.9 7.6 6.2 7.4 7.4 2.4 2.7 1.5 0.6 0.3 0.6 1.2 2.7 3.3 7.4 2.1 2.0 nan nan nan nan 4.6 7.3
8.5 4.3 6.0 7.6 9.2 9.5 4.5 9.2 4.0 8.1 7.4 7.5 6.7 7.0 31.7 9.1 5.3 5.6 6.2 4.5 2.8 2.7 1.9 2.1 1.2 0.9 1.1 1.5 2.7 3.8 2.0 4.1 1.6 1.8 2.3 nan nan nan

GFSNE_prec_sndepth_099.txt.gz
Snowfall_Accumulation
0.0 0.0 0.0 0.0 0.0 0.0 0.0 0.0 0.0 0.0 0.0 0.0 0.0 0.0 0.0 0.0 0.0 0.0 0.0 nan nan nan nan nan nan nan nan nan nan nan nan nan nan nan nan nan nan nan
0.0 0.0 0.0 0.0 0.0 0.0 0.0 0.0 0.0 0.0 0.0 0.0 0.0 0.0 0.0 0.0 0.0 0.0 0.0 nan nan nan nan nan nan nan nan nan nan nan nan nan nan nan nan nan nan nan
0.0 0.0 0.0 0.0 0.0 0.0 0.0 0.0 0.0 0.0 0.0 0.0 0.0 0.0 0.0 0.0 0.0 0.0 0.0 0.0 0.0 nan nan nan nan nan nan nan nan nan nan nan nan nan nan nan nan nan
0.0 0.0 0.0 0.0 0.0 0.0 0.0 0.0 0.0 0.0 0.0 0.0 0.0 0.0 0.0 0.0 0.0 0.0 0.0 0.0 0.0 nan nan nan nan nan nan nan nan nan nan nan nan nan nan nan nan nan
0.0 0.0 0.0 0.0 0.0 0.0 0.0 0.0 0.0 0.0 0.0 0.0 0.0 0.0 0.0 0.0 0.0 0.0 0.0 0.0 0.0 nan nan nan nan nan nan nan nan nan nan nan nan nan nan nan nan nan
0.0 0.0 0.0 0.0 0.0 0.0 0.0 0.0 0.0 0.0 0.0 0.0 0.0 0.0 0.0 0.0 0.0 0.0 0.0 0.0 0.0 0.0 nan nan nan nan nan nan nan nan nan nan nan nan nan nan nan nan
0.0 0.0 0.0 nan nan nan 0.0 0.0 0.0 0.0 0.0 0.0 0.0 0.0 0.0 0.0 0.0 0.0 0.0 0.0 0.0 0.0 0.0 0.0 0.0 0.0 0.0 nan nan nan nan nan nan nan nan nan nan nan
0.0 0.0 0.0 0.0 0.0 nan nan nan nan 0.0 0.0 0.0 0.0 0.0 0.0 0.0 0.0 0.0 0.0 0.0 0.2 0.0 0.0 0.0 0.0 0.0 0.0 0.0 nan nan nan nan nan nan nan nan nan nan
0.0 0.0 0.0 0.0 nan 0.0 nan nan nan nan nan 0.0 0.0 0.0 0.0 0.0 0.0 0.0 0.0 0.1 0.3 0.4 0.1 0.4 0.0 0.5 0.2 0.0 nan nan nan nan nan nan nan nan nan nan
0.0 0.0 0.0 0.0 0.0 0.0 0.0 0.0 0.0 0.1 0.1 0.1 0.9 2.4 2.5 0.8 0.0 0.0 0.1 0.3 0.7 2.1 0.7 1.8 2.2 3.5 0.9 0.6 nan nan nan nan nan nan nan nan nan nan
0.0 0.0 0.0 0.0 nan nan 0.0 0.4 2.1 4.9 nan nan nan nan nan nan nan 0.5 1.2 1.1 3.0 5.3 4.7 3.6 4.2 3.9 3.3 3.0 1.9 nan nan nan nan nan nan nan nan nan
0.4 0.4 nan 0.1 nan nan 0.1 0.2 0.9 4.7 4.2 5.3 5.2 5.6 nan nan nan 1.5 1.2 3.1 3.6 4.1 2.7 3.3 2.5 2.9 3.8 2.0 2.1 1.7 1.6 nan nan nan nan nan nan 0.2
3.0 4.2 4.2 nan nan nan nan 2.7 6.5 9.3 7.5 6.7 5.4 5.1 4.3 3.5 3.1 2.8 2.3 3.3 4.6 5.4 3.7 3.5 2.8 2.4 2.6 2.1 1.5 1.4 1.3 1.1 0.7 0.3 nan nan nan 0.0
3.6 4.0 5.1 nan nan nan 2.8 nan nan 2.9 7.5 7.8 6.6 6.1 4.9 4.2 3.3 2.5 1.8 1.6 1.6 1.6 0.8 0.8 4.0 1.8 2.2 2.1 1.9 0.6 0.6 0.5 0.4 0.2 0.4 nan nan nan
4.3 6.7 nan nan nan 1.2 nan nan 2.7 5.3 6.5 8.1 7.7 7.1 4.8 2.9 1.2 1.3 0.5 0.3 0.2 0.2 0.1 0.2 1.1 0.3 1.0 1.2 0.9 0.5 0.3 0.1 0.3 0.2 0.3 0.5 0.5 0.6
2.0 4.6 3.0 3.6 2.8 3.6 3.9 4.0 4.1 4.5 5.1 5.6 4.5 2.9 2.1 1.9 2.0 1.4 1.6 1.2 1.3 0.7 0.0 0.0 0.1 0.1 1.1 0.4 0.4 0.5 0.3 0.5 0.2 0.2 0.4 0.6 0.6 1.0
3.5 5.2 4.4 3.5 3.5 3.5 3.6 3.5 3.1 2.7 3.4 3.6 3.3 2.4 1.9 1.3 1.2 0.7 0.8 1.0 1.9 1.4 1.4 0.3 0.0 0.0 0.2 0.0 1.3 0.3 0.3 0.3 0.2 0.4 1.0 1.4 1.5 1.3
4.0 5.7 9.6 9.6 6.5 4.4 4.7 3.9 3.2 2.4 2.3 2.4 3.2 2.1 1.8 1.9 1.2 1.1 0.9 1.2 1.5 0.8 0.6 0.5 1.1 1.0 0.6 0.4 0.4 0.4 0.2 0.4 0.4 0.3 0.6 1.7 1.1 1.1
6.8 6.7 10.2 10.3 5.4 2.6 2.7 2.8 4.1 3.5 1.2 2.3 2.7 3.2 3.3 2.5 3.0 2.2 2.3 2.0 1.9 0.8 0.5 0.6 1.1 3.2 6.6 9.1 0.4 nan 1.5 0.7 1.1 1.2 0.5 1.2 2.6 1.9
3.1 4.8 6.9 5.3 2.7 2.1 1.9 2.0 2.1 3.4 3.7 3.0 4.8 7.2 8.6 5.4 4.8 3.3 2.7 4.7 2.2 1.0 0.7 0.4 0.8 1.2 4.8 10.3 11.1 3.2 nan 2.4 2.2 2.8 2.1 0.7 0.7 nan
3.1 2.8 4.8 4.1 3.2 2.0 6.8 8.0 10.5 9.2 9.4 12.5 7.0 7.5 16.3 4.1 4.7 3.7 4.0 3.1 2.8 1.3 1.3 0.8 0.5 0.2 1.4 2.7 16.7 4.8 2.6 nan 0.5 1.2 1.5 2.5 2.3 1.4
4.9 3.1 3.0 3.4 5.0 4.8 9.6 15.6 13.1 12.7 9.4 6.7 13.5 19.4 16.8 7.9 7.6 6.2 7.4 7.4 2.4 2.7 1.4 0.6 0.3 0.6 1.2 2.6 3.3 7.4 2.1 2.0 nan nan nan nan 4.6 7.4
8.5 4.3 5.9 7.6 9.1 9.5 4.5 9.2 4.0 8.1 7.4 7.5 6.6 7.0 31.7 9.1 5.3 5.6 6.2 4.4 2.8 2.7 1.8 2.1 1.2 0.9 1.1 1.5 2.7 3.8 2.0 4.1 1.6 1.8 2.3 nan nan nan

GFSNE_prec_sndepth_102.txt.gz
Snowfall_Accumulation
0.0 0.0 0.0 0.0 0.0 0.0 0.0 0.0 0.0 0.0 0.0 0.0 0.0 0.0 0.0 0.0 0.0 0.0 0.0 nan nan nan nan nan nan nan nan nan nan nan nan nan nan nan nan nan nan nan
0.0 0.0 0.0 0.0 0.0 0.0 0.0 0.0 0.0 0.0 0.0 0.0 0.0 0.0 0.0 0.0 0.0 0.0 0.0 nan nan nan nan nan nan nan nan nan nan nan nan nan nan nan nan nan nan nan
0.0 0.0 0.0 0.0 0.0 0.0 0.0 0.0 0.0 0.0 0.0 0.0 0.0 0.0 0.0 0.0 0.0 0.0 0.0 0.0 0.0 nan nan nan nan nan nan nan nan nan nan nan nan nan nan nan nan nan
0.0 0.0 0.0 0.0 0.0 0.0 0.0 0.0 0.0 0.0 0.0 0.0 0.0 0.0 0.0 0.0 0.0 0.0 0.0 0.0 0.0 nan nan nan nan nan nan nan nan nan nan nan nan nan nan nan nan nan
0.0 0.0 0.0 0.0 0.0 0.0 0.0 0.0 0.0 0.0 0.0 0.0 0.0 0.0 0.0 0.0 0.0 0.0 0.0 0.0 0.0 nan nan nan nan nan nan nan nan nan nan nan nan nan nan nan nan nan
0.0 0.0 0.0 0.0 0.0 0.0 0.0 0.0 0.0 0.0 0.0 0.0 0.0 0.0 0.0 0.0 0.0 0.0 0.0 0.0 0.0 0.0 nan nan nan nan nan nan nan nan nan nan nan nan nan nan nan nan
0.0 0.0 0.0 nan nan nan 0.0 0.0 0.0 0.0 0.0 0.0 0.0 0.0 0.0 0.0 0.0 0.0 0.0 0.0 0.0 0.0 0.0 0.0 0.0 0.0 0.0 nan nan nan nan nan nan nan nan nan nan nan
0.0 0.0 0.0 0.0 0.0 nan nan nan nan 0.0 0.0 0.0 0.0 0.0 0.0 0.0 0.0 0.0 0.0 0.0 0.2 0.0 0.0 0.0 0.0 0.0 0.0 0.0 nan nan nan nan nan nan nan nan nan nan
0.0 0.0 0.0 0.0 nan 0.0 nan nan nan nan nan 0.0 0.0 0.0 0.0 0.0 0.0 0.0 0.0 0.1 0.2 0.4 0.1 0.4 0.1 0.6 0.2 0.0 nan nan nan nan nan nan nan nan nan nan
0.0 0.0 0.0 0.0 0.0 0.0 0.0 0.0 0.0 0.1 0.1 0.1 0.8 2.3 2.3 0.7 0.0 0.0 0.1 0.3 0.7 2.1 0.7 1.9 2.1 3.5 0.9 0.5 nan nan nan nan nan nan nan nan nan nan
0.0 0.0 0.0 0.0 nan nan 0.0 0.7 2.4 4.9 nan nan nan nan nan nan nan 0.4 1.2 1.1 3.0 5.3 4.7 3.4 4.3 3.9 3.3 3.0 1.8 nan nan nan nan nan nan nan nan nan
0.5 0.4 nan 0.1 nan nan 0.1 0.2 1.1 5.2 4.7 5.4 5.2 5.7 nan nan nan 1.5 1.2 3.0 3.6 4.1 2.8 3.3 2.6 2.9 3.8 2.0 2.1 1.7 1.6 nan nan nan nan nan nan 0.2
3.1 4.2 3.9 nan nan nan nan 2.7 6.5 9.4 7.6 6.7 5.4 5.1 4.3 3.5 3.1 2.8 2.3 3.4 4.7 5.4 3.7 3.5 2.8 2.4 2.6 2.1 1.5 1.4 1.3 1.1 0.7 0.3 nan nan nan 0.0
4.2 4.2 5.3 nan nan nan 2.9 nan nan 3.0 7.6 8.1 7.0 6.6 5.3 4.6 3.4 2.7 2.0 1.7 1.6 1.6 0.8 0.8 4.0 1.8 2.2 2.1 1.9 0.6 0.6 0.5 0.4 0.2 0.4 nan nan nan
4.4 7.7 nan nan nan 1.6 nan nan 3.0 5.6 6.9 8.5 8.1 7.4 4.9 2.9 1.2 1.3 0.5 0.3 0.2 0.2 0.1 0.1 1.1 0.3 0.9 1.2 0.9 0.5 0.3 0.1 0.3 0.2 0.3 0.5 0.5 0.6
2.5 5.7 3.5 4.5 3.2 4.1 4.6 4.8 4.7 5.0 5.3 5.7 4.5 2.9 2.1 1.9 2.0 1.4 1.6 1.2 1.3 0.7 0.0 0.0 0.1 0.1 1.1 0.4 0.4 0.5 0.3 0.5 0.2 0.2 0.4 0.6 0.6 1.0
4.3 6.1 5.1 4.3 4.2 3.8 3.6 3.5 3.0 2.7 3.3 3.6 3.3 2.4 1.9 1.3 1.2 0.7 0.8 0.9 1.9 1.3 1.4 0.3 0.0 0.0 0.2 0.0 1.3 0.3 0.3 0.3 0.2 0.4 0.9 1.4 1.5 1.3
4.1 5.9 9.8 9.7 6.5 4.5 4.7 3.9 3.2 2.4 2.3 2.3 3.1 2.0 1.8 1.9 1.2 1.1 0.9 1.2 1.5 0.8 0.6 0.4 1.0 1.0 0.5 0.4 0.4 0.4 0.2 0.4 0.4 0.3 0.6 1.7 1.1 1.1
7.5 7.4 11.0 10.7 5.6 2.7 2.8 2.9 4.1 3.5 1.2 2.3 2.7 3.2 3.3 2.5 3.0 2.2 2.3 2.0 1.9 0.8 0.5 0.6 1.0 3.2 6.6 9.0 0.4 nan 1.5 0.7 1.1 1.2 0.5 1.2 2.6 1.8
4.0 5.8 8.3 6.5 3.7 3.0 2.6 2.6 2.5 3.6 3.8 3.1 4.8 7.1 8.6 5.3 4.8 3.3 2.7 4.7 2.2 0.9 0.7 0.4 0.8 1.2 4.8 10.3 11.1 3.2 nan 2.4 2.2 2.8 2.1 0.7 0.7 nan
3.1 2.8 4.8 4.1 3.2 2.0 6.8 8.0 10.5 9.2 9.4 12.5 7.0 7.4 16.3 4.1 4.7 3.7 4.0 3.1 2.8 1.3 1.2 0.8 0.5 0.2 1.4 2.7 16.7 4.8 2.6 nan 0.5 1.2 1.5 2.5 2.3 1.4
4.9 3.1 3.0 3.4 5.0 4.7 9.6 15.6 13.1 12.7 9.3 6.7 13.4 19.4 16.8 7.9 7.6 6.2 7.4 7.4 2.4 2.7 1.4 0.6 0.3 0.6 1.2 2.6 3.3 7.4 2.1 2.0 nan nan nan nan 4.6 7.5
8.5 4.3 5.9 7.6 9.1 9.5 4.5 9.2 4.0 8.1 7.4 7.5 6.6 7.0 31.6 9.1 5.3 5.6 6.2 4.4 2.8 2.7 1.8 2.1 1.2 0.9 1.1 1.5 2.7 3.8 2.0 4.1 1.6 1.8 2.3 nan nan nan

GFSNE_prec_sndepth_105.txt.gz
Snowfall_Accumulation
0.0 0.0 0.0 0.0 0.0 0.0 0.0 0.0 0.0 0.0 0.0 0.0 0.0 0.0 0.0 0.0 0.0 0.0 0.0 nan nan nan nan nan nan nan nan nan nan nan nan nan nan nan nan nan nan nan
0.0 0.0 0.0 0.0 0.0 0.0 0.0 0.0 0.0 0.0 0.0 0.0 0.0 0.0 0.0 0.0 0.0 0.0 0.0 nan nan nan nan nan nan nan nan nan nan nan nan nan nan nan nan nan nan nan
0.0 0.0 0.0 0.0 0.0 0.0 0.0 0.0 0.0 0.0 0.0 0.0 0.0 0.0 0.0 0.0 0.0 0.0 0.0 0.0 0.0 nan nan nan nan nan nan nan nan nan nan nan nan nan nan nan nan nan
0.0 0.0 0.0 0.0 0.0 0.0 0.0 0.0 0.0 0.0 0.0 0.0 0.0 0.0 0.0 0.0 0.0 0.0 0.0 0.0 0.0 nan nan nan nan nan nan nan nan nan nan nan nan nan nan nan nan nan
0.0 0.0 0.0 0.0 0.0 0.0 0.0 0.0 0.0 0.0 0.0 0.0 0.0 0.0 0.0 0.0 0.0 0.0 0.0 0.0 0.0 nan nan nan nan nan nan nan nan nan nan nan nan nan nan nan nan nan
0.0 0.0 0.0 0.0 0.0 0.0 0.0 0.0 0.0 0.0 0.0 0.0 0.0 0.0 0.0 0.0 0.0 0.0 0.0 0.0 0.0 0.0 nan nan nan nan nan nan nan nan nan nan nan nan nan nan nan nan
0.0 0.0 0.0 nan nan nan 0.0 0.0 0.0 0.0 0.0 0.0 0.0 0.0 0.0 0.0 0.0 0.0 0.0 0.0 0.0 0.0 0.0 0.0 0.0 0.0 0.0 nan nan nan nan nan nan nan nan nan nan nan
0.0 0.0 0.0 0.0 0.0 nan nan nan nan 0.0 0.0 0.0 0.0 0.0 0.0 0.0 0.0 0.0 0.0 0.0 0.1 0.0 0.0 0.0 0.0 0.0 0.0 0.0 nan nan nan nan nan nan nan nan nan nan
0.0 0.0 0.0 0.0 nan 0.0 nan nan nan nan nan 0.0 0.0 0.0 0.0 0.0 0.0 0.0 0.0 0.1 0.2 0.4 0.1 0.4 0.1 0.6 0.2 0.0 nan nan nan nan nan nan nan nan nan nan
0.0 0.0 0.0 0.0 0.0 0.0 0.0 0.0 0.1 0.1 0.1 0.1 0.7 2.1 2.0 0.6 0.0 0.0 0.1 0.3 0.7 2.0 0.6 1.9 2.1 3.5 0.9 0.5 nan nan nan nan nan nan nan nan nan nan
0.0 0.0 0.0 0.0 nan nan 0.0 0.7 2.8 5.6 nan nan nan nan nan nan nan 0.4 1.1 1.0 3.0 5.3 4.8 3.3 4.4 4.1 3.5 3.1 2.0 nan nan nan nan nan nan nan nan nan
0.7 0.5 nan 0.1 nan nan 0.1 0.2 1.8 6.4 5.6 5.9 5.5 5.7 nan nan nan 1.3 1.1 2.8 3.7 4.4 3.1 3.6 2.8 3.3 4.3 2.3 2.2 1.8 1.6 nan nan nan nan nan nan 0.2
3.1 4.3 4.0 nan nan nan nan 3.1 7.8 10.2 8.2 7.3 5.7 5.6 4.6 3.5 3.1 2.8 2.4 3.4 4.9 6.0 4.2 3.8 3.2 2.7 2.9 2.3 1.6 1.5 1.3 1.1 0.7 0.3 nan nan nan 0.0
4.7 4.3 5.4 nan nan nan 3.2 nan nan 3.3 8.0 8.2 7.1 6.7 5.4 4.6 3.5 2.9 2.2 2.0 1.9 1.9 1.1 1.0 4.3 1.9 2.2 2.1 1.9 0.6 0.6 0.5 0.4 0.2 0.4 nan nan nan
4.5 8.6 nan nan nan 1.6 nan nan 3.2 6.2 7.4 9.0 8.6 8.0 5.6 3.5 1.4 1.5 0.7 0.4 0.3 0.2 0.1 0.1 1.1 0.3 0.9 1.2 0.9 0.5 0.3 0.1 0.3 0.2 0.3 0.5 0.5 0.6
2.5 6.0 3.7 4.7 3.4 4.5 5.3 5.9 5.9 6.0 6.4 6.9 5.5 3.5 2.4 2.1 2.0 1.4 1.6 1.1 1.3 0.7 0.0 0.0 0.1 0.1 1.1 0.4 0.4 0.5 0.3 0.5 0.2 0.2 0.4 0.6 0.6 1.0
4.7 6.6 5.6 4.6 4.5 4.2 4.0 3.9 3.3 3.0 3.6 3.7 3.3 2.4 1.9 1.3 1.2 0.7 0.8 0.9 1.9 1.3 1.4 0.3 0.0 0.0 0.2 0.0 1.3 0.3 0.3 0.3 0.2 0.4 0.9 1.4 1.5 1.3
4.4 6.4 10.3 10.1 6.9 4.8 5.1 4.2 3.4 2.4 2.3 2.3 3.1 2.0 1.8 1.9 1.2 1.1 0.9 1.1 1.5 0.8 0.7 0.5 1.2 1.1 0.6 0.4 0.4 0.4 0.2 0.4 0.4 0.3 0.6 1.7 1.1 1.1
8.1 8.2 11.7 11.4 6.4 3.4 3.5 3.3 4.3 3.7 1.3 2.4 2.7 3.3 3.4 2.6 3.2 2.4 2.6 2.2 2.1 0.9 0.5 0.6 1.0 3.2 6.5 9.0 0.4 nan 1.5 0.7 1.1 1.2 0.5 1.2 2.6 1.8
4.4 6.3 8.8 7.1 4.2 3.5 3.2 3.1 2.9 3.9 4.1 3.3 5.2 7.4 8.9 5.7 4.9 3.4 2.8 4.7 2.1 0.9 0.7 0.4 0.8 1.2 4.8 10.2 11.0 3.2 nan 2.4 2.2 2.8 2.1 0.7 0.7 nan
3.1 2.8 4.9 4.1 3.2 2.0 6.8 8.0 10.5 9.2 9.3 12.4 7.0 7.4 16.3 4.1 4.7 3.7 4.0 3.1 2.8 1.3 1.2 0.8 0.5 0.2 1.4 2.7 16.7 4.8 2.6 nan 0.5 1.2 1.5 2.4 2.3 1.4
5.0 3.1 3.0 3.4 5.1 4.7 9.6 15.6 13.1 12.7 9.3 6.7 13.4 19.3 16.8 7.9 7.6 6.2 7.4 7.3 2.4 2.7 1.4 0.6 0.3 0.6 1.2 2.6 3.3 7.4 2.1 2.0 nan nan nan nan 4.6 7.6
8.5 4.3 5.9 7.6 9.1 9.5 4.5 9.2 4.0 8.1 7.4 7.5 6.6 7.0 31.5 9.1 5.3 5.6 6.2 4.4 2.8 2.7 1.8 2.1 1.1 0.9 1.1 1.5 2.7 3.8 2.0 4.1 1.6 1.8 2.3 nan nan nan

GFSNE_prec_sndepth_108.txt.gz
Snowfall_Accumulation
0.0 0.0 0.0 0.0 0.0 0.0 0.0 0.0 0.0 0.0 0.0 0.0 0.0 0.0 0.0 0.0 0.0 0.0 0.0 nan nan nan nan nan nan nan nan nan nan nan nan nan nan nan nan nan nan nan
0.0 0.0 0.0 0.0 0.0 0.0 0.0 0.0 0.0 0.0 0.0 0.0 0.0 0.0 0.0 0.0 0.0 0.0 0.0 nan nan nan nan nan nan nan nan nan nan nan nan nan nan nan nan nan nan nan
0.0 0.0 0.0 0.0 0.0 0.0 0.0 0.0 0.0 0.0 0.0 0.0 0.0 0.0 0.0 0.0 0.0 0.0 0.0 0.0 0.0 nan nan nan nan nan nan nan nan nan nan nan nan nan nan nan nan nan
0.0 0.0 0.0 0.0 0.0 0.0 0.0 0.0 0.0 0.0 0.0 0.0 0.0 0.0 0.0 0.0 0.0 0.0 0.0 0.0 0.0 nan nan nan nan nan nan nan nan nan nan nan nan nan nan nan nan nan
0.0 0.0 0.0 0.0 0.0 0.0 0.0 0.0 0.0 0.0 0.0 0.0 0.0 0.0 0.0 0.0 0.0 0.0 0.0 0.0 0.0 nan nan nan nan nan nan nan nan nan nan nan nan nan nan nan nan nan
0.0 0.0 0.0 0.0 0.0 0.0 0.0 0.0 0.0 0.0 0.0 0.0 0.0 0.0 0.0 0.0 0.0 0.0 0.0 0.0 0.0 0.0 nan nan nan nan nan nan nan nan nan nan nan nan nan nan nan nan
0.0 0.0 0.0 nan nan nan 0.0 0.0 0.0 0.0 0.0 0.0 0.0 0.0 0.0 0.0 0.0 0.0 0.0 0.0 0.0 0.0 0.0 0.0 0.0 0.0 0.0 nan nan nan nan nan nan nan nan nan nan nan
0.0 0.0 0.0 0.0 0.0 nan nan nan nan 0.0 0.0 0.0 0.0 0.0 0.0 0.0 0.0 0.0 0.0 0.0 0.1 0.0 0.0 0.0 0.0 0.0 0.0 0.0 nan nan nan nan nan nan nan nan nan nan
0.0 0.0 0.0 0.0 nan 0.0 nan nan nan nan nan 0.0 0.0 0.0 0.0 0.0 0.0 0.0 0.0 0.1 0.2 0.3 0.1 0.4 0.1 0.6 0.2 0.0 nan nan nan nan nan nan nan nan nan nan
0.0 0.0 0.0 0.0 0.0 0.0 0.0 0.0 0.1 0.1 0.1 0.1 0.6 1.7 1.7 0.5 0.0 0.0 0.1 0.3 0.7 1.9 0.6 1.9 2.1 3.6 0.8 0.5 nan nan nan nan nan nan nan nan nan nan
0.0 0.0 0.0 0.0 nan nan 0.0 0.6 2.9 6.6 nan nan nan nan nan nan nan 0.4 1.0 0.9 3.0 5.4 4.8 3.3 4.4 4.1 3.5 3.2 2.2 nan nan nan nan nan nan nan nan nan
0.6 0.5 nan 0.1 nan nan 0.1 0.2 1.9 7.9 6.4 6.8 6.6 7.0 nan nan nan 1.2 1.0 2.6 4.3 5.0 3.5 3.8 2.9 3.4 4.5 2.6 2.6 2.2 1.8 nan nan nan nan nan nan 0.2
3.1 4.3 3.9 nan nan nan nan 3.2 8.6 11.5 8.8 8.3 7.1 6.9 5.9 4.6 4.1 3.7 2.9 3.5 5.1 6.3 4.7 4.1 3.6 3.0 3.2 2.8 2.2 2.3 1.9 1.4 0.7 0.3 nan nan nan 0.0
5.1 4.4 5.5 nan nan nan 3.3 nan nan 3.6 9.2 9.6 8.5 8.4 6.8 5.4 4.7 4.2 3.3 2.6 2.4 2.5 1.8 1.6 5.0 2.9 3.3 3.2 2.6 1.0 0.6 0.5 0.4 0.2 0.3 nan nan nan
4.7 9.1 nan nan nan 1.6 nan nan 3.3 6.5 7.9 9.3 9.2 8.8 6.4 4.1 1.5 1.6 0.8 0.6 0.5 0.5 0.4 0.5 1.6 0.7 1.2 1.3 0.9 0.4 0.3 0.1 0.3 0.2 0.3 0.5 0.5 0.6
2.6 6.2 3.8 4.8 3.4 4.7 5.5 6.5 6.5 6.2 6.5 7.1 6.1 4.3 3.1 2.6 2.4 1.6 1.7 1.3 1.3 0.7 0.0 0.0 0.1 0.1 1.0 0.4 0.4 0.5 0.3 0.5 0.2 0.2 0.4 0.6 0.6 1.0
5.2 7.2 6.0 4.9 4.8 4.7 4.6 4.5 3.9 3.6 4.3 4.7 4.2 3.2 2.4 1.8 1.5 0.9 1.0 1.1 2.1 1.4 1.5 0.3 0.0 0.0 0.2 0.0 1.3 0.3 0.4 0.4 0.2 0.4 0.9 1.3 1.5 1.3
4.8 6.9 10.9 10.7 7.4 5.5 5.8 5.0 4.2 3.0 2.8 2.6 3.3 2.2 2.0 2.1 1.3 1.1 1.0 1.2 1.5 0.9 0.7 0.6 1.3 1.2 0.7 0.5 0.4 0.5 0.3 0.4 0.4 0.3 0.6 1.7 1.1 1.1
8.4 8.6 12.1 11.9 7.0 4.0 4.0 3.9 4.8 4.2 1.6 2.5 2.9 3.5 3.6 2.8 3.3 2.5 2.8 2.4 2.3 1.2 0.9 0.8 1.3 3.4 6.7 9.1 0.4 nan 1.5 0.7 1.1 1.2 0.5 1.2 2.5 1.8
4.6 6.6 9.2 7.5 4.7 4.0 3.6 3.5 3.3 4.1 4.2 3.4 5.3 7.4 8.9 5.7 5.0 3.4 2.8 4.7 2.1 0.9 0.7 0.4 0.8 1.2 4.8 10.2 11.0 3.2 nan 2.4 2.2 2.8 2.1 0.7 0.7 nan
3.1 2.8 4.9 4.1 3.2 2.0 6.8 8.0 10.5 9.2 9.4 12.4 7.0 7.4 16.2 4.1 4.8 3.7 4.0 3.1 2.8 1.2 1.2 0.8 0.5 0.2 1.3 2.6 16.7 4.7 2.6 nan 0.5 1.2 1.5 2.4 2.3 1.4
5.0 3.1 3.0 3.4 5.1 4.7 9.6 15.5 13.0 12.7 9.3 6.6 13.4 19.3 16.7 7.9 7.6 6.2 7.4 7.3 2.3 2.7 1.4 0.6 0.3 0.6 1.2 2.6 3.2 7.4 2.1 2.0 nan nan nan nan 4.6 7.6
8.5 4.3 5.9 7.6 9.1 9.5 4.5 9.2 4.0 8.1 7.4 7.5 6.6 7.0 31.4 9.1 5.3 5.6 6.2 4.4 2.8 2.7 1.8 2.1 1.1 0.9 1.1 1.5 2.7 3.8 2.0 4.1 1.6 1.8 2.3 nan nan nan

GFSNE_prec_sndepth_111.txt.gz
Snowfall_Accumulation
0.0 0.0 0.0 0.0 0.0 0.0 0.0 0.0 0.0 0.0 0.0 0.0 0.0 0.0 0.0 0.0 0.0 0.0 0.0 nan nan nan nan nan nan nan nan nan nan nan nan nan nan nan nan nan nan nan
0.0 0.0 0.0 0.0 0.0 0.0 0.0 0.0 0.0 0.0 0.0 0.0 0.0 0.0 0.0 0.0 0.0 0.0 0.0 nan nan nan nan nan nan nan nan nan nan nan nan nan nan nan nan nan nan nan
0.0 0.0 0.0 0.0 0.0 0.0 0.0 0.0 0.0 0.0 0.0 0.0 0.0 0.0 0.0 0.0 0.0 0.0 0.0 0.0 0.0 nan nan nan nan nan nan nan nan nan nan nan nan nan nan nan nan nan
0.0 0.0 0.0 0.0 0.0 0.0 0.0 0.0 0.0 0.0 0.0 0.0 0.0 0.0 0.0 0.0 0.0 0.0 0.0 0.0 0.0 nan nan nan nan nan nan nan nan nan nan nan nan nan nan nan nan nan
0.0 0.0 0.0 0.0 0.0 0.0 0.0 0.0 0.0 0.0 0.0 0.0 0.0 0.0 0.0 0.0 0.0 0.0 0.0 0.0 0.0 nan nan nan nan nan nan nan nan nan nan nan nan nan nan nan nan nan
0.0 0.0 0.0 0.0 0.0 0.0 0.0 0.0 0.0 0.0 0.0 0.0 0.0 0.0 0.0 0.0 0.0 0.0 0.0 0.0 0.0 0.0 nan nan nan nan nan nan nan nan nan nan nan nan nan nan nan nan
0.0 0.0 0.0 nan nan nan 0.0 0.0 0.0 0.0 0.0 0.0 0.0 0.0 0.0 0.0 0.0 0.0 0.0 0.0 0.0 0.0 0.0 0.0 0.0 0.0 0.0 nan nan nan nan nan nan nan nan nan nan nan
0.0 0.0 0.0 0.0 0.0 nan nan nan nan 0.0 0.0 0.0 0.0 0.0 0.0 0.0 0.0 0.0 0.0 0.0 0.1 0.0 0.0 0.0 0.0 0.0 0.0 0.0 nan nan nan nan nan nan nan nan nan nan
0.0 0.0 0.0 0.0 nan 0.0 nan nan nan nan nan 0.0 0.0 0.0 0.0 0.0 0.0 0.0 0.0 0.0 0.2 0.3 0.1 0.4 0.1 0.6 0.1 0.0 nan nan nan nan nan nan nan nan nan nan
0.0 0.0 0.0 0.0 0.0 0.0 0.0 0.0 0.1 0.1 0.1 0.1 0.4 1.4 1.3 0.2 0.0 0.0 0.1 0.2 0.6 1.8 0.5 1.9 2.0 3.5 0.8 0.4 nan nan nan nan nan nan nan nan nan nan
0.0 0.0 0.0 0.0 nan nan 0.0 0.5 2.7 6.7 nan nan nan nan nan nan nan 0.3 0.9 0.8 2.9 5.1 4.4 3.3 4.6 4.6 4.0 3.6 2.1 nan nan nan nan nan nan nan nan nan
0.6 0.5 nan 0.0 nan nan 0.1 0.2 1.7 8.0 6.1 6.5 6.7 7.5 nan nan nan 1.1 0.9 2.0 4.2 5.5 4.1 4.5 3.9 4.3 5.5 3.1 2.8 2.2 1.7 nan nan nan nan nan nan 0.2
3.3 4.3 3.8 nan nan nan nan 3.1 9.0 11.8 9.5 9.8 9.2 9.2 7.5 6.3 5.9 5.2 4.1 3.6 5.6 7.7 5.6 4.3 4.5 4.0 4.2 3.6 2.7 2.7 2.2 1.9 1.1 0.5 nan nan nan 0.0
5.1 4.4 5.7 nan nan nan 3.4 nan nan 3.8 10.2 11.1 10.1 10.1 8.4 7.1 6.3 6.0 5.2 4.4 4.1 4.0 3.0 2.3 5.9 3.5 3.7 3.9 3.2 1.8 1.3 0.8 0.4 0.2 0.3 nan nan nan
5.1 9.5 nan nan nan 1.6 nan nan 3.4 6.5 7.9 9.3 9.4 9.9 7.7 5.7 3.0 2.9 1.9 1.8 1.9 1.7 1.5 1.4 2.4 1.8 2.1 2.4 1.9 1.3 0.7 0.2 0.3 0.2 0.3 0.4 0.5 0.5
2.7 6.5 4.0 5.0 3.5 4.9 5.6 6.7 6.9 6.6 6.7 7.2 6.2 4.6 3.5 3.2 2.9 2.2 2.6 2.0 1.8 1.0 0.2 0.2 0.3 0.3 1.4 0.7 0.5 0.6 0.3 0.5 0.1 0.2 0.3 0.6 0.6 1.0
5.5 7.8 6.5 5.3 5.4 5.5 5.4 5.0 4.3 3.9 4.9 5.6 5.0 3.9 3.0 2.1 1.8 1.2 1.5 1.8 2.7 2.1 2.0 0.5 0.1 0.1 0.3 0.1 1.3 0.3 0.4 0.5 0.4 0.5 0.9 1.3 1.4 1.2
5.1 7.3 11.7 11.7 8.4 6.5 6.9 6.4 5.6 4.2 4.3 3.9 4.5 3.1 2.9 3.4 2.6 2.0 1.8 2.0 2.4 1.7 1.5 1.3 1.9 1.8 1.2 0.9 0.7 0.7 0.4 0.4 0.4 0.3 0.5 1.6 1.0 1.0
8.5 8.8 12.4 12.2 7.6 4.7 4.9 4.8 5.7 5.1 2.5 3.4 3.6 4.1 4.0 3.2 3.6 2.9 3.0 2.5 2.4 1.3 0.9 0.8 1.3 3.4 6.7 9.1 0.4 nan 1.5 0.7 1.1 1.1 0.5 1.2 2.5 1.8
4.6 6.7 9.3 7.7 4.9 4.3 4.0 4.0 3.9 4.8 4.8 4.0 5.8 7.9 9.2 5.9 5.2 3.6 2.9 4.7 2.2 0.9 0.7 0.4 0.8 1.2 4.7 10.1 10.9 3.1 nan 2.4 2.2 2.7 2.1 0.7 0.6 nan
3.1 2.8 4.8 4.1 3.1 2.0 6.8 7.9 10.5 9.2 9.3 12.4 7.0 7.4 16.2 4.1 4.7 3.7 4.0 3.0 2.8 1.2 1.2 0.8 0.5 0.2 1.3 2.6 16.6 4.7 2.6 nan 0.5 1.2 1.5 2.4 2.3 1.3
4.9 3.1 3.0 3.4 5.0 4.7 9.5 15.4 13.0 12.6 9.2 6.6 13.3 19.2 16.6 7.8 7.5 6.1 7.3 7.3 2.3 2.7 1.4 0.6 0.3 0.6 1.2 2.6 3.2 7.3 2.1 2.0 nan nan nan nan 4.5 7.5
8.5 4.3 5.9 7.5 9.1 9.4 4.4 9.1 3.9 8.0 7.3 7.5 6.6 6.9 31.2 9.0 5.2 5.5 6.1 4.4 2.8 2.7 1.8 2.1 1.1 0.9 1.0 1.5 2.7 3.7 2.0 4.0 1.6 1.7 2.2 nan nan nan

GFSNE_prec_sndepth_114.txt.gz
Snowfall_Accumulation
0.0 0.0 0.0 0.0 0.0 0.0 0.0 0.0 0.0 0.0 0.0 0.0 0.0 0.0 0.0 0.0 0.0 0.0 0.0 nan nan nan nan nan nan nan nan nan nan nan nan nan nan nan nan nan nan nan
0.0 0.0 0.0 0.0 0.0 0.0 0.0 0.0 0.0 0.0 0.0 0.0 0.0 0.0 0.0 0.0 0.0 0.0 0.0 nan nan nan nan nan nan nan nan nan nan nan nan nan nan nan nan nan nan nan
0.0 0.0 0.0 0.0 0.0 0.0 0.0 0.0 0.0 0.0 0.0 0.0 0.0 0.0 0.0 0.0 0.0 0.0 0.0 0.0 0.0 nan nan nan nan nan nan nan nan nan nan nan nan nan nan nan nan nan
0.0 0.0 0.0 0.0 0.0 0.0 0.0 0.0 0.0 0.0 0.0 0.0 0.0 0.0 0.0 0.0 0.0 0.0 0.0 0.0 0.0 nan nan nan nan nan nan nan nan nan nan nan nan nan nan nan nan nan
0.0 0.0 0.0 0.0 0.0 0.0 0.0 0.0 0.0 0.0 0.0 0.0 0.0 0.0 0.0 0.0 0.0 0.0 0.0 0.0 0.0 nan nan nan nan nan nan nan nan nan nan nan nan nan nan nan nan nan
0.0 0.0 0.0 0.0 0.0 0.0 0.0 0.0 0.0 0.0 0.0 0.0 0.0 0.0 0.0 0.0 0.0 0.0 0.0 0.0 0.0 0.0 nan nan nan nan nan nan nan nan nan nan nan nan nan nan nan nan
0.0 0.0 0.0 nan nan nan 0.0 0.0 0.0 0.0 0.0 0.0 0.0 0.0 0.0 0.0 0.0 0.0 0.0 0.0 0.0 0.0 0.0 0.0 0.0 0.0 0.0 nan nan nan nan nan nan nan nan nan nan nan
0.0 0.0 0.0 0.0 0.0 nan nan nan nan 0.0 0.0 0.0 0.0 0.0 0.0 0.0 0.0 0.0 0.0 0.0 0.1 0.0 0.0 0.0 0.0 0.0 0.0 0.0 nan nan nan nan nan nan nan nan nan nan
0.0 0.0 0.0 0.0 nan 0.0 nan nan nan nan nan 0.0 0.0 0.0 0.0 0.0 0.0 0.0 0.0 0.0 0.2 0.3 0.1 0.4 0.0 0.5 0.1 0.0 nan nan nan nan nan nan nan nan nan nan
0.0 0.0 0.0 0.0 0.0 0.0 0.0 0.0 0.0 0.1 0.1 0.1 0.3 1.0 0.9 0.1 0.0 0.0 0.0 0.1 0.5 1.6 0.5 1.8 1.9 3.2 0.7 0.4 nan nan nan nan nan nan nan nan nan nan
0.0 0.0 0.0 0.0 nan nan 0.0 0.3 2.2 6.3 nan nan nan nan nan nan nan 0.3 0.8 0.7 2.7 4.6 4.0 3.5 5.1 5.0 4.1 3.7 2.0 nan nan nan nan nan nan nan nan nan
0.6 0.5 nan 0.0 nan nan 0.0 0.1 1.3 7.2 5.4 5.7 6.0 7.0 nan nan nan 0.9 0.8 1.4 3.8 5.1 3.7 5.5 5.8 5.5 7.0 4.0 3.1 2.3 1.7 nan nan nan nan nan nan 0.2
3.6 4.5 3.9 nan nan nan nan 3.0 8.6 10.9 9.1 9.5 9.5 10.3 9.1 8.4 8.2 7.2 5.3 3.9 5.1 8.5 6.1 4.1 4.9 5.0 5.3 5.2 3.7 3.4 2.7 2.9 1.8 1.2 nan nan nan 0.0
5.4 4.6 5.8 nan nan nan 3.5 nan nan 3.8 10.2 11.3 10.6 10.9 9.5 9.0 8.7 8.5 7.6 6.5 6.2 6.2 4.9 3.0 7.1 4.5 4.7 5.3 4.7 3.0 2.4 1.8 1.1 0.7 0.7 nan nan nan
5.6 10.2 nan nan nan 1.6 nan nan 3.4 6.5 7.9 9.4 9.5 10.4 9.0 7.0 4.8 5.2 3.9 3.8 4.2 4.2 3.7 3.1 3.8 3.7 3.5 3.7 3.3 2.3 1.7 1.2 0.9 0.6 0.4 0.4 0.4 0.5
2.4 6.1 3.7 5.0 3.6 5.2 5.9 7.0 7.2 6.9 7.0 7.4 6.3 4.7 3.6 3.3 3.0 2.4 3.0 3.2 3.7 3.4 1.9 1.8 1.8 1.7 3.4 2.4 1.9 2.1 1.3 1.1 0.4 0.2 0.3 0.5 0.5 0.8
4.9 6.8 5.9 4.8 4.9 5.1 5.1 5.3 4.5 4.4 5.5 6.3 5.7 4.6 3.7 2.5 2.2 1.4 2.1 2.8 3.5 3.2 3.3 1.9 1.5 1.3 1.5 1.1 2.5 1.1 0.9 0.7 0.4 0.4 0.8 1.2 1.2 1.0
4.5 6.9 11.5 11.5 8.3 6.3 6.7 6.3 5.7 4.5 4.8 4.6 5.2 3.8 3.6 4.3 3.7 3.2 2.8 3.2 3.1 2.2 2.0 2.0 2.7 2.6 2.0 1.8 1.4 1.6 1.0 0.9 0.6 0.3 0.6 1.6 1.0 0.8
8.2 8.7 12.2 12.1 7.5 4.5 4.9 4.6 5.9 5.4 2.9 3.8 4.2 4.8 4.8 3.9 4.2 3.3 3.4 2.7 2.7 1.5 1.4 1.4 1.8 3.8 7.3 10.1 1.1 nan 1.9 0.9 1.1 1.1 0.5 1.1 2.4 1.6
4.1 6.1 8.9 7.2 4.4 4.1 3.8 4.0 3.9 4.8 4.9 4.2 6.0 8.1 9.5 6.3 5.7 4.0 3.4 5.2 2.6 1.3 1.0 0.6 0.9 1.3 4.9 10.3 11.1 3.3 nan 2.4 2.2 2.7 2.0 0.7 0.6 nan
2.8 2.5 4.6 3.8 2.9 1.8 6.6 7.7 10.3 9.1 9.2 12.2 6.9 7.3 16.0 4.0 4.7 3.6 3.9 3.0 2.7 1.2 1.2 0.7 0.5 0.2 1.3 2.6 16.5 4.7 2.5 nan 0.5 1.1 1.4 2.3 2.1 1.2
4.8 2.9 2.8 3.2 4.9 4.6 9.3 15.2 12.8 12.3 9.0 6.4 13.1 19.0 16.4 7.7 7.4 6.0 7.2 7.1 2.2 2.6 1.3 0.5 0.3 0.5 1.1 2.5 3.1 7.3 2.0 1.9 nan nan nan nan 4.3 7.3
8.3 4.2 5.8 7.4 8.9 9.2 4.3 8.9 3.8 7.9 7.2 7.3 6.4 6.7 30.9 8.9 5.0 5.3 5.9 4.2 2.7 2.6 1.7 2.0 1.0 0.8 1.0 1.4 2.5 3.6 1.9 3.9 1.4 1.5 1.9 nan nan nan

GFSNE_prec_sndepth_117.txt.gz
Snowfall_Accumulation
0.0 0.0 0.0 0.0 0.0 0.0 0.0 0.0 0.0 0.0 0.0 0.0 0.0 0.0 0.0 0.0 0.0 0.0 0.0 nan nan nan nan nan nan nan nan nan nan nan nan nan nan nan nan nan nan nan
0.0 0.0 0.0 0.0 0.0 0.0 0.0 0.0 0.0 0.0 0.0 0.0 0.0 0.0 0.0 0.0 0.0 0.0 0.0 nan nan nan nan nan nan nan nan nan nan nan nan nan nan nan nan nan nan nan
0.0 0.0 0.0 0.0 0.0 0.0 0.0 0.0 0.0 0.0 0.0 0.0 0.0 0.0 0.0 0.0 0.0 0.0 0.0 0.0 0.0 nan nan nan nan nan nan nan nan nan nan nan nan nan nan nan nan nan
0.0 0.0 0.0 0.0 0.0 0.0 0.0 0.0 0.0 0.0 0.0 0.0 0.0 0.0 0.0 0.0 0.0 0.0 0.0 0.0 0.0 nan nan nan nan nan nan nan nan nan nan nan nan nan nan nan nan nan
0.0 0.0 0.0 0.0 0.0 0.0 0.0 0.0 0.0 0.0 0.0 0.0 0.0 0.0 0.0 0.0 0.0 0.0 0.0 0.0 0.0 nan nan nan nan nan nan nan nan nan nan nan nan nan nan nan nan nan
0.0 0.0 0.0 0.0 0.0 0.0 0.0 0.0 0.0 0.0 0.0 0.0 0.0 0.0 0.0 0.0 0.0 0.0 0.0 0.0 0.0 0.0 nan nan nan nan nan nan nan nan nan nan nan nan nan nan nan nan
0.0 0.0 0.0 nan nan nan 0.0 0.0 0.0 0.0 0.0 0.0 0.0 0.0 0.0 0.0 0.0 0.0 0.0 0.0 0.0 0.0 0.0 0.0 0.0 0.0 0.0 nan nan nan nan nan nan nan nan nan nan nan
0.0 0.0 0.0 0.0 0.0 nan nan nan nan 0.0 0.0 0.0 0.0 0.0 0.0 0.0 0.0 0.0 0.0 0.0 0.1 0.0 0.0 0.0 0.0 0.0 0.0 0.0 nan nan nan nan nan nan nan nan nan nan
0.0 0.0 0.0 0.0 nan 0.0 nan nan nan nan nan 0.0 0.0 0.0 0.0 0.0 0.0 0.0 0.0 0.0 0.2 0.2 0.1 0.4 0.0 0.5 0.1 0.0 nan nan nan nan nan nan nan nan nan nan
0.0 0.0 0.0 0.0 0.0 0.0 0.0 0.0 0.0 0.1 0.1 0.0 0.2 0.9 0.8 0.1 0.0 0.0 0.0 0.1 0.5 1.3 0.4 1.7 1.8 3.0 0.7 0.4 nan nan nan nan nan nan nan nan nan nan
0.2 0.2 0.0 0.0 nan nan 0.0 0.2 1.8 5.5 nan nan nan nan nan nan nan 0.3 0.7 0.6 2.6 4.2 3.7 3.3 5.6 6.2 4.8 4.1 2.0 nan nan nan nan nan nan nan nan nan
0.7 0.6 nan 0.0 nan nan 0.0 0.1 1.1 6.6 4.8 5.0 5.5 6.2 nan nan nan 0.9 0.7 1.0 3.4 4.7 3.4 5.9 6.4 6.7 9.3 5.6 3.8 2.6 2.1 nan nan nan nan nan nan 0.4
4.0 4.7 4.1 nan nan nan nan 3.0 8.5 10.2 8.9 9.4 9.4 10.2 9.1 8.6 8.6 8.3 6.3 4.2 4.6 7.9 5.4 3.7 4.9 6.0 6.5 7.2 5.1 4.3 3.1 3.8 2.6 2.2 nan nan nan 0.7
5.7 5.1 6.2 nan nan nan 3.5 nan nan 3.8 10.2 11.2 10.6 10.9 9.5 9.0 8.9 9.1 8.8 8.2 8.0 7.8 6.3 2.7 7.0 4.6 5.5 7.0 7.1 5.0 4.4 3.4 2.2 1.9 2.1 nan nan nan
5.0 9.2 nan nan nan 1.5 nan nan 3.4 6.5 7.8 9.4 9.6 10.5 9.2 7.1 4.9 5.5 4.6 5.0 6.0 6.1 5.3 3.7 5.2 5.8 5.7 6.4 6.1 4.7 3.8 3.0 2.3 2.1 1.9 1.6 1.2 0.7
1.9 5.1 3.2 4.2 3.1 4.6 5.1 6.3 6.9 6.8 7.2 7.7 6.7 5.1 3.9 3.4 3.0 2.6 3.3 3.4 4.0 4.2 2.9 3.0 2.9 2.7 4.9 4.0 3.3 4.2 2.9 2.6 1.9 1.5 1.4 1.0 0.7 0.8
4.3 5.9 5.2 4.2 4.4 4.5 4.5 4.6 3.9 3.8 5.1 6.0 5.5 4.7 3.8 2.8 2.5 1.7 2.3 3.3 4.0 4.1 4.6 3.4 3.3 3.1 3.6 2.8 4.6 3.0 2.7 2.2 1.4 1.1 1.3 1.5 1.4 1.2
4.2 6.7 11.4 11.4 8.2 6.2 6.6 6.1 5.4 4.3 4.5 4.1 4.7 3.5 3.7 4.5 4.0 3.5 3.3 3.8 3.6 2.7 2.7 3.0 3.8 3.9 3.4 3.5 3.0 3.3 2.4 2.1 1.6 1.0 1.2 2.3 1.4 0.9
7.9 8.5 12.1 12.0 7.4 4.4 4.8 4.6 5.8 5.3 2.6 3.5 3.9 4.5 4.4 3.7 4.3 3.6 3.7 3.2 3.1 2.0 2.1 2.2 2.6 4.3 8.1 10.9 2.4 nan 2.9 1.9 1.9 1.7 0.8 1.4 2.5 1.6
3.6 5.7 8.6 7.0 4.0 3.6 3.6 3.9 3.8 4.8 4.8 4.0 5.9 8.2 9.5 6.3 5.8 4.2 3.7 5.6 3.0 1.8 1.6 1.2 1.5 2.1 5.7 11.2 12.0 4.3 nan 2.8 2.5 3.0 2.0 0.7 0.6 nan
2.5 2.2 4.3 3.6 2.7 1.6 6.5 7.6 10.2 8.9 9.0 12.1 6.8 7.2 15.9 3.9 4.7 3.7 4.0 3.0 2.8 1.2 1.3 0.9 0.7 0.3 1.5 2.7 16.7 5.0 2.6 nan 0.5 1.1 1.4 2.3 2.1 1.2
4.6 2.7 2.7 3.1 4.8 4.4 9.2 15.1 12.6 12.1 8.8 6.0 12.9 18.8 16.1 7.1 6.9 5.9 7.1 7.0 2.2 2.5 1.3 0.5 0.3 0.5 1.1 2.5 3.2 7.3 2.0 1.9 nan nan nan nan 4.3 7.2
8.2 4.1 5.7 7.2 8.7 9.1 4.2 8.8 3.7 7.8 7.1 7.2 6.3 6.4 30.7 8.7 4.5 4.7 5.4 4.0 2.5 2.5 1.7 2.0 1.0 0.8 1.0 1.4 2.5 3.6 1.8 3.9 1.4 1.5 1.8 nan nan nan

GFSNE_prec_sndepth_123.txt.gz
Snowfall_Accumulation
0.0 0.0 0.0 0.0 0.0 0.0 0.0 0.0 0.0 0.0 0.0 0.0 0.0 0.0 0.0 0.0 0.0 0.0 0.0 nan nan nan nan nan nan nan nan nan nan nan nan nan nan nan nan nan nan nan
0.0 0.0 0.0 0.0 0.0 0.0 0.0 0.0 0.0 0.0 0.0 0.0 0.0 0.0 0.0 0.0 0.0 0.0 0.0 nan nan nan nan nan nan nan nan nan nan nan nan nan nan nan nan nan nan nan
0.0 0.0 0.0 0.0 0.0 0.0 0.0 0.0 0.0 0.0 0.0 0.0 0.0 0.0 0.0 0.0 0.0 0.0 0.0 0.0 0.0 nan nan nan nan nan nan nan nan nan nan nan nan nan nan nan nan nan
0.0 0.0 0.0 0.0 0.0 0.0 0.0 0.0 0.0 0.0 0.0 0.0 0.0 0.0 0.0 0.0 0.0 0.0 0.0 0.0 0.0 nan nan nan nan nan nan nan nan nan nan nan nan nan nan nan nan nan
0.0 0.0 0.0 0.0 0.0 0.0 0.0 0.0 0.0 0.0 0.0 0.0 0.0 0.0 0.0 0.0 0.0 0.0 0.0 0.0 0.0 nan nan nan nan nan nan nan nan nan nan nan nan nan nan nan nan nan
0.0 0.0 0.0 0.0 0.0 0.0 0.0 0.0 0.0 0.0 0.0 0.0 0.0 0.0 0.0 0.0 0.0 0.0 0.0 0.0 0.0 0.0 nan nan nan nan nan nan nan nan nan nan nan nan nan nan nan nan
0.0 0.0 0.0 nan nan nan 0.0 0.0 0.0 0.0 0.0 0.0 0.0 0.0 0.0 0.0 0.0 0.0 0.0 0.0 0.0 0.0 0.0 0.0 0.0 0.0 0.0 nan nan nan nan nan nan nan nan nan nan nan
0.0 0.0 0.0 0.0 0.0 nan nan nan nan 0.0 0.0 0.0 0.0 0.0 0.0 0.0 0.0 0.0 0.0 0.0 0.1 0.0 0.0 0.0 0.0 0.0 0.0 0.0 nan nan nan nan nan nan nan nan nan nan
0.3 0.1 0.1 0.0 nan 0.0 nan nan nan nan nan 0.0 0.0 0.0 0.0 0.0 0.0 0.0 0.0 0.0 0.1 0.2 0.1 0.4 0.0 0.4 0.1 0.0 nan nan nan nan nan nan nan nan nan nan
1.9 1.6 1.2 0.8 0.3 0.0 0.0 0.0 0.3 0.6 0.6 0.2 0.2 0.8 0.7 0.1 0.0 0.0 0.0 0.0 0.4 1.0 0.3 1.4 1.6 2.8 0.6 0.3 nan nan nan nan nan nan nan nan nan nan
2.9 2.4 2.0 2.6 nan nan 1.0 1.3 2.8 5.7 nan nan nan nan nan nan nan 0.2 0.6 0.5 2.2 3.6 3.2 2.8 5.1 7.0 5.3 4.8 2.0 nan nan nan nan nan nan nan nan nan
2.9 2.6 nan 1.8 nan nan 0.6 1.0 1.9 7.3 5.2 5.0 5.4 6.1 nan nan nan 0.8 0.7 0.9 3.1 4.1 2.9 5.3 5.8 6.9 10.4 6.7 5.0 3.3 2.9 nan nan nan nan nan nan 2.5
5.3 6.1 5.5 nan nan nan nan 4.2 10.0 11.2 9.5 10.1 9.8 10.3 9.1 8.6 8.6 8.3 6.3 4.3 4.4 6.9 4.7 3.3 4.3 6.2 7.7 9.2 6.6 5.8 4.4 6.0 5.0 4.9 nan nan nan 2.4
6.2 6.1 7.1 nan nan nan 3.9 nan nan 4.0 11.2 12.1 11.2 11.5 10.0 9.4 9.0 9.2 8.8 8.1 8.2 8.0 5.9 2.3 6.2 5.1 7.0 9.4 9.5 7.1 6.7 5.6 4.3 4.6 5.0 nan nan nan
4.7 9.0 nan nan nan 1.5 nan nan 3.4 6.5 7.9 9.4 9.7 10.7 9.3 7.2 4.9 5.5 4.5 5.0 6.0 6.3 5.7 3.7 4.7 6.8 7.2 8.2 7.9 7.1 6.3 5.7 4.6 4.5 4.6 4.4 4.1 3.5
1.9 4.9 3.2 4.1 3.0 4.4 5.0 6.1 6.6 6.5 7.2 7.8 6.8 5.1 3.9 3.4 3.1 2.6 3.3 3.5 4.1 4.3 3.0 3.3 3.1 2.8 5.4 4.6 4.1 5.8 4.6 4.3 4.7 4.3 3.9 4.0 3.8 3.8
4.2 5.7 5.1 4.1 4.3 4.4 4.4 4.5 3.8 3.7 5.0 6.0 5.5 4.7 3.8 2.8 2.5 1.7 2.3 3.4 4.2 4.6 5.2 4.1 4.2 3.9 4.9 4.0 6.6 4.8 4.5 4.2 3.5 3.3 3.4 4.2 4.0 3.4
4.1 6.7 11.3 11.3 8.1 6.1 6.5 6.1 5.3 4.2 4.5 4.1 4.6 3.5 3.8 4.5 4.0 3.5 3.3 3.8 3.7 3.1 3.2 3.7 4.6 4.7 4.3 5.0 4.5 5.4 4.5 3.5 3.6 3.2 3.1 4.4 3.8 2.9
7.8 8.4 11.9 11.8 7.2 4.4 4.7 4.5 5.9 5.3 2.6 3.5 3.9 4.5 4.4 3.8 4.3 3.6 3.8 3.3 3.2 2.1 2.4 2.4 3.0 4.8 8.9 11.8 4.1 nan 4.6 3.8 3.6 3.4 2.1 2.5 3.6 2.9
3.5 5.7 8.6 6.9 3.9 3.5 3.6 3.9 3.9 4.7 4.8 4.0 5.9 8.2 9.6 6.4 5.8 4.3 3.8 5.7 3.2 2.0 1.8 1.4 1.8 2.6 6.4 11.9 13.1 6.3 nan 4.2 3.6 4.4 3.5 1.8 1.3 nan
2.4 2.2 4.3 3.6 2.6 1.5 6.5 7.5 10.1 8.8 9.0 12.0 6.8 7.1 15.9 4.1 4.8 3.8 4.1 3.0 2.9 1.5 1.7 1.3 1.3 0.5 2.1 3.1 17.5 6.6 4.1 nan 1.6 2.0 2.2 2.9 2.7 1.6
4.6 2.7 2.7 3.2 4.7 4.4 9.1 15.0 12.5 12.1 8.7 5.9 12.9 18.7 16.0 7.0 6.8 5.8 7.0 6.9 2.2 2.5 1.3 0.6 0.3 0.7 1.4 2.8 4.1 8.1 2.6 2.2 nan nan nan nan 4.6 7.5
8.2 4.1 5.6 7.2 8.7 9.0 4.2 8.7 3.7 7.7 7.0 7.2 6.4 6.4 30.5 8.8 4.6 4.7 5.4 4.0 2.4 2.5 1.7 1.9 1.0 0.8 1.3 1.7 2.8 3.9 2.1 4.0 1.3 1.5 1.8 nan nan nan